<?xml version="1.0" encoding="UTF-8" standalone="no" ?>
<gpx xmlns="http://www.topografix.com/GPX/1/1" xmlns:xsi="http://www.w3.org/2001/XMLSchema-instance" xsi:schemaLocation="http://www.topografix.com/GPX/1/1 http://www.topografix.com/GPX/1/1/gpx.xsd" version="1.1" creator="VisuGPX - https://www.visugpx.com">
  <metadata>
    <name>GR20</name>
    <desc><![CDATA[GR20 - Juin 2015]]></desc>
  </metadata>
  <trk>
    <name><![CDATA[GR20 Vizzavona - L'Onda]]></name>
    <trkseg>
      <trkpt lat="42.11491" lon="9.12167">
        <ele>1041</ele>
        <time>2015-06-24T04:17:27Z</time>
      </trkpt>
      <trkpt lat="42.11536" lon="9.12158">
        <ele>1036.2</ele>
        <time>2015-06-24T04:18:16Z</time>
      </trkpt>
      <trkpt lat="42.11579" lon="9.12144">
        <ele>1030.8</ele>
        <time>2015-06-24T04:19:01Z</time>
      </trkpt>
      <trkpt lat="42.11594" lon="9.12098">
        <ele>1026</ele>
        <time>2015-06-24T04:19:40Z</time>
      </trkpt>
      <trkpt lat="42.11606" lon="9.12038">
        <ele>1022</ele>
        <time>2015-06-24T04:20:23Z</time>
      </trkpt>
      <trkpt lat="42.1161" lon="9.1199">
        <ele>1018.4</ele>
        <time>2015-06-24T04:20:59Z</time>
      </trkpt>
      <trkpt lat="42.11623" lon="9.11958">
        <ele>1015.8</ele>
        <time>2015-06-24T04:21:27Z</time>
      </trkpt>
      <trkpt lat="42.11615" lon="9.11935">
        <ele>1014.4</ele>
        <time>2015-06-24T04:21:44Z</time>
      </trkpt>
      <trkpt lat="42.11614" lon="9.11932">
        <ele>1014.2</ele>
        <time>2015-06-24T04:21:46Z</time>
      </trkpt>
      <trkpt lat="42.11607" lon="9.11914">
        <ele>1014</ele>
        <time>2015-06-24T04:21:59Z</time>
      </trkpt>
      <trkpt lat="42.11605" lon="9.11906">
        <ele>1013.2</ele>
        <time>2015-06-24T04:22:05Z</time>
      </trkpt>
      <trkpt lat="42.11601" lon="9.11893">
        <ele>1012.4</ele>
        <time>2015-06-24T04:22:15Z</time>
      </trkpt>
      <trkpt lat="42.11587" lon="9.11847">
        <ele>1009.4</ele>
        <time>2015-06-24T04:22:49Z</time>
      </trkpt>
      <trkpt lat="42.11583" lon="9.1183">
        <ele>1008.2</ele>
        <time>2015-06-24T04:23:01Z</time>
      </trkpt>
      <trkpt lat="42.11578" lon="9.11812">
        <ele>1008</ele>
        <time>2015-06-24T04:23:14Z</time>
      </trkpt>
      <trkpt lat="42.11577" lon="9.118">
        <ele>1008</ele>
        <time>2015-06-24T04:23:23Z</time>
      </trkpt>
      <trkpt lat="42.11576" lon="9.11788">
        <ele>1008.2</ele>
        <time>2015-06-24T04:23:33Z</time>
      </trkpt>
      <trkpt lat="42.11575" lon="9.11775">
        <ele>1008.8</ele>
        <time>2015-06-24T04:23:41Z</time>
      </trkpt>
      <trkpt lat="42.11574" lon="9.11756">
        <ele>1008.8</ele>
        <time>2015-06-24T04:23:53Z</time>
      </trkpt>
      <trkpt lat="42.11577" lon="9.11736">
        <ele>1008.8</ele>
        <time>2015-06-24T04:24:06Z</time>
      </trkpt>
      <trkpt lat="42.11577" lon="9.11706">
        <ele>1008</ele>
        <time>2015-06-24T04:24:27Z</time>
      </trkpt>
      <trkpt lat="42.11573" lon="9.1168">
        <ele>1007.6</ele>
        <time>2015-06-24T04:24:45Z</time>
      </trkpt>
      <trkpt lat="42.11572" lon="9.11661">
        <ele>1007.4</ele>
        <time>2015-06-24T04:24:58Z</time>
      </trkpt>
      <trkpt lat="42.11574" lon="9.11637">
        <ele>1007</ele>
        <time>2015-06-24T04:25:18Z</time>
      </trkpt>
      <trkpt lat="42.11578" lon="9.11617">
        <ele>1006.4</ele>
        <time>2015-06-24T04:25:35Z</time>
      </trkpt>
      <trkpt lat="42.11582" lon="9.11576">
        <ele>1005</ele>
        <time>2015-06-24T04:26:07Z</time>
      </trkpt>
      <trkpt lat="42.11588" lon="9.11514">
        <ele>1002.6</ele>
        <time>2015-06-24T04:26:46Z</time>
      </trkpt>
      <trkpt lat="42.11589" lon="9.11486">
        <ele>1001.4</ele>
        <time>2015-06-24T04:27:06Z</time>
      </trkpt>
      <trkpt lat="42.11589" lon="9.11477">
        <ele>1001</ele>
        <time>2015-06-24T04:27:13Z</time>
      </trkpt>
      <trkpt lat="42.1159" lon="9.11457">
        <ele>1000.6</ele>
        <time>2015-06-24T04:27:27Z</time>
      </trkpt>
      <trkpt lat="42.11597" lon="9.11429">
        <ele>1000.2</ele>
        <time>2015-06-24T04:27:45Z</time>
      </trkpt>
      <trkpt lat="42.11603" lon="9.11365">
        <ele>998</ele>
        <time>2015-06-24T04:28:28Z</time>
      </trkpt>
      <trkpt lat="42.11607" lon="9.11338">
        <ele>997.2</ele>
        <time>2015-06-24T04:28:48Z</time>
      </trkpt>
      <trkpt lat="42.11613" lon="9.11325">
        <ele>997.2</ele>
        <time>2015-06-24T04:29:01Z</time>
      </trkpt>
      <trkpt lat="42.11621" lon="9.11298">
        <ele>997</ele>
        <time>2015-06-24T04:29:17Z</time>
      </trkpt>
      <trkpt lat="42.11628" lon="9.1127">
        <ele>996.8</ele>
        <time>2015-06-24T04:29:36Z</time>
      </trkpt>
      <trkpt lat="42.11632" lon="9.1125">
        <ele>996.6</ele>
        <time>2015-06-24T04:29:50Z</time>
      </trkpt>
      <trkpt lat="42.11637" lon="9.11234">
        <ele>996</ele>
        <time>2015-06-24T04:30:13Z</time>
      </trkpt>
      <trkpt lat="42.11635" lon="9.11233">
        <ele>996</ele>
        <time>2015-06-24T04:30:27Z</time>
      </trkpt>
      <trkpt lat="42.11638" lon="9.11233">
        <ele>996</ele>
        <time>2015-06-24T04:30:46Z</time>
      </trkpt>
      <trkpt lat="42.11632" lon="9.11236">
        <ele>995.8</ele>
        <time>2015-06-24T04:30:55Z</time>
      </trkpt>
      <trkpt lat="42.11628" lon="9.11229">
        <ele>996.2</ele>
        <time>2015-06-24T04:31:06Z</time>
      </trkpt>
      <trkpt lat="42.11627" lon="9.11218">
        <ele>996.4</ele>
        <time>2015-06-24T04:31:18Z</time>
      </trkpt>
      <trkpt lat="42.11625" lon="9.11217">
        <ele>996.4</ele>
        <time>2015-06-24T04:31:19Z</time>
      </trkpt>
      <trkpt lat="42.11622" lon="9.11211">
        <ele>996.6</ele>
        <time>2015-06-24T04:31:25Z</time>
      </trkpt>
      <trkpt lat="42.1162" lon="9.11205">
        <ele>997</ele>
        <time>2015-06-24T04:31:33Z</time>
      </trkpt>
      <trkpt lat="42.11617" lon="9.11193">
        <ele>997.4</ele>
        <time>2015-06-24T04:31:47Z</time>
      </trkpt>
      <trkpt lat="42.11615" lon="9.11191">
        <ele>997.4</ele>
        <time>2015-06-24T04:31:53Z</time>
      </trkpt>
      <trkpt lat="42.11612" lon="9.1119">
        <ele>997.8</ele>
        <time>2015-06-24T04:31:58Z</time>
      </trkpt>
      <trkpt lat="42.11611" lon="9.11185">
        <ele>998.8</ele>
        <time>2015-06-24T04:32:04Z</time>
      </trkpt>
      <trkpt lat="42.11609" lon="9.11178">
        <ele>999.2</ele>
        <time>2015-06-24T04:32:11Z</time>
      </trkpt>
      <trkpt lat="42.1161" lon="9.11174">
        <ele>999.6</ele>
        <time>2015-06-24T04:32:14Z</time>
      </trkpt>
      <trkpt lat="42.11608" lon="9.11168">
        <ele>1000</ele>
        <time>2015-06-24T04:32:22Z</time>
      </trkpt>
      <trkpt lat="42.11609" lon="9.11163">
        <ele>1000.2</ele>
        <time>2015-06-24T04:32:28Z</time>
      </trkpt>
      <trkpt lat="42.11606" lon="9.11159">
        <ele>1000.8</ele>
        <time>2015-06-24T04:32:33Z</time>
      </trkpt>
      <trkpt lat="42.11605" lon="9.11151">
        <ele>1001.6</ele>
        <time>2015-06-24T04:32:39Z</time>
      </trkpt>
      <trkpt lat="42.11603" lon="9.11145">
        <ele>1002.2</ele>
        <time>2015-06-24T04:32:45Z</time>
      </trkpt>
      <trkpt lat="42.11604" lon="9.11139">
        <ele>1003</ele>
        <time>2015-06-24T04:32:52Z</time>
      </trkpt>
      <trkpt lat="42.11603" lon="9.11135">
        <ele>1003.4</ele>
        <time>2015-06-24T04:32:56Z</time>
      </trkpt>
      <trkpt lat="42.11604" lon="9.11134">
        <ele>1003.6</ele>
        <time>2015-06-24T04:32:58Z</time>
      </trkpt>
      <trkpt lat="42.11603" lon="9.11128">
        <ele>1004.2</ele>
        <time>2015-06-24T04:33:04Z</time>
      </trkpt>
      <trkpt lat="42.11607" lon="9.11123">
        <ele>1004.6</ele>
        <time>2015-06-24T04:33:09Z</time>
      </trkpt>
      <trkpt lat="42.11609" lon="9.1112">
        <ele>1004.8</ele>
        <time>2015-06-24T04:33:13Z</time>
      </trkpt>
      <trkpt lat="42.1161" lon="9.11118">
        <ele>1004.8</ele>
        <time>2015-06-24T04:33:15Z</time>
      </trkpt>
      <trkpt lat="42.11611" lon="9.11118">
        <ele>1005</ele>
        <time>2015-06-24T04:33:16Z</time>
      </trkpt>
      <trkpt lat="42.11612" lon="9.11116">
        <ele>1005.2</ele>
        <time>2015-06-24T04:33:18Z</time>
      </trkpt>
      <trkpt lat="42.11615" lon="9.11111">
        <ele>1005.2</ele>
        <time>2015-06-24T04:33:23Z</time>
      </trkpt>
      <trkpt lat="42.11616" lon="9.11105">
        <ele>1005.8</ele>
        <time>2015-06-24T04:33:31Z</time>
      </trkpt>
      <trkpt lat="42.11614" lon="9.11098">
        <ele>1006.2</ele>
        <time>2015-06-24T04:33:39Z</time>
      </trkpt>
      <trkpt lat="42.11614" lon="9.11094">
        <ele>1006.4</ele>
        <time>2015-06-24T04:33:43Z</time>
      </trkpt>
      <trkpt lat="42.11615" lon="9.11088">
        <ele>1007.8</ele>
        <time>2015-06-24T04:33:54Z</time>
      </trkpt>
      <trkpt lat="42.11627" lon="9.11083">
        <ele>1008</ele>
        <time>2015-06-24T04:34:12Z</time>
      </trkpt>
      <trkpt lat="42.11628" lon="9.11081">
        <ele>1008</ele>
        <time>2015-06-24T04:34:16Z</time>
      </trkpt>
      <trkpt lat="42.11632" lon="9.11075">
        <ele>1009</ele>
        <time>2015-06-24T04:34:31Z</time>
      </trkpt>
      <trkpt lat="42.11636" lon="9.11068">
        <ele>1009</ele>
        <time>2015-06-24T04:34:41Z</time>
      </trkpt>
      <trkpt lat="42.11638" lon="9.11062">
        <ele>1009.8</ele>
        <time>2015-06-24T04:34:49Z</time>
      </trkpt>
      <trkpt lat="42.11641" lon="9.1106">
        <ele>1010</ele>
        <time>2015-06-24T04:34:55Z</time>
      </trkpt>
      <trkpt lat="42.11644" lon="9.11056">
        <ele>1011</ele>
        <time>2015-06-24T04:35:03Z</time>
      </trkpt>
      <trkpt lat="42.11651" lon="9.11053">
        <ele>1011.4</ele>
        <time>2015-06-24T04:35:19Z</time>
      </trkpt>
      <trkpt lat="42.11653" lon="9.1105">
        <ele>1011.6</ele>
        <time>2015-06-24T04:35:26Z</time>
      </trkpt>
      <trkpt lat="42.11655" lon="9.11045">
        <ele>1012.2</ele>
        <time>2015-06-24T04:35:34Z</time>
      </trkpt>
      <trkpt lat="42.11656" lon="9.11044">
        <ele>1012.6</ele>
        <time>2015-06-24T04:35:39Z</time>
      </trkpt>
      <trkpt lat="42.1166" lon="9.11043">
        <ele>1013.6</ele>
        <time>2015-06-24T04:35:45Z</time>
      </trkpt>
      <trkpt lat="42.11662" lon="9.11042">
        <ele>1014.4</ele>
        <time>2015-06-24T04:35:52Z</time>
      </trkpt>
      <trkpt lat="42.11662" lon="9.11039">
        <ele>1015</ele>
        <time>2015-06-24T04:35:59Z</time>
      </trkpt>
      <trkpt lat="42.11664" lon="9.11037">
        <ele>1015.6</ele>
        <time>2015-06-24T04:36:04Z</time>
      </trkpt>
      <trkpt lat="42.11666" lon="9.11037">
        <ele>1016.2</ele>
        <time>2015-06-24T04:36:09Z</time>
      </trkpt>
      <trkpt lat="42.11665" lon="9.11035">
        <ele>1017.2</ele>
        <time>2015-06-24T04:36:16Z</time>
      </trkpt>
      <trkpt lat="42.11666" lon="9.11033">
        <ele>1017.8</ele>
        <time>2015-06-24T04:36:22Z</time>
      </trkpt>
      <trkpt lat="42.11664" lon="9.11028">
        <ele>1019</ele>
        <time>2015-06-24T04:36:30Z</time>
      </trkpt>
      <trkpt lat="42.11667" lon="9.11026">
        <ele>1019.4</ele>
        <time>2015-06-24T04:36:38Z</time>
      </trkpt>
      <trkpt lat="42.1167" lon="9.11021">
        <ele>1020</ele>
        <time>2015-06-24T04:36:48Z</time>
      </trkpt>
      <trkpt lat="42.11673" lon="9.11018">
        <ele>1020.4</ele>
        <time>2015-06-24T04:36:55Z</time>
      </trkpt>
      <trkpt lat="42.11674" lon="9.11014">
        <ele>1021</ele>
        <time>2015-06-24T04:37:01Z</time>
      </trkpt>
      <trkpt lat="42.11676" lon="9.1101">
        <ele>1021.4</ele>
        <time>2015-06-24T04:37:06Z</time>
      </trkpt>
      <trkpt lat="42.11679" lon="9.11009">
        <ele>1022.6</ele>
        <time>2015-06-24T04:37:14Z</time>
      </trkpt>
      <trkpt lat="42.11686" lon="9.11009">
        <ele>1023</ele>
        <time>2015-06-24T04:37:22Z</time>
      </trkpt>
      <trkpt lat="42.11692" lon="9.11008">
        <ele>1023</ele>
        <time>2015-06-24T04:37:34Z</time>
      </trkpt>
      <trkpt lat="42.11698" lon="9.11001">
        <ele>1023</ele>
        <time>2015-06-24T04:37:44Z</time>
      </trkpt>
      <trkpt lat="42.117" lon="9.10995">
        <ele>1023.6</ele>
        <time>2015-06-24T04:37:51Z</time>
      </trkpt>
      <trkpt lat="42.117" lon="9.10992">
        <ele>1024.2</ele>
        <time>2015-06-24T04:37:58Z</time>
      </trkpt>
      <trkpt lat="42.11705" lon="9.10986">
        <ele>1025</ele>
        <time>2015-06-24T04:38:06Z</time>
      </trkpt>
      <trkpt lat="42.11707" lon="9.10983">
        <ele>1025.2</ele>
        <time>2015-06-24T04:38:12Z</time>
      </trkpt>
      <trkpt lat="42.1171" lon="9.10983">
        <ele>1026</ele>
        <time>2015-06-24T04:38:18Z</time>
      </trkpt>
      <trkpt lat="42.11713" lon="9.1098">
        <ele>1026.8</ele>
        <time>2015-06-24T04:38:24Z</time>
      </trkpt>
      <trkpt lat="42.11716" lon="9.10975">
        <ele>1027.6</ele>
        <time>2015-06-24T04:38:31Z</time>
      </trkpt>
      <trkpt lat="42.11713" lon="9.10972">
        <ele>1028.2</ele>
        <time>2015-06-24T04:38:35Z</time>
      </trkpt>
      <trkpt lat="42.1171" lon="9.10969">
        <ele>1028.6</ele>
        <time>2015-06-24T04:38:42Z</time>
      </trkpt>
      <trkpt lat="42.11711" lon="9.10968">
        <ele>1028.8</ele>
        <time>2015-06-24T04:38:48Z</time>
      </trkpt>
      <trkpt lat="42.11716" lon="9.1097">
        <ele>1029.6</ele>
        <time>2015-06-24T04:38:58Z</time>
      </trkpt>
      <trkpt lat="42.11721" lon="9.10969">
        <ele>1030</ele>
        <time>2015-06-24T04:39:03Z</time>
      </trkpt>
      <trkpt lat="42.11725" lon="9.10967">
        <ele>1029.8</ele>
        <time>2015-06-24T04:39:07Z</time>
      </trkpt>
      <trkpt lat="42.11725" lon="9.10965">
        <ele>1030</ele>
        <time>2015-06-24T04:39:09Z</time>
      </trkpt>
      <trkpt lat="42.11725" lon="9.1096">
        <ele>1030.6</ele>
        <time>2015-06-24T04:39:14Z</time>
      </trkpt>
      <trkpt lat="42.11725" lon="9.10956">
        <ele>1031.4</ele>
        <time>2015-06-24T04:39:20Z</time>
      </trkpt>
      <trkpt lat="42.11725" lon="9.10955">
        <ele>1032.2</ele>
        <time>2015-06-24T04:39:26Z</time>
      </trkpt>
      <trkpt lat="42.11722" lon="9.10953">
        <ele>1033.2</ele>
        <time>2015-06-24T04:39:33Z</time>
      </trkpt>
      <trkpt lat="42.11721" lon="9.1095">
        <ele>1033.8</ele>
        <time>2015-06-24T04:39:40Z</time>
      </trkpt>
      <trkpt lat="42.11722" lon="9.10947">
        <ele>1034.6</ele>
        <time>2015-06-24T04:39:46Z</time>
      </trkpt>
      <trkpt lat="42.11727" lon="9.10941">
        <ele>1035.6</ele>
        <time>2015-06-24T04:39:57Z</time>
      </trkpt>
      <trkpt lat="42.1173" lon="9.10935">
        <ele>1035.8</ele>
        <time>2015-06-24T04:40:04Z</time>
      </trkpt>
      <trkpt lat="42.11731" lon="9.10933">
        <ele>1036.6</ele>
        <time>2015-06-24T04:40:11Z</time>
      </trkpt>
      <trkpt lat="42.11735" lon="9.10931">
        <ele>1037.2</ele>
        <time>2015-06-24T04:40:17Z</time>
      </trkpt>
      <trkpt lat="42.11737" lon="9.10927">
        <ele>1038.2</ele>
        <time>2015-06-24T04:40:25Z</time>
      </trkpt>
      <trkpt lat="42.11739" lon="9.10924">
        <ele>1039</ele>
        <time>2015-06-24T04:40:32Z</time>
      </trkpt>
      <trkpt lat="42.11741" lon="9.1092">
        <ele>1039.8</ele>
        <time>2015-06-24T04:40:41Z</time>
      </trkpt>
      <trkpt lat="42.11742" lon="9.10917">
        <ele>1040.2</ele>
        <time>2015-06-24T04:40:47Z</time>
      </trkpt>
      <trkpt lat="42.11742" lon="9.10913">
        <ele>1041</ele>
        <time>2015-06-24T04:40:54Z</time>
      </trkpt>
      <trkpt lat="42.11745" lon="9.10912">
        <ele>1041.8</ele>
        <time>2015-06-24T04:41:00Z</time>
      </trkpt>
      <trkpt lat="42.11752" lon="9.10908">
        <ele>1042.4</ele>
        <time>2015-06-24T04:41:14Z</time>
      </trkpt>
      <trkpt lat="42.11755" lon="9.10902">
        <ele>1043</ele>
        <time>2015-06-24T04:41:21Z</time>
      </trkpt>
      <trkpt lat="42.11756" lon="9.10902">
        <ele>1043</ele>
        <time>2015-06-24T04:41:22Z</time>
      </trkpt>
      <trkpt lat="42.11755" lon="9.10899">
        <ele>1043.8</ele>
        <time>2015-06-24T04:41:28Z</time>
      </trkpt>
      <trkpt lat="42.11756" lon="9.10894">
        <ele>1044.6</ele>
        <time>2015-06-24T04:41:38Z</time>
      </trkpt>
      <trkpt lat="42.11754" lon="9.10892">
        <ele>1045.2</ele>
        <time>2015-06-24T04:41:45Z</time>
      </trkpt>
      <trkpt lat="42.11753" lon="9.10893">
        <ele>1045.8</ele>
        <time>2015-06-24T04:41:51Z</time>
      </trkpt>
      <trkpt lat="42.11755" lon="9.10889">
        <ele>1046.4</ele>
        <time>2015-06-24T04:41:57Z</time>
      </trkpt>
      <trkpt lat="42.11757" lon="9.10886">
        <ele>1047.2</ele>
        <time>2015-06-24T04:42:02Z</time>
      </trkpt>
      <trkpt lat="42.11757" lon="9.10881">
        <ele>1048.4</ele>
        <time>2015-06-24T04:42:08Z</time>
      </trkpt>
      <trkpt lat="42.1176" lon="9.10879">
        <ele>1048.8</ele>
        <time>2015-06-24T04:42:13Z</time>
      </trkpt>
      <trkpt lat="42.11767" lon="9.10879">
        <ele>1050</ele>
        <time>2015-06-24T04:42:24Z</time>
      </trkpt>
      <trkpt lat="42.11771" lon="9.10877">
        <ele>1050.4</ele>
        <time>2015-06-24T04:42:30Z</time>
      </trkpt>
      <trkpt lat="42.11773" lon="9.10874">
        <ele>1051.4</ele>
        <time>2015-06-24T04:42:36Z</time>
      </trkpt>
      <trkpt lat="42.11775" lon="9.10873">
        <ele>1051.6</ele>
        <time>2015-06-24T04:42:38Z</time>
      </trkpt>
      <trkpt lat="42.11773" lon="9.10866">
        <ele>1052.4</ele>
        <time>2015-06-24T04:42:43Z</time>
      </trkpt>
      <trkpt lat="42.11778" lon="9.10861">
        <ele>1053.4</ele>
        <time>2015-06-24T04:42:51Z</time>
      </trkpt>
      <trkpt lat="42.11778" lon="9.10858">
        <ele>1053.8</ele>
        <time>2015-06-24T04:42:58Z</time>
      </trkpt>
      <trkpt lat="42.11779" lon="9.10856">
        <ele>1054.4</ele>
        <time>2015-06-24T04:43:03Z</time>
      </trkpt>
      <trkpt lat="42.11777" lon="9.10855">
        <ele>1055.4</ele>
        <time>2015-06-24T04:43:10Z</time>
      </trkpt>
      <trkpt lat="42.11774" lon="9.10854">
        <ele>1056</ele>
        <time>2015-06-24T04:43:15Z</time>
      </trkpt>
      <trkpt lat="42.11773" lon="9.1085">
        <ele>1057.2</ele>
        <time>2015-06-24T04:43:22Z</time>
      </trkpt>
      <trkpt lat="42.11773" lon="9.10847">
        <ele>1058.2</ele>
        <time>2015-06-24T04:43:29Z</time>
      </trkpt>
      <trkpt lat="42.11773" lon="9.10844">
        <ele>1058.8</ele>
        <time>2015-06-24T04:43:35Z</time>
      </trkpt>
      <trkpt lat="42.1177" lon="9.10841">
        <ele>1060</ele>
        <time>2015-06-24T04:43:43Z</time>
      </trkpt>
      <trkpt lat="42.1177" lon="9.10839">
        <ele>1060.6</ele>
        <time>2015-06-24T04:43:50Z</time>
      </trkpt>
      <trkpt lat="42.11775" lon="9.1084">
        <ele>1061.2</ele>
        <time>2015-06-24T04:43:58Z</time>
      </trkpt>
      <trkpt lat="42.11778" lon="9.1084">
        <ele>1061.8</ele>
        <time>2015-06-24T04:44:03Z</time>
      </trkpt>
      <trkpt lat="42.1178" lon="9.10839">
        <ele>1062.8</ele>
        <time>2015-06-24T04:44:09Z</time>
      </trkpt>
      <trkpt lat="42.11783" lon="9.10838">
        <ele>1063.8</ele>
        <time>2015-06-24T04:44:16Z</time>
      </trkpt>
      <trkpt lat="42.11788" lon="9.10835">
        <ele>1064.6</ele>
        <time>2015-06-24T04:44:22Z</time>
      </trkpt>
      <trkpt lat="42.11789" lon="9.10832">
        <ele>1065.4</ele>
        <time>2015-06-24T04:44:28Z</time>
      </trkpt>
      <trkpt lat="42.11787" lon="9.10828">
        <ele>1066.4</ele>
        <time>2015-06-24T04:44:35Z</time>
      </trkpt>
      <trkpt lat="42.11788" lon="9.10825">
        <ele>1067</ele>
        <time>2015-06-24T04:44:41Z</time>
      </trkpt>
      <trkpt lat="42.11788" lon="9.10824">
        <ele>1067.8</ele>
        <time>2015-06-24T04:44:47Z</time>
      </trkpt>
      <trkpt lat="42.11786" lon="9.10822">
        <ele>1068.6</ele>
        <time>2015-06-24T04:44:52Z</time>
      </trkpt>
      <trkpt lat="42.11786" lon="9.10819">
        <ele>1069.8</ele>
        <time>2015-06-24T04:44:59Z</time>
      </trkpt>
      <trkpt lat="42.11789" lon="9.10822">
        <ele>1070.6</ele>
        <time>2015-06-24T04:45:06Z</time>
      </trkpt>
      <trkpt lat="42.1179" lon="9.10818">
        <ele>1071.6</ele>
        <time>2015-06-24T04:45:13Z</time>
      </trkpt>
      <trkpt lat="42.11789" lon="9.10815">
        <ele>1072.4</ele>
        <time>2015-06-24T04:45:21Z</time>
      </trkpt>
      <trkpt lat="42.1179" lon="9.10813">
        <ele>1073</ele>
        <time>2015-06-24T04:45:27Z</time>
      </trkpt>
      <trkpt lat="42.11791" lon="9.1081">
        <ele>1074</ele>
        <time>2015-06-24T04:45:35Z</time>
      </trkpt>
      <trkpt lat="42.11792" lon="9.10808">
        <ele>1074.6</ele>
        <time>2015-06-24T04:45:41Z</time>
      </trkpt>
      <trkpt lat="42.11794" lon="9.10808">
        <ele>1075.4</ele>
        <time>2015-06-24T04:45:47Z</time>
      </trkpt>
      <trkpt lat="42.11796" lon="9.10807">
        <ele>1076.6</ele>
        <time>2015-06-24T04:45:54Z</time>
      </trkpt>
      <trkpt lat="42.11797" lon="9.10807">
        <ele>1077.2</ele>
        <time>2015-06-24T04:46:03Z</time>
      </trkpt>
      <trkpt lat="42.11798" lon="9.10805">
        <ele>1078</ele>
        <time>2015-06-24T04:46:10Z</time>
      </trkpt>
      <trkpt lat="42.118" lon="9.10803">
        <ele>1079</ele>
        <time>2015-06-24T04:46:17Z</time>
      </trkpt>
      <trkpt lat="42.118" lon="9.10801">
        <ele>1079.6</ele>
        <time>2015-06-24T04:46:23Z</time>
      </trkpt>
      <trkpt lat="42.118" lon="9.10799">
        <ele>1080.6</ele>
        <time>2015-06-24T04:46:30Z</time>
      </trkpt>
      <trkpt lat="42.118" lon="9.10798">
        <ele>1081.4</ele>
        <time>2015-06-24T04:46:36Z</time>
      </trkpt>
      <trkpt lat="42.118" lon="9.10797">
        <ele>1082.4</ele>
        <time>2015-06-24T04:46:43Z</time>
      </trkpt>
      <trkpt lat="42.118" lon="9.10794">
        <ele>1083.4</ele>
        <time>2015-06-24T04:47:00Z</time>
      </trkpt>
      <trkpt lat="42.11799" lon="9.10792">
        <ele>1083.6</ele>
        <time>2015-06-24T04:47:21Z</time>
      </trkpt>
      <trkpt lat="42.11797" lon="9.10789">
        <ele>1084.2</ele>
        <time>2015-06-24T04:47:29Z</time>
      </trkpt>
      <trkpt lat="42.11795" lon="9.10787">
        <ele>1084.8</ele>
        <time>2015-06-24T04:47:35Z</time>
      </trkpt>
      <trkpt lat="42.11795" lon="9.10786">
        <ele>1085.8</ele>
        <time>2015-06-24T04:47:54Z</time>
      </trkpt>
      <trkpt lat="42.11794" lon="9.10784">
        <ele>1085.6</ele>
        <time>2015-06-24T04:48:38Z</time>
      </trkpt>
      <trkpt lat="42.11796" lon="9.10786">
        <ele>1085.6</ele>
        <time>2015-06-24T04:49:14Z</time>
      </trkpt>
      <trkpt lat="42.11797" lon="9.10788">
        <ele>1085.8</ele>
        <time>2015-06-24T04:49:39Z</time>
      </trkpt>
      <trkpt lat="42.11797" lon="9.10788">
        <ele>1085.8</ele>
        <time>2015-06-24T04:50:14Z</time>
      </trkpt>
      <trkpt lat="42.11796" lon="9.10788">
        <ele>1086.4</ele>
        <time>2015-06-24T04:50:32Z</time>
      </trkpt>
      <trkpt lat="42.11795" lon="9.10785">
        <ele>1086</ele>
        <time>2015-06-24T04:51:16Z</time>
      </trkpt>
      <trkpt lat="42.11796" lon="9.10787">
        <ele>1086</ele>
        <time>2015-06-24T04:51:51Z</time>
      </trkpt>
      <trkpt lat="42.11794" lon="9.10786">
        <ele>1086.4</ele>
        <time>2015-06-24T04:52:10Z</time>
      </trkpt>
      <trkpt lat="42.11792" lon="9.10784">
        <ele>1086.4</ele>
        <time>2015-06-24T04:52:35Z</time>
      </trkpt>
      <trkpt lat="42.11791" lon="9.10779">
        <ele>1087.2</ele>
        <time>2015-06-24T04:52:44Z</time>
      </trkpt>
      <trkpt lat="42.11791" lon="9.10777">
        <ele>1088</ele>
        <time>2015-06-24T04:52:52Z</time>
      </trkpt>
      <trkpt lat="42.11798" lon="9.10777">
        <ele>1088.8</ele>
        <time>2015-06-24T04:52:59Z</time>
      </trkpt>
      <trkpt lat="42.11801" lon="9.10778">
        <ele>1090</ele>
        <time>2015-06-24T04:53:07Z</time>
      </trkpt>
      <trkpt lat="42.11809" lon="9.10776">
        <ele>1090.8</ele>
        <time>2015-06-24T04:53:29Z</time>
      </trkpt>
      <trkpt lat="42.11809" lon="9.10777">
        <ele>1091</ele>
        <time>2015-06-24T04:53:35Z</time>
      </trkpt>
      <trkpt lat="42.11808" lon="9.10776">
        <ele>1092.2</ele>
        <time>2015-06-24T04:53:44Z</time>
      </trkpt>
      <trkpt lat="42.1181" lon="9.10774">
        <ele>1092.8</ele>
        <time>2015-06-24T04:53:52Z</time>
      </trkpt>
      <trkpt lat="42.11811" lon="9.1077">
        <ele>1093.4</ele>
        <time>2015-06-24T04:53:57Z</time>
      </trkpt>
      <trkpt lat="42.1181" lon="9.10767">
        <ele>1094.4</ele>
        <time>2015-06-24T04:54:03Z</time>
      </trkpt>
      <trkpt lat="42.11807" lon="9.10765">
        <ele>1095.4</ele>
        <time>2015-06-24T04:54:08Z</time>
      </trkpt>
      <trkpt lat="42.11804" lon="9.10764">
        <ele>1096.4</ele>
        <time>2015-06-24T04:54:14Z</time>
      </trkpt>
      <trkpt lat="42.11805" lon="9.10762">
        <ele>1097.4</ele>
        <time>2015-06-24T04:54:21Z</time>
      </trkpt>
      <trkpt lat="42.11808" lon="9.10763">
        <ele>1098.4</ele>
        <time>2015-06-24T04:54:30Z</time>
      </trkpt>
      <trkpt lat="42.11811" lon="9.10761">
        <ele>1099.4</ele>
        <time>2015-06-24T04:54:37Z</time>
      </trkpt>
      <trkpt lat="42.11814" lon="9.1076">
        <ele>1100.4</ele>
        <time>2015-06-24T04:54:45Z</time>
      </trkpt>
      <trkpt lat="42.11816" lon="9.10758">
        <ele>1101.2</ele>
        <time>2015-06-24T04:54:52Z</time>
      </trkpt>
      <trkpt lat="42.11816" lon="9.10755">
        <ele>1101.8</ele>
        <time>2015-06-24T04:54:58Z</time>
      </trkpt>
      <trkpt lat="42.11818" lon="9.10747">
        <ele>1103</ele>
        <time>2015-06-24T04:55:05Z</time>
      </trkpt>
      <trkpt lat="42.11821" lon="9.10744">
        <ele>1104.2</ele>
        <time>2015-06-24T04:55:13Z</time>
      </trkpt>
      <trkpt lat="42.11824" lon="9.1074">
        <ele>1105</ele>
        <time>2015-06-24T04:55:25Z</time>
      </trkpt>
      <trkpt lat="42.11825" lon="9.10735">
        <ele>1105.6</ele>
        <time>2015-06-24T04:55:32Z</time>
      </trkpt>
      <trkpt lat="42.11828" lon="9.10732">
        <ele>1106.4</ele>
        <time>2015-06-24T04:55:42Z</time>
      </trkpt>
      <trkpt lat="42.11838" lon="9.10733">
        <ele>1107.2</ele>
        <time>2015-06-24T04:56:02Z</time>
      </trkpt>
      <trkpt lat="42.11846" lon="9.10731">
        <ele>1107.8</ele>
        <time>2015-06-24T04:56:13Z</time>
      </trkpt>
      <trkpt lat="42.11847" lon="9.10726">
        <ele>1108.4</ele>
        <time>2015-06-24T04:56:20Z</time>
      </trkpt>
      <trkpt lat="42.11849" lon="9.10725">
        <ele>1109.2</ele>
        <time>2015-06-24T04:56:26Z</time>
      </trkpt>
      <trkpt lat="42.11849" lon="9.1072">
        <ele>1110.2</ele>
        <time>2015-06-24T04:56:34Z</time>
      </trkpt>
      <trkpt lat="42.1185" lon="9.10718">
        <ele>1110.6</ele>
        <time>2015-06-24T04:56:39Z</time>
      </trkpt>
      <trkpt lat="42.11849" lon="9.10714">
        <ele>1111.8</ele>
        <time>2015-06-24T04:56:46Z</time>
      </trkpt>
      <trkpt lat="42.1185" lon="9.1071">
        <ele>1112.4</ele>
        <time>2015-06-24T04:56:52Z</time>
      </trkpt>
      <trkpt lat="42.11852" lon="9.10708">
        <ele>1113.4</ele>
        <time>2015-06-24T04:56:59Z</time>
      </trkpt>
      <trkpt lat="42.11852" lon="9.10705">
        <ele>1114.4</ele>
        <time>2015-06-24T04:57:05Z</time>
      </trkpt>
      <trkpt lat="42.11854" lon="9.10703">
        <ele>1115.4</ele>
        <time>2015-06-24T04:57:15Z</time>
      </trkpt>
      <trkpt lat="42.11856" lon="9.10702">
        <ele>1116</ele>
        <time>2015-06-24T04:57:21Z</time>
      </trkpt>
      <trkpt lat="42.11858" lon="9.10701">
        <ele>1117</ele>
        <time>2015-06-24T04:57:28Z</time>
      </trkpt>
      <trkpt lat="42.1186" lon="9.10701">
        <ele>1117.8</ele>
        <time>2015-06-24T04:57:34Z</time>
      </trkpt>
      <trkpt lat="42.11862" lon="9.10699">
        <ele>1118.8</ele>
        <time>2015-06-24T04:57:41Z</time>
      </trkpt>
      <trkpt lat="42.11865" lon="9.10697">
        <ele>1119.8</ele>
        <time>2015-06-24T04:57:49Z</time>
      </trkpt>
      <trkpt lat="42.11869" lon="9.10699">
        <ele>1120.2</ele>
        <time>2015-06-24T04:57:57Z</time>
      </trkpt>
      <trkpt lat="42.11874" lon="9.10703">
        <ele>1121</ele>
        <time>2015-06-24T04:58:04Z</time>
      </trkpt>
      <trkpt lat="42.11876" lon="9.10699">
        <ele>1121.8</ele>
        <time>2015-06-24T04:58:11Z</time>
      </trkpt>
      <trkpt lat="42.11876" lon="9.10694">
        <ele>1122.8</ele>
        <time>2015-06-24T04:58:19Z</time>
      </trkpt>
      <trkpt lat="42.11875" lon="9.10691">
        <ele>1123.4</ele>
        <time>2015-06-24T04:58:25Z</time>
      </trkpt>
      <trkpt lat="42.11876" lon="9.10687">
        <ele>1124.2</ele>
        <time>2015-06-24T04:58:32Z</time>
      </trkpt>
      <trkpt lat="42.11878" lon="9.10686">
        <ele>1125.2</ele>
        <time>2015-06-24T04:58:39Z</time>
      </trkpt>
      <trkpt lat="42.11882" lon="9.10678">
        <ele>1126.4</ele>
        <time>2015-06-24T04:58:52Z</time>
      </trkpt>
      <trkpt lat="42.11886" lon="9.10673">
        <ele>1127</ele>
        <time>2015-06-24T04:59:01Z</time>
      </trkpt>
      <trkpt lat="42.11891" lon="9.10669">
        <ele>1127.8</ele>
        <time>2015-06-24T04:59:10Z</time>
      </trkpt>
      <trkpt lat="42.11896" lon="9.10663">
        <ele>1128.2</ele>
        <time>2015-06-24T04:59:19Z</time>
      </trkpt>
      <trkpt lat="42.11897" lon="9.10662">
        <ele>1128.4</ele>
        <time>2015-06-24T04:59:21Z</time>
      </trkpt>
      <trkpt lat="42.11902" lon="9.10653">
        <ele>1129.2</ele>
        <time>2015-06-24T04:59:33Z</time>
      </trkpt>
      <trkpt lat="42.11914" lon="9.10617">
        <ele>1128.4</ele>
        <time>2015-06-24T05:00:14Z</time>
      </trkpt>
      <trkpt lat="42.11914" lon="9.10612">
        <ele>1129.4</ele>
        <time>2015-06-24T05:00:22Z</time>
      </trkpt>
      <trkpt lat="42.11912" lon="9.10609">
        <ele>1130</ele>
        <time>2015-06-24T05:00:27Z</time>
      </trkpt>
      <trkpt lat="42.1191" lon="9.10607">
        <ele>1130.8</ele>
        <time>2015-06-24T05:00:33Z</time>
      </trkpt>
      <trkpt lat="42.11909" lon="9.10606">
        <ele>1131.8</ele>
        <time>2015-06-24T05:00:39Z</time>
      </trkpt>
      <trkpt lat="42.11908" lon="9.10608">
        <ele>1133</ele>
        <time>2015-06-24T05:00:45Z</time>
      </trkpt>
      <trkpt lat="42.11907" lon="9.10609">
        <ele>1133.8</ele>
        <time>2015-06-24T05:00:52Z</time>
      </trkpt>
      <trkpt lat="42.11905" lon="9.10608">
        <ele>1134.8</ele>
        <time>2015-06-24T05:01:00Z</time>
      </trkpt>
      <trkpt lat="42.11905" lon="9.10606">
        <ele>1135.4</ele>
        <time>2015-06-24T05:01:06Z</time>
      </trkpt>
      <trkpt lat="42.11905" lon="9.10604">
        <ele>1136.4</ele>
        <time>2015-06-24T05:01:13Z</time>
      </trkpt>
      <trkpt lat="42.11906" lon="9.10601">
        <ele>1137.4</ele>
        <time>2015-06-24T05:01:21Z</time>
      </trkpt>
      <trkpt lat="42.11907" lon="9.106">
        <ele>1137.8</ele>
        <time>2015-06-24T05:01:26Z</time>
      </trkpt>
      <trkpt lat="42.11905" lon="9.10598">
        <ele>1139.4</ele>
        <time>2015-06-24T05:01:37Z</time>
      </trkpt>
      <trkpt lat="42.11904" lon="9.10598">
        <ele>1140</ele>
        <time>2015-06-24T05:01:45Z</time>
      </trkpt>
      <trkpt lat="42.11903" lon="9.10597">
        <ele>1140.6</ele>
        <time>2015-06-24T05:01:53Z</time>
      </trkpt>
      <trkpt lat="42.11901" lon="9.10595">
        <ele>1141.4</ele>
        <time>2015-06-24T05:02:00Z</time>
      </trkpt>
      <trkpt lat="42.11902" lon="9.10596">
        <ele>1142.6</ele>
        <time>2015-06-24T05:02:10Z</time>
      </trkpt>
      <trkpt lat="42.11902" lon="9.10596">
        <ele>1143</ele>
        <time>2015-06-24T05:02:16Z</time>
      </trkpt>
      <trkpt lat="42.11904" lon="9.10596">
        <ele>1144</ele>
        <time>2015-06-24T05:02:22Z</time>
      </trkpt>
      <trkpt lat="42.11905" lon="9.10594">
        <ele>1144.6</ele>
        <time>2015-06-24T05:02:26Z</time>
      </trkpt>
      <trkpt lat="42.11905" lon="9.10589">
        <ele>1146.4</ele>
        <time>2015-06-24T05:02:37Z</time>
      </trkpt>
      <trkpt lat="42.11904" lon="9.10585">
        <ele>1146.8</ele>
        <time>2015-06-24T05:02:44Z</time>
      </trkpt>
      <trkpt lat="42.11905" lon="9.1058">
        <ele>1147.6</ele>
        <time>2015-06-24T05:02:51Z</time>
      </trkpt>
      <trkpt lat="42.11904" lon="9.10574">
        <ele>1148.8</ele>
        <time>2015-06-24T05:02:59Z</time>
      </trkpt>
      <trkpt lat="42.11909" lon="9.10565">
        <ele>1149.8</ele>
        <time>2015-06-24T05:03:17Z</time>
      </trkpt>
      <trkpt lat="42.11914" lon="9.10554">
        <ele>1150.4</ele>
        <time>2015-06-24T05:03:31Z</time>
      </trkpt>
      <trkpt lat="42.11916" lon="9.10551">
        <ele>1150.4</ele>
        <time>2015-06-24T05:03:34Z</time>
      </trkpt>
      <trkpt lat="42.11918" lon="9.10546">
        <ele>1151</ele>
        <time>2015-06-24T05:03:41Z</time>
      </trkpt>
      <trkpt lat="42.1192" lon="9.10535">
        <ele>1151.8</ele>
        <time>2015-06-24T05:03:51Z</time>
      </trkpt>
      <trkpt lat="42.11923" lon="9.10528">
        <ele>1152.4</ele>
        <time>2015-06-24T05:04:00Z</time>
      </trkpt>
      <trkpt lat="42.11926" lon="9.10515">
        <ele>1153.6</ele>
        <time>2015-06-24T05:04:13Z</time>
      </trkpt>
      <trkpt lat="42.11926" lon="9.10513">
        <ele>1153.6</ele>
        <time>2015-06-24T05:04:15Z</time>
      </trkpt>
      <trkpt lat="42.11928" lon="9.10499">
        <ele>1153.6</ele>
        <time>2015-06-24T05:04:37Z</time>
      </trkpt>
      <trkpt lat="42.11926" lon="9.10495">
        <ele>1154</ele>
        <time>2015-06-24T05:04:42Z</time>
      </trkpt>
      <trkpt lat="42.11926" lon="9.10491">
        <ele>1154.4</ele>
        <time>2015-06-24T05:04:49Z</time>
      </trkpt>
      <trkpt lat="42.11927" lon="9.10487">
        <ele>1155.2</ele>
        <time>2015-06-24T05:04:55Z</time>
      </trkpt>
      <trkpt lat="42.11925" lon="9.10483">
        <ele>1155.6</ele>
        <time>2015-06-24T05:04:58Z</time>
      </trkpt>
      <trkpt lat="42.11924" lon="9.10476">
        <ele>1156.6</ele>
        <time>2015-06-24T05:05:06Z</time>
      </trkpt>
      <trkpt lat="42.11926" lon="9.10462">
        <ele>1156</ele>
        <time>2015-06-24T05:05:35Z</time>
      </trkpt>
      <trkpt lat="42.11927" lon="9.10457">
        <ele>1155</ele>
        <time>2015-06-24T05:05:43Z</time>
      </trkpt>
      <trkpt lat="42.11929" lon="9.10454">
        <ele>1153.8</ele>
        <time>2015-06-24T05:05:52Z</time>
      </trkpt>
      <trkpt lat="42.11939" lon="9.10444">
        <ele>1152</ele>
        <time>2015-06-24T05:06:13Z</time>
      </trkpt>
      <trkpt lat="42.11937" lon="9.10431">
        <ele>1150.8</ele>
        <time>2015-06-24T05:06:36Z</time>
      </trkpt>
      <trkpt lat="42.11936" lon="9.10424">
        <ele>1151.6</ele>
        <time>2015-06-24T05:06:55Z</time>
      </trkpt>
      <trkpt lat="42.11939" lon="9.1041">
        <ele>1151.2</ele>
        <time>2015-06-24T05:07:18Z</time>
      </trkpt>
      <trkpt lat="42.11939" lon="9.10391">
        <ele>1150.4</ele>
        <time>2015-06-24T05:07:44Z</time>
      </trkpt>
      <trkpt lat="42.11934" lon="9.10375">
        <ele>1150.6</ele>
        <time>2015-06-24T05:08:05Z</time>
      </trkpt>
      <trkpt lat="42.11931" lon="9.10369">
        <ele>1151.2</ele>
        <time>2015-06-24T05:08:13Z</time>
      </trkpt>
      <trkpt lat="42.11932" lon="9.1036">
        <ele>1151.6</ele>
        <time>2015-06-24T05:08:23Z</time>
      </trkpt>
      <trkpt lat="42.11932" lon="9.10337">
        <ele>1151.6</ele>
        <time>2015-06-24T05:08:51Z</time>
      </trkpt>
      <trkpt lat="42.11933" lon="9.10329">
        <ele>1151.8</ele>
        <time>2015-06-24T05:08:57Z</time>
      </trkpt>
      <trkpt lat="42.11933" lon="9.10327">
        <ele>1152</ele>
        <time>2015-06-24T05:09:00Z</time>
      </trkpt>
      <trkpt lat="42.11934" lon="9.10327">
        <ele>1152</ele>
        <time>2015-06-24T05:09:01Z</time>
      </trkpt>
      <trkpt lat="42.11933" lon="9.10317">
        <ele>1153</ele>
        <time>2015-06-24T05:09:12Z</time>
      </trkpt>
      <trkpt lat="42.1193" lon="9.10304">
        <ele>1153.4</ele>
        <time>2015-06-24T05:09:24Z</time>
      </trkpt>
      <trkpt lat="42.11928" lon="9.10283">
        <ele>1154.6</ele>
        <time>2015-06-24T05:09:43Z</time>
      </trkpt>
      <trkpt lat="42.11931" lon="9.10276">
        <ele>1154.6</ele>
        <time>2015-06-24T05:09:50Z</time>
      </trkpt>
      <trkpt lat="42.11938" lon="9.10252">
        <ele>1154.4</ele>
        <time>2015-06-24T05:10:18Z</time>
      </trkpt>
      <trkpt lat="42.11938" lon="9.10248">
        <ele>1154.4</ele>
        <time>2015-06-24T05:10:21Z</time>
      </trkpt>
      <trkpt lat="42.11936" lon="9.10242">
        <ele>1155</ele>
        <time>2015-06-24T05:10:27Z</time>
      </trkpt>
      <trkpt lat="42.11941" lon="9.10232">
        <ele>1155.4</ele>
        <time>2015-06-24T05:10:39Z</time>
      </trkpt>
      <trkpt lat="42.11945" lon="9.10218">
        <ele>1155.4</ele>
        <time>2015-06-24T05:10:51Z</time>
      </trkpt>
      <trkpt lat="42.11945" lon="9.10214">
        <ele>1155.4</ele>
        <time>2015-06-24T05:10:56Z</time>
      </trkpt>
      <trkpt lat="42.11945" lon="9.10209">
        <ele>1155.8</ele>
        <time>2015-06-24T05:11:01Z</time>
      </trkpt>
      <trkpt lat="42.11945" lon="9.10207">
        <ele>1156</ele>
        <time>2015-06-24T05:11:03Z</time>
      </trkpt>
      <trkpt lat="42.11946" lon="9.10202">
        <ele>1157</ele>
        <time>2015-06-24T05:11:10Z</time>
      </trkpt>
      <trkpt lat="42.11947" lon="9.10197">
        <ele>1158</ele>
        <time>2015-06-24T05:11:20Z</time>
      </trkpt>
      <trkpt lat="42.11946" lon="9.10188">
        <ele>1158.8</ele>
        <time>2015-06-24T05:11:27Z</time>
      </trkpt>
      <trkpt lat="42.11936" lon="9.10164">
        <ele>1159.4</ele>
        <time>2015-06-24T05:11:56Z</time>
      </trkpt>
      <trkpt lat="42.11928" lon="9.10154">
        <ele>1159.8</ele>
        <time>2015-06-24T05:12:11Z</time>
      </trkpt>
      <trkpt lat="42.11924" lon="9.10154">
        <ele>1160.6</ele>
        <time>2015-06-24T05:12:19Z</time>
      </trkpt>
      <trkpt lat="42.11923" lon="9.10154">
        <ele>1161.2</ele>
        <time>2015-06-24T05:12:24Z</time>
      </trkpt>
      <trkpt lat="42.11921" lon="9.10148">
        <ele>1161.8</ele>
        <time>2015-06-24T05:12:31Z</time>
      </trkpt>
      <trkpt lat="42.11913" lon="9.10144">
        <ele>1162.2</ele>
        <time>2015-06-24T05:12:44Z</time>
      </trkpt>
      <trkpt lat="42.11909" lon="9.10137">
        <ele>1163.2</ele>
        <time>2015-06-24T05:12:56Z</time>
      </trkpt>
      <trkpt lat="42.11904" lon="9.10128">
        <ele>1163.8</ele>
        <time>2015-06-24T05:13:11Z</time>
      </trkpt>
      <trkpt lat="42.119" lon="9.1012">
        <ele>1164.2</ele>
        <time>2015-06-24T05:13:19Z</time>
      </trkpt>
      <trkpt lat="42.11897" lon="9.10111">
        <ele>1164.6</ele>
        <time>2015-06-24T05:13:29Z</time>
      </trkpt>
      <trkpt lat="42.11896" lon="9.10107">
        <ele>1164.6</ele>
        <time>2015-06-24T05:13:31Z</time>
      </trkpt>
      <trkpt lat="42.11893" lon="9.10097">
        <ele>1165.4</ele>
        <time>2015-06-24T05:13:43Z</time>
      </trkpt>
      <trkpt lat="42.11887" lon="9.10094">
        <ele>1165.8</ele>
        <time>2015-06-24T05:13:50Z</time>
      </trkpt>
      <trkpt lat="42.11882" lon="9.10091">
        <ele>1166.4</ele>
        <time>2015-06-24T05:13:56Z</time>
      </trkpt>
      <trkpt lat="42.1188" lon="9.10088">
        <ele>1167.2</ele>
        <time>2015-06-24T05:14:02Z</time>
      </trkpt>
      <trkpt lat="42.11878" lon="9.1008">
        <ele>1168.2</ele>
        <time>2015-06-24T05:14:09Z</time>
      </trkpt>
      <trkpt lat="42.11875" lon="9.10066">
        <ele>1169.2</ele>
        <time>2015-06-24T05:14:26Z</time>
      </trkpt>
      <trkpt lat="42.11876" lon="9.10048">
        <ele>1169.8</ele>
        <time>2015-06-24T05:14:41Z</time>
      </trkpt>
      <trkpt lat="42.11876" lon="9.10045">
        <ele>1169.4</ele>
        <time>2015-06-24T05:14:44Z</time>
      </trkpt>
      <trkpt lat="42.11876" lon="9.10044">
        <ele>1169.2</ele>
        <time>2015-06-24T05:14:45Z</time>
      </trkpt>
      <trkpt lat="42.11878" lon="9.10042">
        <ele>1169.2</ele>
        <time>2015-06-24T05:14:47Z</time>
      </trkpt>
      <trkpt lat="42.11881" lon="9.10036">
        <ele>1168.2</ele>
        <time>2015-06-24T05:15:01Z</time>
      </trkpt>
      <trkpt lat="42.11882" lon="9.10034">
        <ele>1168.8</ele>
        <time>2015-06-24T05:15:06Z</time>
      </trkpt>
      <trkpt lat="42.11885" lon="9.10031">
        <ele>1170.4</ele>
        <time>2015-06-24T05:15:13Z</time>
      </trkpt>
      <trkpt lat="42.11888" lon="9.10028">
        <ele>1171</ele>
        <time>2015-06-24T05:15:18Z</time>
      </trkpt>
      <trkpt lat="42.1189" lon="9.10027">
        <ele>1172.2</ele>
        <time>2015-06-24T05:15:25Z</time>
      </trkpt>
      <trkpt lat="42.1189" lon="9.10026">
        <ele>1173.2</ele>
        <time>2015-06-24T05:15:33Z</time>
      </trkpt>
      <trkpt lat="42.11888" lon="9.10023">
        <ele>1174.4</ele>
        <time>2015-06-24T05:15:45Z</time>
      </trkpt>
      <trkpt lat="42.1189" lon="9.10021">
        <ele>1174.8</ele>
        <time>2015-06-24T05:15:51Z</time>
      </trkpt>
      <trkpt lat="42.1189" lon="9.1002">
        <ele>1176.2</ele>
        <time>2015-06-24T05:16:00Z</time>
      </trkpt>
      <trkpt lat="42.1189" lon="9.10019">
        <ele>1177.2</ele>
        <time>2015-06-24T05:16:10Z</time>
      </trkpt>
      <trkpt lat="42.11889" lon="9.10018">
        <ele>1177.8</ele>
        <time>2015-06-24T05:16:15Z</time>
      </trkpt>
      <trkpt lat="42.1189" lon="9.10016">
        <ele>1179</ele>
        <time>2015-06-24T05:16:25Z</time>
      </trkpt>
      <trkpt lat="42.1189" lon="9.10015">
        <ele>1179</ele>
        <time>2015-06-24T05:16:59Z</time>
      </trkpt>
      <trkpt lat="42.11892" lon="9.10012">
        <ele>1179</ele>
        <time>2015-06-24T05:17:03Z</time>
      </trkpt>
      <trkpt lat="42.11893" lon="9.10011">
        <ele>1179</ele>
        <time>2015-06-24T05:17:05Z</time>
      </trkpt>
      <trkpt lat="42.11895" lon="9.10005">
        <ele>1179.4</ele>
        <time>2015-06-24T05:17:13Z</time>
      </trkpt>
      <trkpt lat="42.11895" lon="9.10002">
        <ele>1180</ele>
        <time>2015-06-24T05:17:17Z</time>
      </trkpt>
      <trkpt lat="42.11895" lon="9.09997">
        <ele>1181.2</ele>
        <time>2015-06-24T05:17:25Z</time>
      </trkpt>
      <trkpt lat="42.11897" lon="9.09993">
        <ele>1182.2</ele>
        <time>2015-06-24T05:17:32Z</time>
      </trkpt>
      <trkpt lat="42.11898" lon="9.09986">
        <ele>1183.2</ele>
        <time>2015-06-24T05:17:41Z</time>
      </trkpt>
      <trkpt lat="42.11897" lon="9.09982">
        <ele>1183.8</ele>
        <time>2015-06-24T05:17:46Z</time>
      </trkpt>
      <trkpt lat="42.11898" lon="9.09979">
        <ele>1184.8</ele>
        <time>2015-06-24T05:17:51Z</time>
      </trkpt>
      <trkpt lat="42.11914" lon="9.09973">
        <ele>1185</ele>
        <time>2015-06-24T05:18:42Z</time>
      </trkpt>
      <trkpt lat="42.11915" lon="9.09964">
        <ele>1186.2</ele>
        <time>2015-06-24T05:18:54Z</time>
      </trkpt>
      <trkpt lat="42.11913" lon="9.09957">
        <ele>1186.8</ele>
        <time>2015-06-24T05:19:01Z</time>
      </trkpt>
      <trkpt lat="42.11916" lon="9.09948">
        <ele>1187.2</ele>
        <time>2015-06-24T05:19:14Z</time>
      </trkpt>
      <trkpt lat="42.11917" lon="9.09937">
        <ele>1187.8</ele>
        <time>2015-06-24T05:19:30Z</time>
      </trkpt>
      <trkpt lat="42.11919" lon="9.09929">
        <ele>1188.2</ele>
        <time>2015-06-24T05:19:41Z</time>
      </trkpt>
      <trkpt lat="42.11921" lon="9.09925">
        <ele>1189.4</ele>
        <time>2015-06-24T05:19:50Z</time>
      </trkpt>
      <trkpt lat="42.11921" lon="9.09919">
        <ele>1189.8</ele>
        <time>2015-06-24T05:19:58Z</time>
      </trkpt>
      <trkpt lat="42.11921" lon="9.09913">
        <ele>1191</ele>
        <time>2015-06-24T05:20:08Z</time>
      </trkpt>
      <trkpt lat="42.1192" lon="9.09907">
        <ele>1191.6</ele>
        <time>2015-06-24T05:20:17Z</time>
      </trkpt>
      <trkpt lat="42.11919" lon="9.09904">
        <ele>1192.4</ele>
        <time>2015-06-24T05:20:25Z</time>
      </trkpt>
      <trkpt lat="42.11921" lon="9.09898">
        <ele>1193.8</ele>
        <time>2015-06-24T05:20:38Z</time>
      </trkpt>
      <trkpt lat="42.11923" lon="9.09896">
        <ele>1194</ele>
        <time>2015-06-24T05:20:46Z</time>
      </trkpt>
      <trkpt lat="42.11925" lon="9.09893">
        <ele>1195.2</ele>
        <time>2015-06-24T05:20:55Z</time>
      </trkpt>
      <trkpt lat="42.11933" lon="9.09884">
        <ele>1196</ele>
        <time>2015-06-24T05:21:13Z</time>
      </trkpt>
      <trkpt lat="42.11938" lon="9.09878">
        <ele>1196.8</ele>
        <time>2015-06-24T05:21:22Z</time>
      </trkpt>
      <trkpt lat="42.11936" lon="9.09872">
        <ele>1198</ele>
        <time>2015-06-24T05:21:30Z</time>
      </trkpt>
      <trkpt lat="42.11936" lon="9.09869">
        <ele>1198.6</ele>
        <time>2015-06-24T05:21:37Z</time>
      </trkpt>
      <trkpt lat="42.11937" lon="9.09862">
        <ele>1199.8</ele>
        <time>2015-06-24T05:21:46Z</time>
      </trkpt>
      <trkpt lat="42.11939" lon="9.09859">
        <ele>1200.6</ele>
        <time>2015-06-24T05:21:53Z</time>
      </trkpt>
      <trkpt lat="42.11939" lon="9.09855">
        <ele>1201.6</ele>
        <time>2015-06-24T05:22:00Z</time>
      </trkpt>
      <trkpt lat="42.1194" lon="9.09853">
        <ele>1202.4</ele>
        <time>2015-06-24T05:22:06Z</time>
      </trkpt>
      <trkpt lat="42.11942" lon="9.09853">
        <ele>1203.8</ele>
        <time>2015-06-24T05:22:14Z</time>
      </trkpt>
      <trkpt lat="42.11943" lon="9.09849">
        <ele>1204.6</ele>
        <time>2015-06-24T05:22:24Z</time>
      </trkpt>
      <trkpt lat="42.11943" lon="9.09844">
        <ele>1205.4</ele>
        <time>2015-06-24T05:22:31Z</time>
      </trkpt>
      <trkpt lat="42.11943" lon="9.09841">
        <ele>1206.6</ele>
        <time>2015-06-24T05:22:41Z</time>
      </trkpt>
      <trkpt lat="42.11941" lon="9.09838">
        <ele>1207.4</ele>
        <time>2015-06-24T05:22:52Z</time>
      </trkpt>
      <trkpt lat="42.11941" lon="9.09836">
        <ele>1208.6</ele>
        <time>2015-06-24T05:23:01Z</time>
      </trkpt>
      <trkpt lat="42.11941" lon="9.09831">
        <ele>1209.4</ele>
        <time>2015-06-24T05:23:09Z</time>
      </trkpt>
      <trkpt lat="42.11943" lon="9.09827">
        <ele>1210.4</ele>
        <time>2015-06-24T05:23:25Z</time>
      </trkpt>
      <trkpt lat="42.11944" lon="9.09824">
        <ele>1211.2</ele>
        <time>2015-06-24T05:23:32Z</time>
      </trkpt>
      <trkpt lat="42.11945" lon="9.09822">
        <ele>1212.2</ele>
        <time>2015-06-24T05:23:38Z</time>
      </trkpt>
      <trkpt lat="42.11945" lon="9.09819">
        <ele>1213.4</ele>
        <time>2015-06-24T05:23:48Z</time>
      </trkpt>
      <trkpt lat="42.11946" lon="9.09817">
        <ele>1213.8</ele>
        <time>2015-06-24T05:23:53Z</time>
      </trkpt>
      <trkpt lat="42.11949" lon="9.09817">
        <ele>1215.8</ele>
        <time>2015-06-24T05:24:04Z</time>
      </trkpt>
      <trkpt lat="42.1195" lon="9.09812">
        <ele>1216.2</ele>
        <time>2015-06-24T05:24:12Z</time>
      </trkpt>
      <trkpt lat="42.11953" lon="9.0981">
        <ele>1217.8</ele>
        <time>2015-06-24T05:24:43Z</time>
      </trkpt>
      <trkpt lat="42.11954" lon="9.09807">
        <ele>1217.8</ele>
        <time>2015-06-24T05:24:49Z</time>
      </trkpt>
      <trkpt lat="42.11956" lon="9.09804">
        <ele>1218.8</ele>
        <time>2015-06-24T05:24:55Z</time>
      </trkpt>
      <trkpt lat="42.11957" lon="9.09801">
        <ele>1219.6</ele>
        <time>2015-06-24T05:25:00Z</time>
      </trkpt>
      <trkpt lat="42.11959" lon="9.09798">
        <ele>1221</ele>
        <time>2015-06-24T05:25:06Z</time>
      </trkpt>
      <trkpt lat="42.11961" lon="9.09796">
        <ele>1221.8</ele>
        <time>2015-06-24T05:25:11Z</time>
      </trkpt>
      <trkpt lat="42.11963" lon="9.09796">
        <ele>1222.8</ele>
        <time>2015-06-24T05:25:16Z</time>
      </trkpt>
      <trkpt lat="42.11966" lon="9.09794">
        <ele>1223.8</ele>
        <time>2015-06-24T05:25:21Z</time>
      </trkpt>
      <trkpt lat="42.1197" lon="9.09786">
        <ele>1225.8</ele>
        <time>2015-06-24T05:25:31Z</time>
      </trkpt>
      <trkpt lat="42.11971" lon="9.09782">
        <ele>1226.2</ele>
        <time>2015-06-24T05:25:37Z</time>
      </trkpt>
      <trkpt lat="42.11971" lon="9.09778">
        <ele>1227</ele>
        <time>2015-06-24T05:25:42Z</time>
      </trkpt>
      <trkpt lat="42.11974" lon="9.09772">
        <ele>1228.4</ele>
        <time>2015-06-24T05:25:51Z</time>
      </trkpt>
      <trkpt lat="42.11975" lon="9.09764">
        <ele>1229.6</ele>
        <time>2015-06-24T05:26:02Z</time>
      </trkpt>
      <trkpt lat="42.11977" lon="9.09756">
        <ele>1230.6</ele>
        <time>2015-06-24T05:26:12Z</time>
      </trkpt>
      <trkpt lat="42.11976" lon="9.09748">
        <ele>1231.8</ele>
        <time>2015-06-24T05:26:21Z</time>
      </trkpt>
      <trkpt lat="42.11973" lon="9.0974">
        <ele>1232.4</ele>
        <time>2015-06-24T05:26:30Z</time>
      </trkpt>
      <trkpt lat="42.11972" lon="9.09738">
        <ele>1232.4</ele>
        <time>2015-06-24T05:26:32Z</time>
      </trkpt>
      <trkpt lat="42.11972" lon="9.09737">
        <ele>1232.6</ele>
        <time>2015-06-24T05:26:33Z</time>
      </trkpt>
      <trkpt lat="42.12" lon="9.09707">
        <ele>1232.2</ele>
        <time>2015-06-24T05:28:26Z</time>
      </trkpt>
      <trkpt lat="42.11998" lon="9.09704">
        <ele>1232.2</ele>
        <time>2015-06-24T05:28:37Z</time>
      </trkpt>
      <trkpt lat="42.11998" lon="9.09702">
        <ele>1232.2</ele>
        <time>2015-06-24T05:28:42Z</time>
      </trkpt>
      <trkpt lat="42.11991" lon="9.09715">
        <ele>1232.4</ele>
        <time>2015-06-24T05:29:36Z</time>
      </trkpt>
      <trkpt lat="42.11992" lon="9.09714">
        <ele>1232</ele>
        <time>2015-06-24T05:30:54Z</time>
      </trkpt>
      <trkpt lat="42.11992" lon="9.09714">
        <ele>1232.2</ele>
        <time>2015-06-24T05:30:57Z</time>
      </trkpt>
      <trkpt lat="42.11992" lon="9.09714">
        <ele>1232.6</ele>
        <time>2015-06-24T05:31:40Z</time>
      </trkpt>
      <trkpt lat="42.1199" lon="9.09713">
        <ele>1232.2</ele>
        <time>2015-06-24T05:32:58Z</time>
      </trkpt>
      <trkpt lat="42.12003" lon="9.09688">
        <ele>1231.8</ele>
        <time>2015-06-24T05:34:08Z</time>
      </trkpt>
      <trkpt lat="42.12006" lon="9.09674">
        <ele>1233</ele>
        <time>2015-06-24T05:34:23Z</time>
      </trkpt>
      <trkpt lat="42.12008" lon="9.09664">
        <ele>1233.4</ele>
        <time>2015-06-24T05:34:32Z</time>
      </trkpt>
      <trkpt lat="42.12008" lon="9.09663">
        <ele>1233.4</ele>
        <time>2015-06-24T05:34:33Z</time>
      </trkpt>
      <trkpt lat="42.12008" lon="9.09648">
        <ele>1234.6</ele>
        <time>2015-06-24T05:34:45Z</time>
      </trkpt>
      <trkpt lat="42.1201" lon="9.09637">
        <ele>1235.2</ele>
        <time>2015-06-24T05:34:54Z</time>
      </trkpt>
      <trkpt lat="42.12011" lon="9.09633">
        <ele>1235.2</ele>
        <time>2015-06-24T05:34:58Z</time>
      </trkpt>
      <trkpt lat="42.12019" lon="9.09615">
        <ele>1236.2</ele>
        <time>2015-06-24T05:35:13Z</time>
      </trkpt>
      <trkpt lat="42.12022" lon="9.09593">
        <ele>1237</ele>
        <time>2015-06-24T05:35:34Z</time>
      </trkpt>
      <trkpt lat="42.12029" lon="9.09586">
        <ele>1237.8</ele>
        <time>2015-06-24T05:35:45Z</time>
      </trkpt>
      <trkpt lat="42.12032" lon="9.0958">
        <ele>1238.6</ele>
        <time>2015-06-24T05:35:54Z</time>
      </trkpt>
      <trkpt lat="42.12034" lon="9.09576">
        <ele>1239.2</ele>
        <time>2015-06-24T05:36:01Z</time>
      </trkpt>
      <trkpt lat="42.12035" lon="9.09572">
        <ele>1239.8</ele>
        <time>2015-06-24T05:36:06Z</time>
      </trkpt>
      <trkpt lat="42.12035" lon="9.0957">
        <ele>1240.6</ele>
        <time>2015-06-24T05:36:10Z</time>
      </trkpt>
      <trkpt lat="42.12037" lon="9.0957">
        <ele>1242.4</ele>
        <time>2015-06-24T05:36:18Z</time>
      </trkpt>
      <trkpt lat="42.12039" lon="9.09569">
        <ele>1243.2</ele>
        <time>2015-06-24T05:36:25Z</time>
      </trkpt>
      <trkpt lat="42.12046" lon="9.09571">
        <ele>1244.6</ele>
        <time>2015-06-24T05:36:40Z</time>
      </trkpt>
      <trkpt lat="42.12049" lon="9.0957">
        <ele>1245</ele>
        <time>2015-06-24T05:36:46Z</time>
      </trkpt>
      <trkpt lat="42.12051" lon="9.09567">
        <ele>1245.8</ele>
        <time>2015-06-24T05:36:51Z</time>
      </trkpt>
      <trkpt lat="42.12052" lon="9.09562">
        <ele>1246.8</ele>
        <time>2015-06-24T05:36:56Z</time>
      </trkpt>
      <trkpt lat="42.12054" lon="9.09557">
        <ele>1248.2</ele>
        <time>2015-06-24T05:37:03Z</time>
      </trkpt>
      <trkpt lat="42.12055" lon="9.09552">
        <ele>1249.2</ele>
        <time>2015-06-24T05:37:09Z</time>
      </trkpt>
      <trkpt lat="42.12058" lon="9.09547">
        <ele>1250.4</ele>
        <time>2015-06-24T05:37:17Z</time>
      </trkpt>
      <trkpt lat="42.1206" lon="9.09543">
        <ele>1251.2</ele>
        <time>2015-06-24T05:37:24Z</time>
      </trkpt>
      <trkpt lat="42.12065" lon="9.09544">
        <ele>1252.2</ele>
        <time>2015-06-24T05:37:31Z</time>
      </trkpt>
      <trkpt lat="42.12067" lon="9.09541">
        <ele>1253</ele>
        <time>2015-06-24T05:37:36Z</time>
      </trkpt>
      <trkpt lat="42.12069" lon="9.09535">
        <ele>1254.4</ele>
        <time>2015-06-24T05:37:44Z</time>
      </trkpt>
      <trkpt lat="42.12078" lon="9.0953">
        <ele>1255.4</ele>
        <time>2015-06-24T05:38:08Z</time>
      </trkpt>
      <trkpt lat="42.12083" lon="9.09523">
        <ele>1255.8</ele>
        <time>2015-06-24T05:38:27Z</time>
      </trkpt>
      <trkpt lat="42.12085" lon="9.09509">
        <ele>1256.8</ele>
        <time>2015-06-24T05:38:42Z</time>
      </trkpt>
      <trkpt lat="42.12091" lon="9.09499">
        <ele>1257.8</ele>
        <time>2015-06-24T05:38:56Z</time>
      </trkpt>
      <trkpt lat="42.12096" lon="9.09493">
        <ele>1258.6</ele>
        <time>2015-06-24T05:39:10Z</time>
      </trkpt>
      <trkpt lat="42.12097" lon="9.09485">
        <ele>1259</ele>
        <time>2015-06-24T05:39:22Z</time>
      </trkpt>
      <trkpt lat="42.12098" lon="9.0948">
        <ele>1259.8</ele>
        <time>2015-06-24T05:39:31Z</time>
      </trkpt>
      <trkpt lat="42.121" lon="9.09479">
        <ele>1261</ele>
        <time>2015-06-24T05:39:43Z</time>
      </trkpt>
      <trkpt lat="42.12106" lon="9.09475">
        <ele>1261.6</ele>
        <time>2015-06-24T05:39:58Z</time>
      </trkpt>
      <trkpt lat="42.12109" lon="9.09471">
        <ele>1262.2</ele>
        <time>2015-06-24T05:40:06Z</time>
      </trkpt>
      <trkpt lat="42.12107" lon="9.09469">
        <ele>1263.4</ele>
        <time>2015-06-24T05:40:16Z</time>
      </trkpt>
      <trkpt lat="42.12105" lon="9.0947">
        <ele>1264</ele>
        <time>2015-06-24T05:40:23Z</time>
      </trkpt>
      <trkpt lat="42.12104" lon="9.09464">
        <ele>1265.2</ele>
        <time>2015-06-24T05:40:34Z</time>
      </trkpt>
      <trkpt lat="42.12105" lon="9.09459">
        <ele>1266.4</ele>
        <time>2015-06-24T05:40:42Z</time>
      </trkpt>
      <trkpt lat="42.12108" lon="9.09454">
        <ele>1267.2</ele>
        <time>2015-06-24T05:40:51Z</time>
      </trkpt>
      <trkpt lat="42.12109" lon="9.09453">
        <ele>1268.2</ele>
        <time>2015-06-24T05:41:00Z</time>
      </trkpt>
      <trkpt lat="42.1211" lon="9.09451">
        <ele>1269.2</ele>
        <time>2015-06-24T05:41:07Z</time>
      </trkpt>
      <trkpt lat="42.12109" lon="9.09446">
        <ele>1270.4</ele>
        <time>2015-06-24T05:41:20Z</time>
      </trkpt>
      <trkpt lat="42.12108" lon="9.09444">
        <ele>1270.8</ele>
        <time>2015-06-24T05:41:26Z</time>
      </trkpt>
      <trkpt lat="42.1211" lon="9.09445">
        <ele>1271.8</ele>
        <time>2015-06-24T05:41:35Z</time>
      </trkpt>
      <trkpt lat="42.12111" lon="9.09441">
        <ele>1272.8</ele>
        <time>2015-06-24T05:41:41Z</time>
      </trkpt>
      <trkpt lat="42.12112" lon="9.09434">
        <ele>1273.8</ele>
        <time>2015-06-24T05:41:49Z</time>
      </trkpt>
      <trkpt lat="42.12112" lon="9.09431">
        <ele>1274.4</ele>
        <time>2015-06-24T05:41:54Z</time>
      </trkpt>
      <trkpt lat="42.12114" lon="9.09428">
        <ele>1275.6</ele>
        <time>2015-06-24T05:42:00Z</time>
      </trkpt>
      <trkpt lat="42.12113" lon="9.09414">
        <ele>1277.2</ele>
        <time>2015-06-24T05:42:14Z</time>
      </trkpt>
      <trkpt lat="42.12109" lon="9.09398">
        <ele>1278</ele>
        <time>2015-06-24T05:42:36Z</time>
      </trkpt>
      <trkpt lat="42.12106" lon="9.0939">
        <ele>1278.4</ele>
        <time>2015-06-24T05:42:46Z</time>
      </trkpt>
      <trkpt lat="42.12105" lon="9.09383">
        <ele>1279.6</ele>
        <time>2015-06-24T05:42:57Z</time>
      </trkpt>
      <trkpt lat="42.12105" lon="9.0938">
        <ele>1280</ele>
        <time>2015-06-24T05:43:02Z</time>
      </trkpt>
      <trkpt lat="42.12104" lon="9.09374">
        <ele>1281.6</ele>
        <time>2015-06-24T05:43:11Z</time>
      </trkpt>
      <trkpt lat="42.12105" lon="9.09366">
        <ele>1282.4</ele>
        <time>2015-06-24T05:43:19Z</time>
      </trkpt>
      <trkpt lat="42.12107" lon="9.09357">
        <ele>1283.4</ele>
        <time>2015-06-24T05:43:31Z</time>
      </trkpt>
      <trkpt lat="42.12107" lon="9.09352">
        <ele>1284.2</ele>
        <time>2015-06-24T05:43:37Z</time>
      </trkpt>
      <trkpt lat="42.12103" lon="9.09349">
        <ele>1285.2</ele>
        <time>2015-06-24T05:43:44Z</time>
      </trkpt>
      <trkpt lat="42.12103" lon="9.09325">
        <ele>1286.4</ele>
        <time>2015-06-24T05:44:12Z</time>
      </trkpt>
      <trkpt lat="42.12103" lon="9.09319">
        <ele>1286.8</ele>
        <time>2015-06-24T05:44:20Z</time>
      </trkpt>
      <trkpt lat="42.12103" lon="9.09313">
        <ele>1287.6</ele>
        <time>2015-06-24T05:44:28Z</time>
      </trkpt>
      <trkpt lat="42.12105" lon="9.09308">
        <ele>1288.8</ele>
        <time>2015-06-24T05:44:35Z</time>
      </trkpt>
      <trkpt lat="42.12107" lon="9.09301">
        <ele>1290</ele>
        <time>2015-06-24T05:44:44Z</time>
      </trkpt>
      <trkpt lat="42.1211" lon="9.09298">
        <ele>1290.8</ele>
        <time>2015-06-24T05:44:52Z</time>
      </trkpt>
      <trkpt lat="42.12113" lon="9.09293">
        <ele>1292.2</ele>
        <time>2015-06-24T05:45:01Z</time>
      </trkpt>
      <trkpt lat="42.12115" lon="9.09285">
        <ele>1293</ele>
        <time>2015-06-24T05:45:11Z</time>
      </trkpt>
      <trkpt lat="42.12114" lon="9.0928">
        <ele>1293.4</ele>
        <time>2015-06-24T05:45:17Z</time>
      </trkpt>
      <trkpt lat="42.12115" lon="9.09275">
        <ele>1294.6</ele>
        <time>2015-06-24T05:45:23Z</time>
      </trkpt>
      <trkpt lat="42.12116" lon="9.09271">
        <ele>1295.6</ele>
        <time>2015-06-24T05:45:30Z</time>
      </trkpt>
      <trkpt lat="42.12117" lon="9.09265">
        <ele>1296.6</ele>
        <time>2015-06-24T05:45:39Z</time>
      </trkpt>
      <trkpt lat="42.12121" lon="9.09259">
        <ele>1297.6</ele>
        <time>2015-06-24T05:45:46Z</time>
      </trkpt>
      <trkpt lat="42.12122" lon="9.09259">
        <ele>1297.8</ele>
        <time>2015-06-24T05:45:48Z</time>
      </trkpt>
      <trkpt lat="42.12122" lon="9.09255">
        <ele>1298.4</ele>
        <time>2015-06-24T05:45:59Z</time>
      </trkpt>
      <trkpt lat="42.12122" lon="9.09254">
        <ele>1299.4</ele>
        <time>2015-06-24T05:46:06Z</time>
      </trkpt>
      <trkpt lat="42.12123" lon="9.09252">
        <ele>1300.4</ele>
        <time>2015-06-24T05:46:13Z</time>
      </trkpt>
      <trkpt lat="42.12123" lon="9.09249">
        <ele>1301.2</ele>
        <time>2015-06-24T05:46:20Z</time>
      </trkpt>
      <trkpt lat="42.12124" lon="9.09242">
        <ele>1302.6</ele>
        <time>2015-06-24T05:46:31Z</time>
      </trkpt>
      <trkpt lat="42.12124" lon="9.09231">
        <ele>1303.6</ele>
        <time>2015-06-24T05:46:47Z</time>
      </trkpt>
      <trkpt lat="42.12124" lon="9.09223">
        <ele>1304.4</ele>
        <time>2015-06-24T05:46:56Z</time>
      </trkpt>
      <trkpt lat="42.12125" lon="9.09219">
        <ele>1305.2</ele>
        <time>2015-06-24T05:47:02Z</time>
      </trkpt>
      <trkpt lat="42.12127" lon="9.09213">
        <ele>1306.4</ele>
        <time>2015-06-24T05:47:09Z</time>
      </trkpt>
      <trkpt lat="42.12124" lon="9.09207">
        <ele>1307.4</ele>
        <time>2015-06-24T05:47:16Z</time>
      </trkpt>
      <trkpt lat="42.12122" lon="9.09206">
        <ele>1307.8</ele>
        <time>2015-06-24T05:47:20Z</time>
      </trkpt>
      <trkpt lat="42.12124" lon="9.09202">
        <ele>1308.2</ele>
        <time>2015-06-24T05:47:26Z</time>
      </trkpt>
      <trkpt lat="42.12139" lon="9.09172">
        <ele>1309.4</ele>
        <time>2015-06-24T05:48:03Z</time>
      </trkpt>
      <trkpt lat="42.1216" lon="9.0916">
        <ele>1309.8</ele>
        <time>2015-06-24T05:48:53Z</time>
      </trkpt>
      <trkpt lat="42.12166" lon="9.09161">
        <ele>1309.6</ele>
        <time>2015-06-24T05:48:59Z</time>
      </trkpt>
      <trkpt lat="42.12169" lon="9.09163">
        <ele>1309.4</ele>
        <time>2015-06-24T05:49:13Z</time>
      </trkpt>
      <trkpt lat="42.12177" lon="9.09162">
        <ele>1309.8</ele>
        <time>2015-06-24T05:49:49Z</time>
      </trkpt>
      <trkpt lat="42.12185" lon="9.09162">
        <ele>1311.2</ele>
        <time>2015-06-24T05:50:02Z</time>
      </trkpt>
      <trkpt lat="42.12193" lon="9.09158">
        <ele>1311.8</ele>
        <time>2015-06-24T05:50:16Z</time>
      </trkpt>
      <trkpt lat="42.12197" lon="9.09156">
        <ele>1312.6</ele>
        <time>2015-06-24T05:50:24Z</time>
      </trkpt>
      <trkpt lat="42.12206" lon="9.09146">
        <ele>1314</ele>
        <time>2015-06-24T05:50:42Z</time>
      </trkpt>
      <trkpt lat="42.12213" lon="9.09137">
        <ele>1315.2</ele>
        <time>2015-06-24T05:50:57Z</time>
      </trkpt>
      <trkpt lat="42.12219" lon="9.09127">
        <ele>1315.6</ele>
        <time>2015-06-24T05:51:14Z</time>
      </trkpt>
      <trkpt lat="42.12224" lon="9.09124">
        <ele>1315.6</ele>
        <time>2015-06-24T05:51:19Z</time>
      </trkpt>
      <trkpt lat="42.12228" lon="9.09109">
        <ele>1315.6</ele>
        <time>2015-06-24T05:51:40Z</time>
      </trkpt>
      <trkpt lat="42.1223" lon="9.09102">
        <ele>1316.6</ele>
        <time>2015-06-24T05:51:55Z</time>
      </trkpt>
      <trkpt lat="42.1223" lon="9.09094">
        <ele>1317.6</ele>
        <time>2015-06-24T05:52:22Z</time>
      </trkpt>
      <trkpt lat="42.12232" lon="9.09091">
        <ele>1318</ele>
        <time>2015-06-24T05:52:28Z</time>
      </trkpt>
      <trkpt lat="42.12238" lon="9.09087">
        <ele>1319.6</ele>
        <time>2015-06-24T05:52:38Z</time>
      </trkpt>
      <trkpt lat="42.12242" lon="9.09085">
        <ele>1320.4</ele>
        <time>2015-06-24T05:52:46Z</time>
      </trkpt>
      <trkpt lat="42.12243" lon="9.09081">
        <ele>1321</ele>
        <time>2015-06-24T05:52:51Z</time>
      </trkpt>
      <trkpt lat="42.12244" lon="9.09078">
        <ele>1321.2</ele>
        <time>2015-06-24T05:52:54Z</time>
      </trkpt>
      <trkpt lat="42.12246" lon="9.09077">
        <ele>1321.8</ele>
        <time>2015-06-24T05:53:02Z</time>
      </trkpt>
      <trkpt lat="42.1225" lon="9.09075">
        <ele>1322</ele>
        <time>2015-06-24T05:53:09Z</time>
      </trkpt>
      <trkpt lat="42.12255" lon="9.09071">
        <ele>1323.2</ele>
        <time>2015-06-24T05:53:19Z</time>
      </trkpt>
      <trkpt lat="42.1226" lon="9.09064">
        <ele>1324</ele>
        <time>2015-06-24T05:53:30Z</time>
      </trkpt>
      <trkpt lat="42.12264" lon="9.0906">
        <ele>1325.2</ele>
        <time>2015-06-24T05:53:42Z</time>
      </trkpt>
      <trkpt lat="42.12268" lon="9.09056">
        <ele>1325.8</ele>
        <time>2015-06-24T05:53:50Z</time>
      </trkpt>
      <trkpt lat="42.12271" lon="9.09053">
        <ele>1326.8</ele>
        <time>2015-06-24T05:53:59Z</time>
      </trkpt>
      <trkpt lat="42.12272" lon="9.09051">
        <ele>1327.8</ele>
        <time>2015-06-24T05:54:06Z</time>
      </trkpt>
      <trkpt lat="42.12273" lon="9.09047">
        <ele>1328.8</ele>
        <time>2015-06-24T05:54:15Z</time>
      </trkpt>
      <trkpt lat="42.12277" lon="9.09039">
        <ele>1330</ele>
        <time>2015-06-24T05:54:23Z</time>
      </trkpt>
      <trkpt lat="42.12284" lon="9.09043">
        <ele>1331.2</ele>
        <time>2015-06-24T05:54:40Z</time>
      </trkpt>
      <trkpt lat="42.12289" lon="9.09044">
        <ele>1332</ele>
        <time>2015-06-24T05:54:51Z</time>
      </trkpt>
      <trkpt lat="42.12297" lon="9.09044">
        <ele>1333</ele>
        <time>2015-06-24T05:55:01Z</time>
      </trkpt>
      <trkpt lat="42.12302" lon="9.0904">
        <ele>1333.8</ele>
        <time>2015-06-24T05:55:10Z</time>
      </trkpt>
      <trkpt lat="42.12307" lon="9.09038">
        <ele>1334.6</ele>
        <time>2015-06-24T05:55:17Z</time>
      </trkpt>
      <trkpt lat="42.12312" lon="9.09035">
        <ele>1335.8</ele>
        <time>2015-06-24T05:55:27Z</time>
      </trkpt>
      <trkpt lat="42.12314" lon="9.09031">
        <ele>1336.6</ele>
        <time>2015-06-24T05:55:34Z</time>
      </trkpt>
      <trkpt lat="42.12319" lon="9.09032">
        <ele>1337.8</ele>
        <time>2015-06-24T05:55:43Z</time>
      </trkpt>
      <trkpt lat="42.12328" lon="9.09027">
        <ele>1338.8</ele>
        <time>2015-06-24T05:55:58Z</time>
      </trkpt>
      <trkpt lat="42.12334" lon="9.09025">
        <ele>1339.4</ele>
        <time>2015-06-24T05:56:08Z</time>
      </trkpt>
      <trkpt lat="42.12339" lon="9.09023">
        <ele>1340.4</ele>
        <time>2015-06-24T05:56:18Z</time>
      </trkpt>
      <trkpt lat="42.12344" lon="9.09024">
        <ele>1341.4</ele>
        <time>2015-06-24T05:56:26Z</time>
      </trkpt>
      <trkpt lat="42.12349" lon="9.09016">
        <ele>1342.6</ele>
        <time>2015-06-24T05:56:37Z</time>
      </trkpt>
      <trkpt lat="42.12355" lon="9.0901">
        <ele>1343.2</ele>
        <time>2015-06-24T05:56:50Z</time>
      </trkpt>
      <trkpt lat="42.12358" lon="9.09009">
        <ele>1344</ele>
        <time>2015-06-24T05:56:58Z</time>
      </trkpt>
      <trkpt lat="42.12361" lon="9.09">
        <ele>1345</ele>
        <time>2015-06-24T05:57:08Z</time>
      </trkpt>
      <trkpt lat="42.12365" lon="9.08996">
        <ele>1346</ele>
        <time>2015-06-24T05:57:16Z</time>
      </trkpt>
      <trkpt lat="42.12368" lon="9.0899">
        <ele>1347.4</ele>
        <time>2015-06-24T05:57:26Z</time>
      </trkpt>
      <trkpt lat="42.12374" lon="9.08989">
        <ele>1348</ele>
        <time>2015-06-24T05:57:36Z</time>
      </trkpt>
      <trkpt lat="42.12381" lon="9.08993">
        <ele>1348.8</ele>
        <time>2015-06-24T05:57:47Z</time>
      </trkpt>
      <trkpt lat="42.12385" lon="9.08996">
        <ele>1349.8</ele>
        <time>2015-06-24T05:57:56Z</time>
      </trkpt>
      <trkpt lat="42.12393" lon="9.08992">
        <ele>1351.2</ele>
        <time>2015-06-24T05:58:09Z</time>
      </trkpt>
      <trkpt lat="42.12397" lon="9.08985">
        <ele>1351.8</ele>
        <time>2015-06-24T05:58:20Z</time>
      </trkpt>
      <trkpt lat="42.12401" lon="9.08983">
        <ele>1352.6</ele>
        <time>2015-06-24T05:58:28Z</time>
      </trkpt>
      <trkpt lat="42.12405" lon="9.08983">
        <ele>1353.4</ele>
        <time>2015-06-24T05:58:35Z</time>
      </trkpt>
      <trkpt lat="42.12409" lon="9.08981">
        <ele>1354.4</ele>
        <time>2015-06-24T05:58:42Z</time>
      </trkpt>
      <trkpt lat="42.12411" lon="9.08975">
        <ele>1355.6</ele>
        <time>2015-06-24T05:58:51Z</time>
      </trkpt>
      <trkpt lat="42.12417" lon="9.08973">
        <ele>1356.8</ele>
        <time>2015-06-24T05:59:05Z</time>
      </trkpt>
      <trkpt lat="42.12421" lon="9.0897">
        <ele>1357.4</ele>
        <time>2015-06-24T05:59:15Z</time>
      </trkpt>
      <trkpt lat="42.12424" lon="9.08968">
        <ele>1358.4</ele>
        <time>2015-06-24T05:59:23Z</time>
      </trkpt>
      <trkpt lat="42.12428" lon="9.08966">
        <ele>1359.4</ele>
        <time>2015-06-24T05:59:33Z</time>
      </trkpt>
      <trkpt lat="42.12432" lon="9.08968">
        <ele>1360.2</ele>
        <time>2015-06-24T05:59:40Z</time>
      </trkpt>
      <trkpt lat="42.12435" lon="9.08962">
        <ele>1361.2</ele>
        <time>2015-06-24T05:59:51Z</time>
      </trkpt>
      <trkpt lat="42.12439" lon="9.0896">
        <ele>1362.2</ele>
        <time>2015-06-24T05:59:59Z</time>
      </trkpt>
      <trkpt lat="42.12443" lon="9.08955">
        <ele>1363</ele>
        <time>2015-06-24T06:00:08Z</time>
      </trkpt>
      <trkpt lat="42.12447" lon="9.08952">
        <ele>1364.4</ele>
        <time>2015-06-24T06:00:19Z</time>
      </trkpt>
      <trkpt lat="42.12451" lon="9.08952">
        <ele>1364.8</ele>
        <time>2015-06-24T06:00:26Z</time>
      </trkpt>
      <trkpt lat="42.12455" lon="9.08951">
        <ele>1365.4</ele>
        <time>2015-06-24T06:00:32Z</time>
      </trkpt>
      <trkpt lat="42.12458" lon="9.08949">
        <ele>1365.8</ele>
        <time>2015-06-24T06:00:36Z</time>
      </trkpt>
      <trkpt lat="42.1247" lon="9.08949">
        <ele>1366.6</ele>
        <time>2015-06-24T06:00:55Z</time>
      </trkpt>
      <trkpt lat="42.12475" lon="9.08947">
        <ele>1367.4</ele>
        <time>2015-06-24T06:01:03Z</time>
      </trkpt>
      <trkpt lat="42.12478" lon="9.08944">
        <ele>1368.2</ele>
        <time>2015-06-24T06:01:10Z</time>
      </trkpt>
      <trkpt lat="42.12487" lon="9.08936">
        <ele>1369.4</ele>
        <time>2015-06-24T06:01:27Z</time>
      </trkpt>
      <trkpt lat="42.12496" lon="9.08932">
        <ele>1370.2</ele>
        <time>2015-06-24T06:01:45Z</time>
      </trkpt>
      <trkpt lat="42.12501" lon="9.08936">
        <ele>1371.2</ele>
        <time>2015-06-24T06:01:55Z</time>
      </trkpt>
      <trkpt lat="42.12504" lon="9.08937">
        <ele>1371.2</ele>
        <time>2015-06-24T06:01:58Z</time>
      </trkpt>
      <trkpt lat="42.12508" lon="9.08938">
        <ele>1371.8</ele>
        <time>2015-06-24T06:02:04Z</time>
      </trkpt>
      <trkpt lat="42.12511" lon="9.08936">
        <ele>1372.6</ele>
        <time>2015-06-24T06:02:11Z</time>
      </trkpt>
      <trkpt lat="42.12512" lon="9.0893">
        <ele>1374</ele>
        <time>2015-06-24T06:02:18Z</time>
      </trkpt>
      <trkpt lat="42.12513" lon="9.08912">
        <ele>1375.2</ele>
        <time>2015-06-24T06:02:38Z</time>
      </trkpt>
      <trkpt lat="42.12513" lon="9.08907">
        <ele>1375.6</ele>
        <time>2015-06-24T06:02:46Z</time>
      </trkpt>
      <trkpt lat="42.12516" lon="9.08905">
        <ele>1376.8</ele>
        <time>2015-06-24T06:02:56Z</time>
      </trkpt>
      <trkpt lat="42.12519" lon="9.08906">
        <ele>1377.2</ele>
        <time>2015-06-24T06:03:03Z</time>
      </trkpt>
      <trkpt lat="42.12522" lon="9.08902">
        <ele>1378.4</ele>
        <time>2015-06-24T06:03:12Z</time>
      </trkpt>
      <trkpt lat="42.12524" lon="9.08901">
        <ele>1379.4</ele>
        <time>2015-06-24T06:03:20Z</time>
      </trkpt>
      <trkpt lat="42.12526" lon="9.089">
        <ele>1380</ele>
        <time>2015-06-24T06:03:27Z</time>
      </trkpt>
      <trkpt lat="42.12528" lon="9.08896">
        <ele>1381.2</ele>
        <time>2015-06-24T06:03:36Z</time>
      </trkpt>
      <trkpt lat="42.12528" lon="9.08893">
        <ele>1382</ele>
        <time>2015-06-24T06:03:43Z</time>
      </trkpt>
      <trkpt lat="42.12528" lon="9.0889">
        <ele>1383</ele>
        <time>2015-06-24T06:03:50Z</time>
      </trkpt>
      <trkpt lat="42.12527" lon="9.08887">
        <ele>1383.8</ele>
        <time>2015-06-24T06:03:56Z</time>
      </trkpt>
      <trkpt lat="42.12524" lon="9.08878">
        <ele>1385</ele>
        <time>2015-06-24T06:04:18Z</time>
      </trkpt>
      <trkpt lat="42.12524" lon="9.08876">
        <ele>1385.4</ele>
        <time>2015-06-24T06:04:24Z</time>
      </trkpt>
      <trkpt lat="42.12527" lon="9.08874">
        <ele>1386.8</ele>
        <time>2015-06-24T06:04:39Z</time>
      </trkpt>
      <trkpt lat="42.1253" lon="9.08872">
        <ele>1387.4</ele>
        <time>2015-06-24T06:04:45Z</time>
      </trkpt>
      <trkpt lat="42.12533" lon="9.08869">
        <ele>1388.4</ele>
        <time>2015-06-24T06:04:52Z</time>
      </trkpt>
      <trkpt lat="42.12533" lon="9.08852">
        <ele>1390.2</ele>
        <time>2015-06-24T06:05:13Z</time>
      </trkpt>
      <trkpt lat="42.12536" lon="9.08852">
        <ele>1390.2</ele>
        <time>2015-06-24T06:05:22Z</time>
      </trkpt>
      <trkpt lat="42.12542" lon="9.08848">
        <ele>1391.6</ele>
        <time>2015-06-24T06:05:35Z</time>
      </trkpt>
      <trkpt lat="42.12545" lon="9.0885">
        <ele>1392.6</ele>
        <time>2015-06-24T06:05:52Z</time>
      </trkpt>
      <trkpt lat="42.12546" lon="9.08851">
        <ele>1393.2</ele>
        <time>2015-06-24T06:06:00Z</time>
      </trkpt>
      <trkpt lat="42.1255" lon="9.08847">
        <ele>1394</ele>
        <time>2015-06-24T06:06:08Z</time>
      </trkpt>
      <trkpt lat="42.12552" lon="9.0884">
        <ele>1395</ele>
        <time>2015-06-24T06:06:17Z</time>
      </trkpt>
      <trkpt lat="42.12556" lon="9.08832">
        <ele>1396</ele>
        <time>2015-06-24T06:06:29Z</time>
      </trkpt>
      <trkpt lat="42.1256" lon="9.08829">
        <ele>1396.8</ele>
        <time>2015-06-24T06:06:36Z</time>
      </trkpt>
      <trkpt lat="42.12563" lon="9.08824">
        <ele>1398.2</ele>
        <time>2015-06-24T06:06:46Z</time>
      </trkpt>
      <trkpt lat="42.12567" lon="9.08817">
        <ele>1399.2</ele>
        <time>2015-06-24T06:06:58Z</time>
      </trkpt>
      <trkpt lat="42.12581" lon="9.08803">
        <ele>1400</ele>
        <time>2015-06-24T06:07:22Z</time>
      </trkpt>
      <trkpt lat="42.12587" lon="9.08801">
        <ele>1400.8</ele>
        <time>2015-06-24T06:07:32Z</time>
      </trkpt>
      <trkpt lat="42.12589" lon="9.08803">
        <ele>1401</ele>
        <time>2015-06-24T06:07:36Z</time>
      </trkpt>
      <trkpt lat="42.12593" lon="9.08803">
        <ele>1401.8</ele>
        <time>2015-06-24T06:07:43Z</time>
      </trkpt>
      <trkpt lat="42.12608" lon="9.08782">
        <ele>1402.6</ele>
        <time>2015-06-24T06:08:15Z</time>
      </trkpt>
      <trkpt lat="42.12609" lon="9.08778">
        <ele>1402.8</ele>
        <time>2015-06-24T06:08:18Z</time>
      </trkpt>
      <trkpt lat="42.12614" lon="9.08768">
        <ele>1403</ele>
        <time>2015-06-24T06:08:32Z</time>
      </trkpt>
      <trkpt lat="42.1262" lon="9.08755">
        <ele>1403.4</ele>
        <time>2015-06-24T06:08:46Z</time>
      </trkpt>
      <trkpt lat="42.12633" lon="9.0874">
        <ele>1404.4</ele>
        <time>2015-06-24T06:09:08Z</time>
      </trkpt>
      <trkpt lat="42.12636" lon="9.08743">
        <ele>1404</ele>
        <time>2015-06-24T06:09:13Z</time>
      </trkpt>
      <trkpt lat="42.12638" lon="9.08746">
        <ele>1404.6</ele>
        <time>2015-06-24T06:09:18Z</time>
      </trkpt>
      <trkpt lat="42.12643" lon="9.08747">
        <ele>1406.2</ele>
        <time>2015-06-24T06:09:27Z</time>
      </trkpt>
      <trkpt lat="42.12646" lon="9.0875">
        <ele>1406.8</ele>
        <time>2015-06-24T06:09:35Z</time>
      </trkpt>
      <trkpt lat="42.12653" lon="9.08753">
        <ele>1408</ele>
        <time>2015-06-24T06:09:46Z</time>
      </trkpt>
      <trkpt lat="42.12655" lon="9.08753">
        <ele>1408.4</ele>
        <time>2015-06-24T06:09:51Z</time>
      </trkpt>
      <trkpt lat="42.12661" lon="9.08751">
        <ele>1409</ele>
        <time>2015-06-24T06:09:59Z</time>
      </trkpt>
      <trkpt lat="42.12667" lon="9.0875">
        <ele>1410</ele>
        <time>2015-06-24T06:10:13Z</time>
      </trkpt>
      <trkpt lat="42.1267" lon="9.08751">
        <ele>1410</ele>
        <time>2015-06-24T06:10:18Z</time>
      </trkpt>
      <trkpt lat="42.12675" lon="9.08748">
        <ele>1411.8</ele>
        <time>2015-06-24T06:10:27Z</time>
      </trkpt>
      <trkpt lat="42.12678" lon="9.08749">
        <ele>1412.6</ele>
        <time>2015-06-24T06:10:36Z</time>
      </trkpt>
      <trkpt lat="42.12681" lon="9.0875">
        <ele>1413.4</ele>
        <time>2015-06-24T06:10:44Z</time>
      </trkpt>
      <trkpt lat="42.12688" lon="9.0875">
        <ele>1414.6</ele>
        <time>2015-06-24T06:10:54Z</time>
      </trkpt>
      <trkpt lat="42.12693" lon="9.08748">
        <ele>1415.8</ele>
        <time>2015-06-24T06:11:02Z</time>
      </trkpt>
      <trkpt lat="42.12697" lon="9.0875">
        <ele>1416.8</ele>
        <time>2015-06-24T06:11:15Z</time>
      </trkpt>
      <trkpt lat="42.127" lon="9.0875">
        <ele>1417.2</ele>
        <time>2015-06-24T06:11:22Z</time>
      </trkpt>
      <trkpt lat="42.12704" lon="9.08753">
        <ele>1418.4</ele>
        <time>2015-06-24T06:11:31Z</time>
      </trkpt>
      <trkpt lat="42.12704" lon="9.08756">
        <ele>1419.2</ele>
        <time>2015-06-24T06:11:37Z</time>
      </trkpt>
      <trkpt lat="42.12705" lon="9.08756">
        <ele>1420.6</ele>
        <time>2015-06-24T06:11:44Z</time>
      </trkpt>
      <trkpt lat="42.12709" lon="9.08757">
        <ele>1421.6</ele>
        <time>2015-06-24T06:11:52Z</time>
      </trkpt>
      <trkpt lat="42.12712" lon="9.08758">
        <ele>1422.2</ele>
        <time>2015-06-24T06:11:59Z</time>
      </trkpt>
      <trkpt lat="42.12721" lon="9.08758">
        <ele>1423.6</ele>
        <time>2015-06-24T06:12:11Z</time>
      </trkpt>
      <trkpt lat="42.12724" lon="9.08753">
        <ele>1424.6</ele>
        <time>2015-06-24T06:12:20Z</time>
      </trkpt>
      <trkpt lat="42.12731" lon="9.08754">
        <ele>1425.6</ele>
        <time>2015-06-24T06:12:33Z</time>
      </trkpt>
      <trkpt lat="42.12736" lon="9.08759">
        <ele>1426.6</ele>
        <time>2015-06-24T06:12:42Z</time>
      </trkpt>
      <trkpt lat="42.12738" lon="9.08761">
        <ele>1427.2</ele>
        <time>2015-06-24T06:12:50Z</time>
      </trkpt>
      <trkpt lat="42.1274" lon="9.08762">
        <ele>1428</ele>
        <time>2015-06-24T06:12:56Z</time>
      </trkpt>
      <trkpt lat="42.12742" lon="9.08766">
        <ele>1429.4</ele>
        <time>2015-06-24T06:13:05Z</time>
      </trkpt>
      <trkpt lat="42.12741" lon="9.0877">
        <ele>1430.4</ele>
        <time>2015-06-24T06:13:13Z</time>
      </trkpt>
      <trkpt lat="42.12743" lon="9.08771">
        <ele>1431.2</ele>
        <time>2015-06-24T06:13:20Z</time>
      </trkpt>
      <trkpt lat="42.12742" lon="9.08773">
        <ele>1432.6</ele>
        <time>2015-06-24T06:13:31Z</time>
      </trkpt>
      <trkpt lat="42.12745" lon="9.08775">
        <ele>1433.4</ele>
        <time>2015-06-24T06:13:40Z</time>
      </trkpt>
      <trkpt lat="42.12748" lon="9.08775">
        <ele>1434.8</ele>
        <time>2015-06-24T06:13:51Z</time>
      </trkpt>
      <trkpt lat="42.12761" lon="9.08769">
        <ele>1436</ele>
        <time>2015-06-24T06:14:18Z</time>
      </trkpt>
      <trkpt lat="42.12765" lon="9.0877">
        <ele>1436.4</ele>
        <time>2015-06-24T06:14:26Z</time>
      </trkpt>
      <trkpt lat="42.12773" lon="9.0877">
        <ele>1437.6</ele>
        <time>2015-06-24T06:14:40Z</time>
      </trkpt>
      <trkpt lat="42.12774" lon="9.08772">
        <ele>1437.8</ele>
        <time>2015-06-24T06:14:43Z</time>
      </trkpt>
      <trkpt lat="42.12776" lon="9.08771">
        <ele>1437.8</ele>
        <time>2015-06-24T06:14:46Z</time>
      </trkpt>
      <trkpt lat="42.12787" lon="9.08772">
        <ele>1438.4</ele>
        <time>2015-06-24T06:15:19Z</time>
      </trkpt>
      <trkpt lat="42.12793" lon="9.08763">
        <ele>1439.4</ele>
        <time>2015-06-24T06:15:36Z</time>
      </trkpt>
      <trkpt lat="42.12801" lon="9.08765">
        <ele>1440.2</ele>
        <time>2015-06-24T06:15:51Z</time>
      </trkpt>
      <trkpt lat="42.12802" lon="9.08767">
        <ele>1440.4</ele>
        <time>2015-06-24T06:15:55Z</time>
      </trkpt>
      <trkpt lat="42.12806" lon="9.0877">
        <ele>1441</ele>
        <time>2015-06-24T06:16:02Z</time>
      </trkpt>
      <trkpt lat="42.12811" lon="9.08773">
        <ele>1442.2</ele>
        <time>2015-06-24T06:16:12Z</time>
      </trkpt>
      <trkpt lat="42.12813" lon="9.08774">
        <ele>1443.4</ele>
        <time>2015-06-24T06:16:22Z</time>
      </trkpt>
      <trkpt lat="42.12817" lon="9.08776">
        <ele>1444.4</ele>
        <time>2015-06-24T06:16:37Z</time>
      </trkpt>
      <trkpt lat="42.12821" lon="9.08782">
        <ele>1445.2</ele>
        <time>2015-06-24T06:16:48Z</time>
      </trkpt>
      <trkpt lat="42.12829" lon="9.08783">
        <ele>1446.4</ele>
        <time>2015-06-24T06:17:01Z</time>
      </trkpt>
      <trkpt lat="42.12832" lon="9.08785">
        <ele>1447.2</ele>
        <time>2015-06-24T06:17:10Z</time>
      </trkpt>
      <trkpt lat="42.12835" lon="9.08786">
        <ele>1448.6</ele>
        <time>2015-06-24T06:17:20Z</time>
      </trkpt>
      <trkpt lat="42.12837" lon="9.08787">
        <ele>1449.2</ele>
        <time>2015-06-24T06:17:29Z</time>
      </trkpt>
      <trkpt lat="42.12841" lon="9.08788">
        <ele>1450.6</ele>
        <time>2015-06-24T06:17:38Z</time>
      </trkpt>
      <trkpt lat="42.12843" lon="9.08787">
        <ele>1451.4</ele>
        <time>2015-06-24T06:17:45Z</time>
      </trkpt>
      <trkpt lat="42.12844" lon="9.08787">
        <ele>1452.6</ele>
        <time>2015-06-24T06:17:55Z</time>
      </trkpt>
      <trkpt lat="42.12847" lon="9.08782">
        <ele>1453.6</ele>
        <time>2015-06-24T06:18:05Z</time>
      </trkpt>
      <trkpt lat="42.12851" lon="9.08773">
        <ele>1454.4</ele>
        <time>2015-06-24T06:18:21Z</time>
      </trkpt>
      <trkpt lat="42.12856" lon="9.08768">
        <ele>1455.6</ele>
        <time>2015-06-24T06:18:32Z</time>
      </trkpt>
      <trkpt lat="42.12861" lon="9.08766">
        <ele>1456.4</ele>
        <time>2015-06-24T06:18:40Z</time>
      </trkpt>
      <trkpt lat="42.12866" lon="9.08763">
        <ele>1457.4</ele>
        <time>2015-06-24T06:18:50Z</time>
      </trkpt>
      <trkpt lat="42.12868" lon="9.08762">
        <ele>1458.4</ele>
        <time>2015-06-24T06:18:57Z</time>
      </trkpt>
      <trkpt lat="42.12872" lon="9.08762">
        <ele>1459.6</ele>
        <time>2015-06-24T06:19:07Z</time>
      </trkpt>
      <trkpt lat="42.12877" lon="9.08758">
        <ele>1460.8</ele>
        <time>2015-06-24T06:19:23Z</time>
      </trkpt>
      <trkpt lat="42.1289" lon="9.08752">
        <ele>1462</ele>
        <time>2015-06-24T06:19:47Z</time>
      </trkpt>
      <trkpt lat="42.12895" lon="9.08744">
        <ele>1462.6</ele>
        <time>2015-06-24T06:20:02Z</time>
      </trkpt>
      <trkpt lat="42.12902" lon="9.08739">
        <ele>1463.2</ele>
        <time>2015-06-24T06:20:15Z</time>
      </trkpt>
      <trkpt lat="42.12909" lon="9.08726">
        <ele>1464</ele>
        <time>2015-06-24T06:20:59Z</time>
      </trkpt>
      <trkpt lat="42.1291" lon="9.08724">
        <ele>1465.2</ele>
        <time>2015-06-24T06:21:16Z</time>
      </trkpt>
      <trkpt lat="42.1291" lon="9.08723">
        <ele>1466.2</ele>
        <time>2015-06-24T06:21:26Z</time>
      </trkpt>
      <trkpt lat="42.12911" lon="9.0872">
        <ele>1467.2</ele>
        <time>2015-06-24T06:21:38Z</time>
      </trkpt>
      <trkpt lat="42.12913" lon="9.08719">
        <ele>1468.2</ele>
        <time>2015-06-24T06:21:52Z</time>
      </trkpt>
      <trkpt lat="42.12915" lon="9.08717">
        <ele>1468.8</ele>
        <time>2015-06-24T06:22:01Z</time>
      </trkpt>
      <trkpt lat="42.12917" lon="9.08716">
        <ele>1469.6</ele>
        <time>2015-06-24T06:22:07Z</time>
      </trkpt>
      <trkpt lat="42.12919" lon="9.08715">
        <ele>1471.2</ele>
        <time>2015-06-24T06:22:16Z</time>
      </trkpt>
      <trkpt lat="42.12921" lon="9.08713">
        <ele>1472.4</ele>
        <time>2015-06-24T06:22:28Z</time>
      </trkpt>
      <trkpt lat="42.12922" lon="9.0871">
        <ele>1473.2</ele>
        <time>2015-06-24T06:22:36Z</time>
      </trkpt>
      <trkpt lat="42.12922" lon="9.08706">
        <ele>1474.2</ele>
        <time>2015-06-24T06:22:44Z</time>
      </trkpt>
      <trkpt lat="42.12924" lon="9.08703">
        <ele>1475.4</ele>
        <time>2015-06-24T06:22:53Z</time>
      </trkpt>
      <trkpt lat="42.12923" lon="9.08704">
        <ele>1476.2</ele>
        <time>2015-06-24T06:23:04Z</time>
      </trkpt>
      <trkpt lat="42.12926" lon="9.08704">
        <ele>1477.2</ele>
        <time>2015-06-24T06:23:15Z</time>
      </trkpt>
      <trkpt lat="42.12928" lon="9.08706">
        <ele>1478.6</ele>
        <time>2015-06-24T06:23:31Z</time>
      </trkpt>
      <trkpt lat="42.12932" lon="9.08707">
        <ele>1479.2</ele>
        <time>2015-06-24T06:23:41Z</time>
      </trkpt>
      <trkpt lat="42.12933" lon="9.08706">
        <ele>1480.4</ele>
        <time>2015-06-24T06:23:49Z</time>
      </trkpt>
      <trkpt lat="42.12934" lon="9.08705">
        <ele>1481.4</ele>
        <time>2015-06-24T06:24:04Z</time>
      </trkpt>
      <trkpt lat="42.12934" lon="9.08703">
        <ele>1482.6</ele>
        <time>2015-06-24T06:24:15Z</time>
      </trkpt>
      <trkpt lat="42.12932" lon="9.087">
        <ele>1483.8</ele>
        <time>2015-06-24T06:24:32Z</time>
      </trkpt>
      <trkpt lat="42.12931" lon="9.08698">
        <ele>1484</ele>
        <time>2015-06-24T06:24:37Z</time>
      </trkpt>
      <trkpt lat="42.12932" lon="9.08695">
        <ele>1484.2</ele>
        <time>2015-06-24T06:24:42Z</time>
      </trkpt>
      <trkpt lat="42.12932" lon="9.0869">
        <ele>1485.8</ele>
        <time>2015-06-24T06:24:51Z</time>
      </trkpt>
      <trkpt lat="42.12931" lon="9.08684">
        <ele>1486.6</ele>
        <time>2015-06-24T06:24:58Z</time>
      </trkpt>
      <trkpt lat="42.12932" lon="9.0868">
        <ele>1487.8</ele>
        <time>2015-06-24T06:25:06Z</time>
      </trkpt>
      <trkpt lat="42.12933" lon="9.08677">
        <ele>1489</ele>
        <time>2015-06-24T06:25:14Z</time>
      </trkpt>
      <trkpt lat="42.12933" lon="9.08672">
        <ele>1490</ele>
        <time>2015-06-24T06:25:21Z</time>
      </trkpt>
      <trkpt lat="42.12932" lon="9.08665">
        <ele>1491.2</ele>
        <time>2015-06-24T06:25:31Z</time>
      </trkpt>
      <trkpt lat="42.12934" lon="9.08658">
        <ele>1492.2</ele>
        <time>2015-06-24T06:25:38Z</time>
      </trkpt>
      <trkpt lat="42.12933" lon="9.08651">
        <ele>1493.6</ele>
        <time>2015-06-24T06:25:47Z</time>
      </trkpt>
      <trkpt lat="42.12935" lon="9.08641">
        <ele>1494.6</ele>
        <time>2015-06-24T06:26:03Z</time>
      </trkpt>
      <trkpt lat="42.12937" lon="9.08639">
        <ele>1495.4</ele>
        <time>2015-06-24T06:26:12Z</time>
      </trkpt>
      <trkpt lat="42.12937" lon="9.08634">
        <ele>1496.8</ele>
        <time>2015-06-24T06:26:20Z</time>
      </trkpt>
      <trkpt lat="42.12937" lon="9.08635">
        <ele>1497.6</ele>
        <time>2015-06-24T06:26:30Z</time>
      </trkpt>
      <trkpt lat="42.12961" lon="9.08615">
        <ele>1499</ele>
        <time>2015-06-24T06:27:34Z</time>
      </trkpt>
      <trkpt lat="42.12967" lon="9.08614">
        <ele>1499.8</ele>
        <time>2015-06-24T06:27:44Z</time>
      </trkpt>
      <trkpt lat="42.12969" lon="9.08613">
        <ele>1500</ele>
        <time>2015-06-24T06:27:47Z</time>
      </trkpt>
      <trkpt lat="42.12971" lon="9.0861">
        <ele>1500.6</ele>
        <time>2015-06-24T06:27:53Z</time>
      </trkpt>
      <trkpt lat="42.12979" lon="9.08607">
        <ele>1502</ele>
        <time>2015-06-24T06:28:05Z</time>
      </trkpt>
      <trkpt lat="42.12985" lon="9.08604">
        <ele>1503.2</ele>
        <time>2015-06-24T06:28:19Z</time>
      </trkpt>
      <trkpt lat="42.12992" lon="9.08603">
        <ele>1503.8</ele>
        <time>2015-06-24T06:28:32Z</time>
      </trkpt>
      <trkpt lat="42.12998" lon="9.08598">
        <ele>1505</ele>
        <time>2015-06-24T06:28:47Z</time>
      </trkpt>
      <trkpt lat="42.13003" lon="9.08594">
        <ele>1505.8</ele>
        <time>2015-06-24T06:28:54Z</time>
      </trkpt>
      <trkpt lat="42.13005" lon="9.08591">
        <ele>1506</ele>
        <time>2015-06-24T06:28:58Z</time>
      </trkpt>
      <trkpt lat="42.13005" lon="9.08591">
        <ele>1506</ele>
        <time>2015-06-24T06:28:59Z</time>
      </trkpt>
      <trkpt lat="42.1301" lon="9.08586">
        <ele>1507</ele>
        <time>2015-06-24T06:29:14Z</time>
      </trkpt>
      <trkpt lat="42.13013" lon="9.08585">
        <ele>1507.6</ele>
        <time>2015-06-24T06:29:22Z</time>
      </trkpt>
      <trkpt lat="42.13019" lon="9.08585">
        <ele>1508.6</ele>
        <time>2015-06-24T06:29:34Z</time>
      </trkpt>
      <trkpt lat="42.1303" lon="9.08582">
        <ele>1509.8</ele>
        <time>2015-06-24T06:29:48Z</time>
      </trkpt>
      <trkpt lat="42.13031" lon="9.08582">
        <ele>1509.8</ele>
        <time>2015-06-24T06:29:49Z</time>
      </trkpt>
      <trkpt lat="42.13032" lon="9.08582">
        <ele>1509.8</ele>
        <time>2015-06-24T06:29:50Z</time>
      </trkpt>
      <trkpt lat="42.13034" lon="9.08582">
        <ele>1510</ele>
        <time>2015-06-24T06:29:52Z</time>
      </trkpt>
      <trkpt lat="42.13038" lon="9.08584">
        <ele>1510.2</ele>
        <time>2015-06-24T06:29:57Z</time>
      </trkpt>
      <trkpt lat="42.13041" lon="9.08586">
        <ele>1510.2</ele>
        <time>2015-06-24T06:30:02Z</time>
      </trkpt>
      <trkpt lat="42.13046" lon="9.08584">
        <ele>1511.6</ele>
        <time>2015-06-24T06:30:14Z</time>
      </trkpt>
      <trkpt lat="42.13051" lon="9.08582">
        <ele>1512.6</ele>
        <time>2015-06-24T06:30:23Z</time>
      </trkpt>
      <trkpt lat="42.13052" lon="9.08578">
        <ele>1513.4</ele>
        <time>2015-06-24T06:30:31Z</time>
      </trkpt>
      <trkpt lat="42.13058" lon="9.08577">
        <ele>1514.4</ele>
        <time>2015-06-24T06:30:44Z</time>
      </trkpt>
      <trkpt lat="42.13063" lon="9.08577">
        <ele>1515.2</ele>
        <time>2015-06-24T06:30:53Z</time>
      </trkpt>
      <trkpt lat="42.13069" lon="9.0858">
        <ele>1516.6</ele>
        <time>2015-06-24T06:31:03Z</time>
      </trkpt>
      <trkpt lat="42.13076" lon="9.08578">
        <ele>1517.4</ele>
        <time>2015-06-24T06:31:14Z</time>
      </trkpt>
      <trkpt lat="42.13081" lon="9.08578">
        <ele>1518.6</ele>
        <time>2015-06-24T06:31:25Z</time>
      </trkpt>
      <trkpt lat="42.13085" lon="9.08578">
        <ele>1519.6</ele>
        <time>2015-06-24T06:31:35Z</time>
      </trkpt>
      <trkpt lat="42.13086" lon="9.08578">
        <ele>1520.6</ele>
        <time>2015-06-24T06:31:46Z</time>
      </trkpt>
      <trkpt lat="42.13094" lon="9.08583">
        <ele>1521.6</ele>
        <time>2015-06-24T06:32:06Z</time>
      </trkpt>
      <trkpt lat="42.13099" lon="9.08588">
        <ele>1522.4</ele>
        <time>2015-06-24T06:32:14Z</time>
      </trkpt>
      <trkpt lat="42.13104" lon="9.08595">
        <ele>1523.6</ele>
        <time>2015-06-24T06:32:25Z</time>
      </trkpt>
      <trkpt lat="42.13104" lon="9.08596">
        <ele>1523.6</ele>
        <time>2015-06-24T06:32:27Z</time>
      </trkpt>
      <trkpt lat="42.13106" lon="9.086">
        <ele>1524.2</ele>
        <time>2015-06-24T06:32:33Z</time>
      </trkpt>
      <trkpt lat="42.13108" lon="9.08605">
        <ele>1525.6</ele>
        <time>2015-06-24T06:32:46Z</time>
      </trkpt>
      <trkpt lat="42.13111" lon="9.08607">
        <ele>1526.4</ele>
        <time>2015-06-24T06:32:55Z</time>
      </trkpt>
      <trkpt lat="42.13111" lon="9.08606">
        <ele>1526.4</ele>
        <time>2015-06-24T06:32:56Z</time>
      </trkpt>
      <trkpt lat="42.13113" lon="9.08606">
        <ele>1527.8</ele>
        <time>2015-06-24T06:33:12Z</time>
      </trkpt>
      <trkpt lat="42.13119" lon="9.08607">
        <ele>1528.2</ele>
        <time>2015-06-24T06:33:23Z</time>
      </trkpt>
      <trkpt lat="42.13124" lon="9.08605">
        <ele>1529.4</ele>
        <time>2015-06-24T06:33:33Z</time>
      </trkpt>
      <trkpt lat="42.13128" lon="9.08605">
        <ele>1530.4</ele>
        <time>2015-06-24T06:33:41Z</time>
      </trkpt>
      <trkpt lat="42.13131" lon="9.08606">
        <ele>1531.4</ele>
        <time>2015-06-24T06:33:49Z</time>
      </trkpt>
      <trkpt lat="42.13133" lon="9.08603">
        <ele>1532.4</ele>
        <time>2015-06-24T06:33:57Z</time>
      </trkpt>
      <trkpt lat="42.13137" lon="9.08605">
        <ele>1533.6</ele>
        <time>2015-06-24T06:34:06Z</time>
      </trkpt>
      <trkpt lat="42.13142" lon="9.08607">
        <ele>1534.4</ele>
        <time>2015-06-24T06:34:16Z</time>
      </trkpt>
      <trkpt lat="42.13145" lon="9.08603">
        <ele>1535.6</ele>
        <time>2015-06-24T06:34:26Z</time>
      </trkpt>
      <trkpt lat="42.13149" lon="9.08605">
        <ele>1536.4</ele>
        <time>2015-06-24T06:34:33Z</time>
      </trkpt>
      <trkpt lat="42.13149" lon="9.08605">
        <ele>1536.6</ele>
        <time>2015-06-24T06:34:34Z</time>
      </trkpt>
      <trkpt lat="42.13152" lon="9.08607">
        <ele>1537.6</ele>
        <time>2015-06-24T06:34:44Z</time>
      </trkpt>
      <trkpt lat="42.13154" lon="9.08607">
        <ele>1538.6</ele>
        <time>2015-06-24T06:34:57Z</time>
      </trkpt>
      <trkpt lat="42.13155" lon="9.08605">
        <ele>1539.6</ele>
        <time>2015-06-24T06:35:05Z</time>
      </trkpt>
      <trkpt lat="42.13156" lon="9.08604">
        <ele>1540.4</ele>
        <time>2015-06-24T06:35:17Z</time>
      </trkpt>
      <trkpt lat="42.13158" lon="9.08603">
        <ele>1541.2</ele>
        <time>2015-06-24T06:35:22Z</time>
      </trkpt>
      <trkpt lat="42.13158" lon="9.08599">
        <ele>1542.6</ele>
        <time>2015-06-24T06:35:30Z</time>
      </trkpt>
      <trkpt lat="42.13158" lon="9.08595">
        <ele>1543.6</ele>
        <time>2015-06-24T06:35:40Z</time>
      </trkpt>
      <trkpt lat="42.13157" lon="9.08589">
        <ele>1545</ele>
        <time>2015-06-24T06:35:50Z</time>
      </trkpt>
      <trkpt lat="42.13156" lon="9.08585">
        <ele>1545.8</ele>
        <time>2015-06-24T06:35:59Z</time>
      </trkpt>
      <trkpt lat="42.13156" lon="9.0858">
        <ele>1547</ele>
        <time>2015-06-24T06:36:08Z</time>
      </trkpt>
      <trkpt lat="42.13157" lon="9.08579">
        <ele>1547.8</ele>
        <time>2015-06-24T06:36:18Z</time>
      </trkpt>
      <trkpt lat="42.13158" lon="9.08577">
        <ele>1549</ele>
        <time>2015-06-24T06:36:29Z</time>
      </trkpt>
      <trkpt lat="42.13158" lon="9.08573">
        <ele>1549.8</ele>
        <time>2015-06-24T06:36:36Z</time>
      </trkpt>
      <trkpt lat="42.13157" lon="9.08568">
        <ele>1551.2</ele>
        <time>2015-06-24T06:36:46Z</time>
      </trkpt>
      <trkpt lat="42.13156" lon="9.08563">
        <ele>1552.6</ele>
        <time>2015-06-24T06:36:57Z</time>
      </trkpt>
      <trkpt lat="42.13154" lon="9.08559">
        <ele>1553.2</ele>
        <time>2015-06-24T06:37:06Z</time>
      </trkpt>
      <trkpt lat="42.13156" lon="9.08555">
        <ele>1554.2</ele>
        <time>2015-06-24T06:37:16Z</time>
      </trkpt>
      <trkpt lat="42.13151" lon="9.08552">
        <ele>1555.8</ele>
        <time>2015-06-24T06:37:32Z</time>
      </trkpt>
      <trkpt lat="42.13148" lon="9.0855">
        <ele>1556.4</ele>
        <time>2015-06-24T06:37:43Z</time>
      </trkpt>
      <trkpt lat="42.13144" lon="9.08546">
        <ele>1557.4</ele>
        <time>2015-06-24T06:37:51Z</time>
      </trkpt>
      <trkpt lat="42.13142" lon="9.08543">
        <ele>1557.8</ele>
        <time>2015-06-24T06:37:57Z</time>
      </trkpt>
      <trkpt lat="42.13141" lon="9.08541">
        <ele>1558.2</ele>
        <time>2015-06-24T06:38:02Z</time>
      </trkpt>
      <trkpt lat="42.13141" lon="9.08539">
        <ele>1559.6</ele>
        <time>2015-06-24T06:38:11Z</time>
      </trkpt>
      <trkpt lat="42.13141" lon="9.08535">
        <ele>1560.4</ele>
        <time>2015-06-24T06:38:26Z</time>
      </trkpt>
      <trkpt lat="42.1314" lon="9.08528">
        <ele>1562</ele>
        <time>2015-06-24T06:38:39Z</time>
      </trkpt>
      <trkpt lat="42.13143" lon="9.08526">
        <ele>1563</ele>
        <time>2015-06-24T06:38:52Z</time>
      </trkpt>
      <trkpt lat="42.13145" lon="9.08523">
        <ele>1563.6</ele>
        <time>2015-06-24T06:38:59Z</time>
      </trkpt>
      <trkpt lat="42.13148" lon="9.0852">
        <ele>1564.8</ele>
        <time>2015-06-24T06:39:06Z</time>
      </trkpt>
      <trkpt lat="42.13148" lon="9.08515">
        <ele>1565.8</ele>
        <time>2015-06-24T06:39:13Z</time>
      </trkpt>
      <trkpt lat="42.13147" lon="9.08506">
        <ele>1567</ele>
        <time>2015-06-24T06:39:26Z</time>
      </trkpt>
      <trkpt lat="42.13147" lon="9.08497">
        <ele>1568.6</ele>
        <time>2015-06-24T06:40:11Z</time>
      </trkpt>
      <trkpt lat="42.13147" lon="9.08495">
        <ele>1569</ele>
        <time>2015-06-24T06:40:18Z</time>
      </trkpt>
      <trkpt lat="42.13147" lon="9.08494">
        <ele>1569.8</ele>
        <time>2015-06-24T06:40:23Z</time>
      </trkpt>
      <trkpt lat="42.13145" lon="9.08492">
        <ele>1570.4</ele>
        <time>2015-06-24T06:40:31Z</time>
      </trkpt>
      <trkpt lat="42.13144" lon="9.08491">
        <ele>1570.8</ele>
        <time>2015-06-24T06:40:37Z</time>
      </trkpt>
      <trkpt lat="42.13145" lon="9.08488">
        <ele>1572.2</ele>
        <time>2015-06-24T06:40:44Z</time>
      </trkpt>
      <trkpt lat="42.13144" lon="9.08486">
        <ele>1573.2</ele>
        <time>2015-06-24T06:40:51Z</time>
      </trkpt>
      <trkpt lat="42.13144" lon="9.08483">
        <ele>1574.2</ele>
        <time>2015-06-24T06:40:58Z</time>
      </trkpt>
      <trkpt lat="42.13143" lon="9.0848">
        <ele>1575.8</ele>
        <time>2015-06-24T06:41:08Z</time>
      </trkpt>
      <trkpt lat="42.13144" lon="9.08479">
        <ele>1576.8</ele>
        <time>2015-06-24T06:41:49Z</time>
      </trkpt>
      <trkpt lat="42.13143" lon="9.08478">
        <ele>1577</ele>
        <time>2015-06-24T06:41:53Z</time>
      </trkpt>
      <trkpt lat="42.1314" lon="9.08474">
        <ele>1577</ele>
        <time>2015-06-24T06:43:07Z</time>
      </trkpt>
      <trkpt lat="42.13144" lon="9.0848">
        <ele>1577</ele>
        <time>2015-06-24T06:44:44Z</time>
      </trkpt>
      <trkpt lat="42.13144" lon="9.08478">
        <ele>1577.2</ele>
        <time>2015-06-24T06:45:50Z</time>
      </trkpt>
      <trkpt lat="42.13145" lon="9.08482">
        <ele>1576.4</ele>
        <time>2015-06-24T06:47:38Z</time>
      </trkpt>
      <trkpt lat="42.13152" lon="9.08471">
        <ele>1577</ele>
        <time>2015-06-24T06:48:09Z</time>
      </trkpt>
      <trkpt lat="42.13153" lon="9.0847">
        <ele>1578</ele>
        <time>2015-06-24T06:48:17Z</time>
      </trkpt>
      <trkpt lat="42.13153" lon="9.08466">
        <ele>1579</ele>
        <time>2015-06-24T06:48:28Z</time>
      </trkpt>
      <trkpt lat="42.13156" lon="9.0846">
        <ele>1580</ele>
        <time>2015-06-24T06:48:43Z</time>
      </trkpt>
      <trkpt lat="42.13159" lon="9.08458">
        <ele>1581.4</ele>
        <time>2015-06-24T06:48:57Z</time>
      </trkpt>
      <trkpt lat="42.13161" lon="9.0846">
        <ele>1582.6</ele>
        <time>2015-06-24T06:49:10Z</time>
      </trkpt>
      <trkpt lat="42.13166" lon="9.08467">
        <ele>1583.8</ele>
        <time>2015-06-24T06:49:30Z</time>
      </trkpt>
      <trkpt lat="42.13168" lon="9.08468">
        <ele>1584.2</ele>
        <time>2015-06-24T06:49:39Z</time>
      </trkpt>
      <trkpt lat="42.13171" lon="9.08469">
        <ele>1585.6</ele>
        <time>2015-06-24T06:49:48Z</time>
      </trkpt>
      <trkpt lat="42.13173" lon="9.08466">
        <ele>1586.2</ele>
        <time>2015-06-24T06:49:55Z</time>
      </trkpt>
      <trkpt lat="42.13178" lon="9.0847">
        <ele>1587.8</ele>
        <time>2015-06-24T06:50:07Z</time>
      </trkpt>
      <trkpt lat="42.13181" lon="9.08467">
        <ele>1589</ele>
        <time>2015-06-24T06:50:18Z</time>
      </trkpt>
      <trkpt lat="42.13184" lon="9.08467">
        <ele>1590</ele>
        <time>2015-06-24T06:50:29Z</time>
      </trkpt>
      <trkpt lat="42.13187" lon="9.08468">
        <ele>1590.8</ele>
        <time>2015-06-24T06:50:41Z</time>
      </trkpt>
      <trkpt lat="42.13189" lon="9.08469">
        <ele>1592.2</ele>
        <time>2015-06-24T06:51:02Z</time>
      </trkpt>
      <trkpt lat="42.1319" lon="9.08469">
        <ele>1592.8</ele>
        <time>2015-06-24T06:51:10Z</time>
      </trkpt>
      <trkpt lat="42.13192" lon="9.08467">
        <ele>1594</ele>
        <time>2015-06-24T06:51:18Z</time>
      </trkpt>
      <trkpt lat="42.13196" lon="9.08485">
        <ele>1595.4</ele>
        <time>2015-06-24T06:51:46Z</time>
      </trkpt>
      <trkpt lat="42.13205" lon="9.0849">
        <ele>1596.2</ele>
        <time>2015-06-24T06:52:05Z</time>
      </trkpt>
      <trkpt lat="42.13207" lon="9.0849">
        <ele>1597.2</ele>
        <time>2015-06-24T06:52:13Z</time>
      </trkpt>
      <trkpt lat="42.13209" lon="9.08486">
        <ele>1598.2</ele>
        <time>2015-06-24T06:52:21Z</time>
      </trkpt>
      <trkpt lat="42.13214" lon="9.08481">
        <ele>1599.4</ele>
        <time>2015-06-24T06:52:32Z</time>
      </trkpt>
      <trkpt lat="42.13215" lon="9.08487">
        <ele>1600.4</ele>
        <time>2015-06-24T06:52:41Z</time>
      </trkpt>
      <trkpt lat="42.13219" lon="9.08491">
        <ele>1601.6</ele>
        <time>2015-06-24T06:52:51Z</time>
      </trkpt>
      <trkpt lat="42.13221" lon="9.08494">
        <ele>1602.8</ele>
        <time>2015-06-24T06:53:04Z</time>
      </trkpt>
      <trkpt lat="42.13225" lon="9.08496">
        <ele>1603.6</ele>
        <time>2015-06-24T06:53:13Z</time>
      </trkpt>
      <trkpt lat="42.13235" lon="9.08509">
        <ele>1604.6</ele>
        <time>2015-06-24T06:53:48Z</time>
      </trkpt>
      <trkpt lat="42.13238" lon="9.0851">
        <ele>1605.4</ele>
        <time>2015-06-24T06:53:55Z</time>
      </trkpt>
      <trkpt lat="42.13241" lon="9.08511">
        <ele>1606.4</ele>
        <time>2015-06-24T06:54:03Z</time>
      </trkpt>
      <trkpt lat="42.13245" lon="9.08508">
        <ele>1607.6</ele>
        <time>2015-06-24T06:54:12Z</time>
      </trkpt>
      <trkpt lat="42.13248" lon="9.08507">
        <ele>1608.6</ele>
        <time>2015-06-24T06:54:20Z</time>
      </trkpt>
      <trkpt lat="42.13252" lon="9.08511">
        <ele>1609.6</ele>
        <time>2015-06-24T06:54:29Z</time>
      </trkpt>
      <trkpt lat="42.13266" lon="9.08517">
        <ele>1611.4</ele>
        <time>2015-06-24T06:54:52Z</time>
      </trkpt>
      <trkpt lat="42.13274" lon="9.0852">
        <ele>1612</ele>
        <time>2015-06-24T06:55:10Z</time>
      </trkpt>
      <trkpt lat="42.13276" lon="9.08514">
        <ele>1612.8</ele>
        <time>2015-06-24T06:55:21Z</time>
      </trkpt>
      <trkpt lat="42.13275" lon="9.08509">
        <ele>1613.8</ele>
        <time>2015-06-24T06:55:30Z</time>
      </trkpt>
      <trkpt lat="42.13275" lon="9.08506">
        <ele>1615</ele>
        <time>2015-06-24T06:55:40Z</time>
      </trkpt>
      <trkpt lat="42.13276" lon="9.08496">
        <ele>1616.2</ele>
        <time>2015-06-24T06:55:54Z</time>
      </trkpt>
      <trkpt lat="42.13278" lon="9.0849">
        <ele>1617.6</ele>
        <time>2015-06-24T06:56:07Z</time>
      </trkpt>
      <trkpt lat="42.13279" lon="9.08489">
        <ele>1618</ele>
        <time>2015-06-24T06:56:15Z</time>
      </trkpt>
      <trkpt lat="42.13288" lon="9.08488">
        <ele>1619.6</ele>
        <time>2015-06-24T06:56:38Z</time>
      </trkpt>
      <trkpt lat="42.13291" lon="9.08489">
        <ele>1620.2</ele>
        <time>2015-06-24T06:56:49Z</time>
      </trkpt>
      <trkpt lat="42.13293" lon="9.08487">
        <ele>1621</ele>
        <time>2015-06-24T06:56:56Z</time>
      </trkpt>
      <trkpt lat="42.13293" lon="9.08479">
        <ele>1622.4</ele>
        <time>2015-06-24T06:57:07Z</time>
      </trkpt>
      <trkpt lat="42.13295" lon="9.08476">
        <ele>1623.2</ele>
        <time>2015-06-24T06:57:15Z</time>
      </trkpt>
      <trkpt lat="42.13298" lon="9.08476">
        <ele>1624.2</ele>
        <time>2015-06-24T06:57:24Z</time>
      </trkpt>
      <trkpt lat="42.13299" lon="9.08472">
        <ele>1625.4</ele>
        <time>2015-06-24T06:57:32Z</time>
      </trkpt>
      <trkpt lat="42.13302" lon="9.0847">
        <ele>1626.4</ele>
        <time>2015-06-24T06:57:46Z</time>
      </trkpt>
      <trkpt lat="42.13303" lon="9.08468">
        <ele>1627.4</ele>
        <time>2015-06-24T06:57:54Z</time>
      </trkpt>
      <trkpt lat="42.13306" lon="9.08467">
        <ele>1628.4</ele>
        <time>2015-06-24T06:58:01Z</time>
      </trkpt>
      <trkpt lat="42.13308" lon="9.08463">
        <ele>1629.8</ele>
        <time>2015-06-24T06:58:10Z</time>
      </trkpt>
      <trkpt lat="42.13311" lon="9.0846">
        <ele>1630.8</ele>
        <time>2015-06-24T06:58:22Z</time>
      </trkpt>
      <trkpt lat="42.13314" lon="9.08459">
        <ele>1631.8</ele>
        <time>2015-06-24T06:58:33Z</time>
      </trkpt>
      <trkpt lat="42.13316" lon="9.08454">
        <ele>1632.8</ele>
        <time>2015-06-24T06:58:46Z</time>
      </trkpt>
      <trkpt lat="42.13319" lon="9.08453">
        <ele>1634</ele>
        <time>2015-06-24T06:58:56Z</time>
      </trkpt>
      <trkpt lat="42.13321" lon="9.08451">
        <ele>1634.8</ele>
        <time>2015-06-24T06:59:03Z</time>
      </trkpt>
      <trkpt lat="42.13324" lon="9.08452">
        <ele>1635.8</ele>
        <time>2015-06-24T06:59:11Z</time>
      </trkpt>
      <trkpt lat="42.13326" lon="9.08456">
        <ele>1637.2</ele>
        <time>2015-06-24T06:59:26Z</time>
      </trkpt>
      <trkpt lat="42.13327" lon="9.08455">
        <ele>1637.8</ele>
        <time>2015-06-24T06:59:34Z</time>
      </trkpt>
      <trkpt lat="42.13329" lon="9.08457">
        <ele>1639</ele>
        <time>2015-06-24T06:59:44Z</time>
      </trkpt>
      <trkpt lat="42.13331" lon="9.08459">
        <ele>1640.4</ele>
        <time>2015-06-24T06:59:57Z</time>
      </trkpt>
      <trkpt lat="42.13334" lon="9.08458">
        <ele>1641</ele>
        <time>2015-06-24T07:00:06Z</time>
      </trkpt>
      <trkpt lat="42.13336" lon="9.0846">
        <ele>1642.2</ele>
        <time>2015-06-24T07:00:16Z</time>
      </trkpt>
      <trkpt lat="42.13336" lon="9.08466">
        <ele>1643.6</ele>
        <time>2015-06-24T07:00:33Z</time>
      </trkpt>
      <trkpt lat="42.13334" lon="9.08476">
        <ele>1644.6</ele>
        <time>2015-06-24T07:00:49Z</time>
      </trkpt>
      <trkpt lat="42.13335" lon="9.08483">
        <ele>1645.4</ele>
        <time>2015-06-24T07:00:58Z</time>
      </trkpt>
      <trkpt lat="42.13338" lon="9.08489">
        <ele>1646.4</ele>
        <time>2015-06-24T07:01:09Z</time>
      </trkpt>
      <trkpt lat="42.13339" lon="9.0849">
        <ele>1647</ele>
        <time>2015-06-24T07:01:15Z</time>
      </trkpt>
      <trkpt lat="42.1334" lon="9.08494">
        <ele>1648.4</ele>
        <time>2015-06-24T07:01:23Z</time>
      </trkpt>
      <trkpt lat="42.1334" lon="9.08494">
        <ele>1648.4</ele>
        <time>2015-06-24T07:01:25Z</time>
      </trkpt>
      <trkpt lat="42.13343" lon="9.08497">
        <ele>1649.6</ele>
        <time>2015-06-24T07:01:32Z</time>
      </trkpt>
      <trkpt lat="42.13345" lon="9.08499">
        <ele>1650.4</ele>
        <time>2015-06-24T07:01:40Z</time>
      </trkpt>
      <trkpt lat="42.13347" lon="9.08495">
        <ele>1652</ele>
        <time>2015-06-24T07:01:57Z</time>
      </trkpt>
      <trkpt lat="42.13349" lon="9.08499">
        <ele>1652.8</ele>
        <time>2015-06-24T07:02:24Z</time>
      </trkpt>
      <trkpt lat="42.13359" lon="9.0852">
        <ele>1654</ele>
        <time>2015-06-24T07:04:14Z</time>
      </trkpt>
      <trkpt lat="42.1336" lon="9.08523">
        <ele>1654.8</ele>
        <time>2015-06-24T07:04:23Z</time>
      </trkpt>
      <trkpt lat="42.13359" lon="9.08534">
        <ele>1656.2</ele>
        <time>2015-06-24T07:04:54Z</time>
      </trkpt>
      <trkpt lat="42.13361" lon="9.08533">
        <ele>1657.2</ele>
        <time>2015-06-24T07:05:01Z</time>
      </trkpt>
      <trkpt lat="42.13362" lon="9.08531">
        <ele>1658.2</ele>
        <time>2015-06-24T07:05:08Z</time>
      </trkpt>
      <trkpt lat="42.13365" lon="9.08533">
        <ele>1659.6</ele>
        <time>2015-06-24T07:05:30Z</time>
      </trkpt>
      <trkpt lat="42.13367" lon="9.08536">
        <ele>1660.6</ele>
        <time>2015-06-24T07:05:38Z</time>
      </trkpt>
      <trkpt lat="42.13367" lon="9.08538">
        <ele>1661.8</ele>
        <time>2015-06-24T07:05:48Z</time>
      </trkpt>
      <trkpt lat="42.13368" lon="9.0854">
        <ele>1663</ele>
        <time>2015-06-24T07:06:00Z</time>
      </trkpt>
      <trkpt lat="42.1337" lon="9.08543">
        <ele>1664.4</ele>
        <time>2015-06-24T07:06:10Z</time>
      </trkpt>
      <trkpt lat="42.13376" lon="9.08548">
        <ele>1665.4</ele>
        <time>2015-06-24T07:06:27Z</time>
      </trkpt>
      <trkpt lat="42.13379" lon="9.0855">
        <ele>1666.2</ele>
        <time>2015-06-24T07:06:36Z</time>
      </trkpt>
      <trkpt lat="42.13381" lon="9.08554">
        <ele>1667.2</ele>
        <time>2015-06-24T07:06:45Z</time>
      </trkpt>
      <trkpt lat="42.13385" lon="9.08555">
        <ele>1668.6</ele>
        <time>2015-06-24T07:06:55Z</time>
      </trkpt>
      <trkpt lat="42.13387" lon="9.08557">
        <ele>1669.6</ele>
        <time>2015-06-24T07:07:06Z</time>
      </trkpt>
      <trkpt lat="42.1339" lon="9.08558">
        <ele>1671</ele>
        <time>2015-06-24T07:07:19Z</time>
      </trkpt>
      <trkpt lat="42.13395" lon="9.08559">
        <ele>1671.8</ele>
        <time>2015-06-24T07:07:37Z</time>
      </trkpt>
      <trkpt lat="42.13398" lon="9.0856">
        <ele>1673</ele>
        <time>2015-06-24T07:07:47Z</time>
      </trkpt>
      <trkpt lat="42.13399" lon="9.08559">
        <ele>1674</ele>
        <time>2015-06-24T07:07:58Z</time>
      </trkpt>
      <trkpt lat="42.13398" lon="9.08552">
        <ele>1675.4</ele>
        <time>2015-06-24T07:08:14Z</time>
      </trkpt>
      <trkpt lat="42.13399" lon="9.08549">
        <ele>1676.4</ele>
        <time>2015-06-24T07:08:24Z</time>
      </trkpt>
      <trkpt lat="42.13402" lon="9.08548">
        <ele>1677.8</ele>
        <time>2015-06-24T07:08:38Z</time>
      </trkpt>
      <trkpt lat="42.13402" lon="9.08547">
        <ele>1678.8</ele>
        <time>2015-06-24T07:08:46Z</time>
      </trkpt>
      <trkpt lat="42.13402" lon="9.08545">
        <ele>1680</ele>
        <time>2015-06-24T07:08:57Z</time>
      </trkpt>
      <trkpt lat="42.13405" lon="9.08546">
        <ele>1681.2</ele>
        <time>2015-06-24T07:09:08Z</time>
      </trkpt>
      <trkpt lat="42.13406" lon="9.08541">
        <ele>1682</ele>
        <time>2015-06-24T07:09:19Z</time>
      </trkpt>
      <trkpt lat="42.13406" lon="9.08535">
        <ele>1683.4</ele>
        <time>2015-06-24T07:09:36Z</time>
      </trkpt>
      <trkpt lat="42.13405" lon="9.08526">
        <ele>1684.6</ele>
        <time>2015-06-24T07:09:48Z</time>
      </trkpt>
      <trkpt lat="42.13408" lon="9.08519">
        <ele>1685.4</ele>
        <time>2015-06-24T07:10:17Z</time>
      </trkpt>
      <trkpt lat="42.13409" lon="9.08518">
        <ele>1687</ele>
        <time>2015-06-24T07:10:30Z</time>
      </trkpt>
      <trkpt lat="42.13408" lon="9.08513">
        <ele>1687.8</ele>
        <time>2015-06-24T07:10:40Z</time>
      </trkpt>
      <trkpt lat="42.13411" lon="9.08513">
        <ele>1688.8</ele>
        <time>2015-06-24T07:10:50Z</time>
      </trkpt>
      <trkpt lat="42.13414" lon="9.08512">
        <ele>1690.2</ele>
        <time>2015-06-24T07:11:02Z</time>
      </trkpt>
      <trkpt lat="42.13414" lon="9.08506">
        <ele>1691.2</ele>
        <time>2015-06-24T07:11:11Z</time>
      </trkpt>
      <trkpt lat="42.13413" lon="9.08499">
        <ele>1692</ele>
        <time>2015-06-24T07:11:18Z</time>
      </trkpt>
      <trkpt lat="42.13417" lon="9.08494">
        <ele>1693.6</ele>
        <time>2015-06-24T07:11:35Z</time>
      </trkpt>
      <trkpt lat="42.13419" lon="9.08494">
        <ele>1694.8</ele>
        <time>2015-06-24T07:11:45Z</time>
      </trkpt>
      <trkpt lat="42.13421" lon="9.08495">
        <ele>1696</ele>
        <time>2015-06-24T07:11:54Z</time>
      </trkpt>
      <trkpt lat="42.13423" lon="9.08493">
        <ele>1697.2</ele>
        <time>2015-06-24T07:12:05Z</time>
      </trkpt>
      <trkpt lat="42.13425" lon="9.08491">
        <ele>1698</ele>
        <time>2015-06-24T07:12:14Z</time>
      </trkpt>
      <trkpt lat="42.13427" lon="9.08491">
        <ele>1699.2</ele>
        <time>2015-06-24T07:12:24Z</time>
      </trkpt>
      <trkpt lat="42.13428" lon="9.08488">
        <ele>1700.4</ele>
        <time>2015-06-24T07:12:37Z</time>
      </trkpt>
      <trkpt lat="42.13428" lon="9.08484">
        <ele>1701.2</ele>
        <time>2015-06-24T07:12:49Z</time>
      </trkpt>
      <trkpt lat="42.13429" lon="9.08484">
        <ele>1702.4</ele>
        <time>2015-06-24T07:12:58Z</time>
      </trkpt>
      <trkpt lat="42.1343" lon="9.08483">
        <ele>1703.4</ele>
        <time>2015-06-24T07:13:10Z</time>
      </trkpt>
      <trkpt lat="42.13432" lon="9.0848">
        <ele>1704.4</ele>
        <time>2015-06-24T07:13:19Z</time>
      </trkpt>
      <trkpt lat="42.13434" lon="9.08477">
        <ele>1705.6</ele>
        <time>2015-06-24T07:13:30Z</time>
      </trkpt>
      <trkpt lat="42.13435" lon="9.08472">
        <ele>1706.4</ele>
        <time>2015-06-24T07:13:38Z</time>
      </trkpt>
      <trkpt lat="42.13437" lon="9.08465">
        <ele>1707.6</ele>
        <time>2015-06-24T07:13:49Z</time>
      </trkpt>
      <trkpt lat="42.1344" lon="9.08464">
        <ele>1708.8</ele>
        <time>2015-06-24T07:13:59Z</time>
      </trkpt>
      <trkpt lat="42.13443" lon="9.08463">
        <ele>1709.8</ele>
        <time>2015-06-24T07:14:08Z</time>
      </trkpt>
      <trkpt lat="42.13445" lon="9.08461">
        <ele>1711.2</ele>
        <time>2015-06-24T07:14:20Z</time>
      </trkpt>
      <trkpt lat="42.13448" lon="9.08461">
        <ele>1712.2</ele>
        <time>2015-06-24T07:14:38Z</time>
      </trkpt>
      <trkpt lat="42.13451" lon="9.08458">
        <ele>1713.4</ele>
        <time>2015-06-24T07:14:51Z</time>
      </trkpt>
      <trkpt lat="42.13454" lon="9.08453">
        <ele>1714.4</ele>
        <time>2015-06-24T07:15:01Z</time>
      </trkpt>
      <trkpt lat="42.13456" lon="9.08452">
        <ele>1715.2</ele>
        <time>2015-06-24T07:15:09Z</time>
      </trkpt>
      <trkpt lat="42.13457" lon="9.08448">
        <ele>1716.4</ele>
        <time>2015-06-24T07:15:19Z</time>
      </trkpt>
      <trkpt lat="42.13459" lon="9.08443">
        <ele>1717.8</ele>
        <time>2015-06-24T07:15:29Z</time>
      </trkpt>
      <trkpt lat="42.1346" lon="9.08434">
        <ele>1718.6</ele>
        <time>2015-06-24T07:15:41Z</time>
      </trkpt>
      <trkpt lat="42.13464" lon="9.08434">
        <ele>1719.6</ele>
        <time>2015-06-24T07:15:50Z</time>
      </trkpt>
      <trkpt lat="42.13468" lon="9.08439">
        <ele>1721.2</ele>
        <time>2015-06-24T07:16:05Z</time>
      </trkpt>
      <trkpt lat="42.13469" lon="9.08465">
        <ele>1722</ele>
        <time>2015-06-24T07:16:46Z</time>
      </trkpt>
      <trkpt lat="42.1347" lon="9.08464">
        <ele>1722.6</ele>
        <time>2015-06-24T07:16:53Z</time>
      </trkpt>
      <trkpt lat="42.13472" lon="9.08463">
        <ele>1723.4</ele>
        <time>2015-06-24T07:17:01Z</time>
      </trkpt>
      <trkpt lat="42.13473" lon="9.08462">
        <ele>1724.8</ele>
        <time>2015-06-24T07:17:10Z</time>
      </trkpt>
      <trkpt lat="42.13476" lon="9.08462">
        <ele>1725.6</ele>
        <time>2015-06-24T07:17:19Z</time>
      </trkpt>
      <trkpt lat="42.13478" lon="9.08465">
        <ele>1727</ele>
        <time>2015-06-24T07:17:32Z</time>
      </trkpt>
      <trkpt lat="42.13479" lon="9.08463">
        <ele>1727.6</ele>
        <time>2015-06-24T07:17:40Z</time>
      </trkpt>
      <trkpt lat="42.13483" lon="9.08461">
        <ele>1729</ele>
        <time>2015-06-24T07:17:53Z</time>
      </trkpt>
      <trkpt lat="42.13485" lon="9.08461">
        <ele>1730.2</ele>
        <time>2015-06-24T07:18:10Z</time>
      </trkpt>
      <trkpt lat="42.13487" lon="9.08462">
        <ele>1731.2</ele>
        <time>2015-06-24T07:18:29Z</time>
      </trkpt>
      <trkpt lat="42.13488" lon="9.08463">
        <ele>1732.2</ele>
        <time>2015-06-24T07:18:41Z</time>
      </trkpt>
      <trkpt lat="42.1349" lon="9.08464">
        <ele>1733.4</ele>
        <time>2015-06-24T07:18:59Z</time>
      </trkpt>
      <trkpt lat="42.13492" lon="9.08466">
        <ele>1733.6</ele>
        <time>2015-06-24T07:19:05Z</time>
      </trkpt>
      <trkpt lat="42.13495" lon="9.08468">
        <ele>1735</ele>
        <time>2015-06-24T07:19:15Z</time>
      </trkpt>
      <trkpt lat="42.13497" lon="9.08472">
        <ele>1736.2</ele>
        <time>2015-06-24T07:19:26Z</time>
      </trkpt>
      <trkpt lat="42.13498" lon="9.08473">
        <ele>1737</ele>
        <time>2015-06-24T07:19:32Z</time>
      </trkpt>
      <trkpt lat="42.13504" lon="9.08471">
        <ele>1738.8</ele>
        <time>2015-06-24T07:19:46Z</time>
      </trkpt>
      <trkpt lat="42.13504" lon="9.08469">
        <ele>1739.2</ele>
        <time>2015-06-24T07:19:52Z</time>
      </trkpt>
      <trkpt lat="42.13503" lon="9.08463">
        <ele>1740.4</ele>
        <time>2015-06-24T07:20:00Z</time>
      </trkpt>
      <trkpt lat="42.13503" lon="9.08459">
        <ele>1741.4</ele>
        <time>2015-06-24T07:20:08Z</time>
      </trkpt>
      <trkpt lat="42.13503" lon="9.08457">
        <ele>1743</ele>
        <time>2015-06-24T07:20:21Z</time>
      </trkpt>
      <trkpt lat="42.13503" lon="9.08455">
        <ele>1743.6</ele>
        <time>2015-06-24T07:20:31Z</time>
      </trkpt>
      <trkpt lat="42.13505" lon="9.08451">
        <ele>1745</ele>
        <time>2015-06-24T07:20:47Z</time>
      </trkpt>
      <trkpt lat="42.13506" lon="9.08448">
        <ele>1745.6</ele>
        <time>2015-06-24T07:20:57Z</time>
      </trkpt>
      <trkpt lat="42.13507" lon="9.08446">
        <ele>1746.6</ele>
        <time>2015-06-24T07:21:05Z</time>
      </trkpt>
      <trkpt lat="42.1351" lon="9.08445">
        <ele>1747.6</ele>
        <time>2015-06-24T07:21:16Z</time>
      </trkpt>
      <trkpt lat="42.13512" lon="9.08449">
        <ele>1748.6</ele>
        <time>2015-06-24T07:21:25Z</time>
      </trkpt>
      <trkpt lat="42.13512" lon="9.08445">
        <ele>1749.6</ele>
        <time>2015-06-24T07:21:37Z</time>
      </trkpt>
      <trkpt lat="42.13512" lon="9.08435">
        <ele>1750.8</ele>
        <time>2015-06-24T07:21:55Z</time>
      </trkpt>
      <trkpt lat="42.13512" lon="9.08426">
        <ele>1751.6</ele>
        <time>2015-06-24T07:22:08Z</time>
      </trkpt>
      <trkpt lat="42.13516" lon="9.08418">
        <ele>1752.6</ele>
        <time>2015-06-24T07:22:30Z</time>
      </trkpt>
      <trkpt lat="42.13519" lon="9.08421">
        <ele>1753.6</ele>
        <time>2015-06-24T07:22:42Z</time>
      </trkpt>
      <trkpt lat="42.13522" lon="9.0842">
        <ele>1754.8</ele>
        <time>2015-06-24T07:22:56Z</time>
      </trkpt>
      <trkpt lat="42.13524" lon="9.08418">
        <ele>1755.6</ele>
        <time>2015-06-24T07:23:05Z</time>
      </trkpt>
      <trkpt lat="42.13527" lon="9.08422">
        <ele>1756.6</ele>
        <time>2015-06-24T07:23:16Z</time>
      </trkpt>
      <trkpt lat="42.13529" lon="9.08427">
        <ele>1757.8</ele>
        <time>2015-06-24T07:23:30Z</time>
      </trkpt>
      <trkpt lat="42.13532" lon="9.08426">
        <ele>1758.8</ele>
        <time>2015-06-24T07:23:47Z</time>
      </trkpt>
      <trkpt lat="42.13532" lon="9.0843">
        <ele>1759.8</ele>
        <time>2015-06-24T07:24:25Z</time>
      </trkpt>
      <trkpt lat="42.13535" lon="9.08425">
        <ele>1760.2</ele>
        <time>2015-06-24T07:24:55Z</time>
      </trkpt>
      <trkpt lat="42.13537" lon="9.08425">
        <ele>1761.8</ele>
        <time>2015-06-24T07:25:07Z</time>
      </trkpt>
      <trkpt lat="42.13538" lon="9.08425">
        <ele>1762.6</ele>
        <time>2015-06-24T07:25:15Z</time>
      </trkpt>
      <trkpt lat="42.1354" lon="9.08424">
        <ele>1763</ele>
        <time>2015-06-24T07:25:20Z</time>
      </trkpt>
      <trkpt lat="42.13541" lon="9.08425">
        <ele>1764.6</ele>
        <time>2015-06-24T07:25:35Z</time>
      </trkpt>
      <trkpt lat="42.13541" lon="9.08425">
        <ele>1765</ele>
        <time>2015-06-24T07:25:40Z</time>
      </trkpt>
      <trkpt lat="42.13544" lon="9.08427">
        <ele>1766.6</ele>
        <time>2015-06-24T07:25:54Z</time>
      </trkpt>
      <trkpt lat="42.13544" lon="9.08428">
        <ele>1767</ele>
        <time>2015-06-24T07:26:00Z</time>
      </trkpt>
      <trkpt lat="42.13545" lon="9.08432">
        <ele>1769.2</ele>
        <time>2015-06-24T07:26:24Z</time>
      </trkpt>
      <trkpt lat="42.13548" lon="9.08434">
        <ele>1769.8</ele>
        <time>2015-06-24T07:26:36Z</time>
      </trkpt>
      <trkpt lat="42.13551" lon="9.08442">
        <ele>1771</ele>
        <time>2015-06-24T07:26:53Z</time>
      </trkpt>
      <trkpt lat="42.13554" lon="9.08441">
        <ele>1771.6</ele>
        <time>2015-06-24T07:27:04Z</time>
      </trkpt>
      <trkpt lat="42.13556" lon="9.08439">
        <ele>1772.8</ele>
        <time>2015-06-24T07:27:33Z</time>
      </trkpt>
      <trkpt lat="42.1356" lon="9.08429">
        <ele>1773.4</ele>
        <time>2015-06-24T07:28:58Z</time>
      </trkpt>
      <trkpt lat="42.13562" lon="9.0843">
        <ele>1774.4</ele>
        <time>2015-06-24T07:29:11Z</time>
      </trkpt>
      <trkpt lat="42.13565" lon="9.08431">
        <ele>1775.6</ele>
        <time>2015-06-24T07:29:22Z</time>
      </trkpt>
      <trkpt lat="42.13566" lon="9.08432">
        <ele>1775.8</ele>
        <time>2015-06-24T07:29:27Z</time>
      </trkpt>
      <trkpt lat="42.13568" lon="9.08434">
        <ele>1776.8</ele>
        <time>2015-06-24T07:29:31Z</time>
      </trkpt>
      <trkpt lat="42.13569" lon="9.08433">
        <ele>1778.2</ele>
        <time>2015-06-24T07:29:38Z</time>
      </trkpt>
      <trkpt lat="42.1357" lon="9.08433">
        <ele>1779.2</ele>
        <time>2015-06-24T07:29:46Z</time>
      </trkpt>
      <trkpt lat="42.13571" lon="9.08434">
        <ele>1780.2</ele>
        <time>2015-06-24T07:29:52Z</time>
      </trkpt>
      <trkpt lat="42.13574" lon="9.08436">
        <ele>1781.6</ele>
        <time>2015-06-24T07:30:01Z</time>
      </trkpt>
      <trkpt lat="42.13574" lon="9.08437">
        <ele>1782.2</ele>
        <time>2015-06-24T07:30:08Z</time>
      </trkpt>
      <trkpt lat="42.13577" lon="9.08437">
        <ele>1783.6</ele>
        <time>2015-06-24T07:30:18Z</time>
      </trkpt>
      <trkpt lat="42.13579" lon="9.08438">
        <ele>1784.8</ele>
        <time>2015-06-24T07:30:27Z</time>
      </trkpt>
      <trkpt lat="42.1358" lon="9.08444">
        <ele>1785.8</ele>
        <time>2015-06-24T07:30:39Z</time>
      </trkpt>
      <trkpt lat="42.13584" lon="9.08449">
        <ele>1786.6</ele>
        <time>2015-06-24T07:30:48Z</time>
      </trkpt>
      <trkpt lat="42.13586" lon="9.08452">
        <ele>1787.4</ele>
        <time>2015-06-24T07:30:58Z</time>
      </trkpt>
      <trkpt lat="42.13589" lon="9.08455">
        <ele>1788.2</ele>
        <time>2015-06-24T07:31:04Z</time>
      </trkpt>
      <trkpt lat="42.13593" lon="9.08459">
        <ele>1789.6</ele>
        <time>2015-06-24T07:31:14Z</time>
      </trkpt>
      <trkpt lat="42.13596" lon="9.0846">
        <ele>1790.6</ele>
        <time>2015-06-24T07:31:22Z</time>
      </trkpt>
      <trkpt lat="42.13597" lon="9.08463">
        <ele>1791.6</ele>
        <time>2015-06-24T07:31:30Z</time>
      </trkpt>
      <trkpt lat="42.13599" lon="9.08468">
        <ele>1792.8</ele>
        <time>2015-06-24T07:31:41Z</time>
      </trkpt>
      <trkpt lat="42.13602" lon="9.08475">
        <ele>1793.6</ele>
        <time>2015-06-24T07:31:54Z</time>
      </trkpt>
      <trkpt lat="42.13606" lon="9.08492">
        <ele>1794.2</ele>
        <time>2015-06-24T07:32:29Z</time>
      </trkpt>
      <trkpt lat="42.13608" lon="9.08493">
        <ele>1795.4</ele>
        <time>2015-06-24T07:32:39Z</time>
      </trkpt>
      <trkpt lat="42.13612" lon="9.08495">
        <ele>1796</ele>
        <time>2015-06-24T07:32:48Z</time>
      </trkpt>
      <trkpt lat="42.13614" lon="9.08505">
        <ele>1797.2</ele>
        <time>2015-06-24T07:33:07Z</time>
      </trkpt>
      <trkpt lat="42.13615" lon="9.08511">
        <ele>1798.2</ele>
        <time>2015-06-24T07:33:19Z</time>
      </trkpt>
      <trkpt lat="42.13617" lon="9.08518">
        <ele>1799.2</ele>
        <time>2015-06-24T07:33:38Z</time>
      </trkpt>
      <trkpt lat="42.13619" lon="9.08521">
        <ele>1799.2</ele>
        <time>2015-06-24T07:33:44Z</time>
      </trkpt>
      <trkpt lat="42.1362" lon="9.08529">
        <ele>1800.8</ele>
        <time>2015-06-24T07:33:55Z</time>
      </trkpt>
      <trkpt lat="42.1362" lon="9.08536">
        <ele>1801.8</ele>
        <time>2015-06-24T07:34:08Z</time>
      </trkpt>
      <trkpt lat="42.13622" lon="9.0854">
        <ele>1802.8</ele>
        <time>2015-06-24T07:34:16Z</time>
      </trkpt>
      <trkpt lat="42.13623" lon="9.08542">
        <ele>1803.2</ele>
        <time>2015-06-24T07:34:21Z</time>
      </trkpt>
      <trkpt lat="42.13626" lon="9.08546">
        <ele>1804.6</ele>
        <time>2015-06-24T07:34:28Z</time>
      </trkpt>
      <trkpt lat="42.13627" lon="9.08549">
        <ele>1805.8</ele>
        <time>2015-06-24T07:34:37Z</time>
      </trkpt>
      <trkpt lat="42.13631" lon="9.08548">
        <ele>1806.8</ele>
        <time>2015-06-24T07:34:51Z</time>
      </trkpt>
      <trkpt lat="42.13632" lon="9.08547">
        <ele>1807.8</ele>
        <time>2015-06-24T07:35:01Z</time>
      </trkpt>
      <trkpt lat="42.13635" lon="9.0855">
        <ele>1808.8</ele>
        <time>2015-06-24T07:35:10Z</time>
      </trkpt>
      <trkpt lat="42.13637" lon="9.08545">
        <ele>1810</ele>
        <time>2015-06-24T07:35:22Z</time>
      </trkpt>
      <trkpt lat="42.13638" lon="9.08541">
        <ele>1810.2</ele>
        <time>2015-06-24T07:35:28Z</time>
      </trkpt>
      <trkpt lat="42.13639" lon="9.08536">
        <ele>1811.8</ele>
        <time>2015-06-24T07:35:38Z</time>
      </trkpt>
      <trkpt lat="42.13643" lon="9.08535">
        <ele>1812.6</ele>
        <time>2015-06-24T07:35:48Z</time>
      </trkpt>
      <trkpt lat="42.13645" lon="9.08538">
        <ele>1813.8</ele>
        <time>2015-06-24T07:35:59Z</time>
      </trkpt>
      <trkpt lat="42.13648" lon="9.08538">
        <ele>1814.6</ele>
        <time>2015-06-24T07:36:10Z</time>
      </trkpt>
      <trkpt lat="42.1365" lon="9.08536">
        <ele>1815.6</ele>
        <time>2015-06-24T07:36:23Z</time>
      </trkpt>
      <trkpt lat="42.13651" lon="9.08539">
        <ele>1816.2</ele>
        <time>2015-06-24T07:36:30Z</time>
      </trkpt>
      <trkpt lat="42.13652" lon="9.0854">
        <ele>1817.4</ele>
        <time>2015-06-24T07:36:38Z</time>
      </trkpt>
      <trkpt lat="42.13655" lon="9.08542">
        <ele>1818.2</ele>
        <time>2015-06-24T07:36:45Z</time>
      </trkpt>
      <trkpt lat="42.13657" lon="9.08542">
        <ele>1819.6</ele>
        <time>2015-06-24T07:36:54Z</time>
      </trkpt>
      <trkpt lat="42.13657" lon="9.08536">
        <ele>1820.8</ele>
        <time>2015-06-24T07:37:18Z</time>
      </trkpt>
      <trkpt lat="42.1366" lon="9.08535">
        <ele>1821.4</ele>
        <time>2015-06-24T07:37:26Z</time>
      </trkpt>
      <trkpt lat="42.13662" lon="9.08532">
        <ele>1822.2</ele>
        <time>2015-06-24T07:37:33Z</time>
      </trkpt>
      <trkpt lat="42.13662" lon="9.08527">
        <ele>1823.6</ele>
        <time>2015-06-24T07:37:42Z</time>
      </trkpt>
      <trkpt lat="42.13663" lon="9.08524">
        <ele>1824.2</ele>
        <time>2015-06-24T07:37:48Z</time>
      </trkpt>
      <trkpt lat="42.13666" lon="9.08524">
        <ele>1825.2</ele>
        <time>2015-06-24T07:37:55Z</time>
      </trkpt>
      <trkpt lat="42.13668" lon="9.08525">
        <ele>1826.2</ele>
        <time>2015-06-24T07:38:03Z</time>
      </trkpt>
      <trkpt lat="42.13668" lon="9.0852">
        <ele>1827.4</ele>
        <time>2015-06-24T07:38:11Z</time>
      </trkpt>
      <trkpt lat="42.13668" lon="9.08516">
        <ele>1828.4</ele>
        <time>2015-06-24T07:38:19Z</time>
      </trkpt>
      <trkpt lat="42.13671" lon="9.08514">
        <ele>1829.2</ele>
        <time>2015-06-24T07:38:31Z</time>
      </trkpt>
      <trkpt lat="42.13672" lon="9.08513">
        <ele>1830</ele>
        <time>2015-06-24T07:38:37Z</time>
      </trkpt>
      <trkpt lat="42.13675" lon="9.08517">
        <ele>1831.2</ele>
        <time>2015-06-24T07:38:48Z</time>
      </trkpt>
      <trkpt lat="42.13676" lon="9.08518">
        <ele>1832.6</ele>
        <time>2015-06-24T07:38:57Z</time>
      </trkpt>
      <trkpt lat="42.13678" lon="9.08515">
        <ele>1833.2</ele>
        <time>2015-06-24T07:39:05Z</time>
      </trkpt>
      <trkpt lat="42.13679" lon="9.08514">
        <ele>1834.4</ele>
        <time>2015-06-24T07:39:16Z</time>
      </trkpt>
      <trkpt lat="42.13681" lon="9.08514">
        <ele>1835.8</ele>
        <time>2015-06-24T07:39:27Z</time>
      </trkpt>
      <trkpt lat="42.13683" lon="9.08513">
        <ele>1836.4</ele>
        <time>2015-06-24T07:39:37Z</time>
      </trkpt>
      <trkpt lat="42.13684" lon="9.08513">
        <ele>1837.2</ele>
        <time>2015-06-24T07:39:43Z</time>
      </trkpt>
      <trkpt lat="42.13687" lon="9.08513">
        <ele>1838.6</ele>
        <time>2015-06-24T07:39:53Z</time>
      </trkpt>
      <trkpt lat="42.13688" lon="9.08513">
        <ele>1839.4</ele>
        <time>2015-06-24T07:40:02Z</time>
      </trkpt>
      <trkpt lat="42.1369" lon="9.08514">
        <ele>1840</ele>
        <time>2015-06-24T07:40:08Z</time>
      </trkpt>
      <trkpt lat="42.13691" lon="9.08512">
        <ele>1841.4</ele>
        <time>2015-06-24T07:40:17Z</time>
      </trkpt>
      <trkpt lat="42.13695" lon="9.08509">
        <ele>1842.6</ele>
        <time>2015-06-24T07:40:59Z</time>
      </trkpt>
      <trkpt lat="42.13696" lon="9.08507">
        <ele>1843.2</ele>
        <time>2015-06-24T07:41:07Z</time>
      </trkpt>
      <trkpt lat="42.13699" lon="9.08507">
        <ele>1844.2</ele>
        <time>2015-06-24T07:41:17Z</time>
      </trkpt>
      <trkpt lat="42.137" lon="9.08505">
        <ele>1844.8</ele>
        <time>2015-06-24T07:41:22Z</time>
      </trkpt>
      <trkpt lat="42.13701" lon="9.085">
        <ele>1846.4</ele>
        <time>2015-06-24T07:41:33Z</time>
      </trkpt>
      <trkpt lat="42.13701" lon="9.08501">
        <ele>1847.8</ele>
        <time>2015-06-24T07:42:01Z</time>
      </trkpt>
      <trkpt lat="42.13704" lon="9.08497">
        <ele>1848.6</ele>
        <time>2015-06-24T07:42:29Z</time>
      </trkpt>
      <trkpt lat="42.13706" lon="9.08497">
        <ele>1849.2</ele>
        <time>2015-06-24T07:42:36Z</time>
      </trkpt>
      <trkpt lat="42.13708" lon="9.08497">
        <ele>1850.2</ele>
        <time>2015-06-24T07:42:43Z</time>
      </trkpt>
      <trkpt lat="42.13709" lon="9.08495">
        <ele>1851.4</ele>
        <time>2015-06-24T07:42:52Z</time>
      </trkpt>
      <trkpt lat="42.13709" lon="9.08492">
        <ele>1852.2</ele>
        <time>2015-06-24T07:42:59Z</time>
      </trkpt>
      <trkpt lat="42.13709" lon="9.0849">
        <ele>1853.6</ele>
        <time>2015-06-24T07:43:10Z</time>
      </trkpt>
      <trkpt lat="42.1371" lon="9.08487">
        <ele>1854.4</ele>
        <time>2015-06-24T07:43:20Z</time>
      </trkpt>
      <trkpt lat="42.13712" lon="9.08486">
        <ele>1855.4</ele>
        <time>2015-06-24T07:43:28Z</time>
      </trkpt>
      <trkpt lat="42.13714" lon="9.08485">
        <ele>1856.4</ele>
        <time>2015-06-24T07:43:37Z</time>
      </trkpt>
      <trkpt lat="42.13715" lon="9.08482">
        <ele>1857.6</ele>
        <time>2015-06-24T07:43:47Z</time>
      </trkpt>
      <trkpt lat="42.13716" lon="9.0848">
        <ele>1858.2</ele>
        <time>2015-06-24T07:43:54Z</time>
      </trkpt>
      <trkpt lat="42.13717" lon="9.08477">
        <ele>1859.6</ele>
        <time>2015-06-24T07:44:05Z</time>
      </trkpt>
      <trkpt lat="42.13718" lon="9.08475">
        <ele>1860.6</ele>
        <time>2015-06-24T07:44:13Z</time>
      </trkpt>
      <trkpt lat="42.13721" lon="9.08473">
        <ele>1861.8</ele>
        <time>2015-06-24T07:44:25Z</time>
      </trkpt>
      <trkpt lat="42.13722" lon="9.0847">
        <ele>1862.6</ele>
        <time>2015-06-24T07:44:33Z</time>
      </trkpt>
      <trkpt lat="42.13723" lon="9.08468">
        <ele>1863.6</ele>
        <time>2015-06-24T07:44:44Z</time>
      </trkpt>
      <trkpt lat="42.13724" lon="9.08465">
        <ele>1864.8</ele>
        <time>2015-06-24T07:44:53Z</time>
      </trkpt>
      <trkpt lat="42.13723" lon="9.08462">
        <ele>1865.6</ele>
        <time>2015-06-24T07:45:04Z</time>
      </trkpt>
      <trkpt lat="42.13722" lon="9.08458">
        <ele>1866.8</ele>
        <time>2015-06-24T07:45:13Z</time>
      </trkpt>
      <trkpt lat="42.13723" lon="9.08455">
        <ele>1867.8</ele>
        <time>2015-06-24T07:45:20Z</time>
      </trkpt>
      <trkpt lat="42.13721" lon="9.0845">
        <ele>1868.8</ele>
        <time>2015-06-24T07:45:29Z</time>
      </trkpt>
      <trkpt lat="42.1372" lon="9.08444">
        <ele>1870</ele>
        <time>2015-06-24T07:45:41Z</time>
      </trkpt>
      <trkpt lat="42.1372" lon="9.08441">
        <ele>1870.6</ele>
        <time>2015-06-24T07:45:48Z</time>
      </trkpt>
      <trkpt lat="42.1372" lon="9.08437">
        <ele>1872</ele>
        <time>2015-06-24T07:45:57Z</time>
      </trkpt>
      <trkpt lat="42.13721" lon="9.08432">
        <ele>1872.8</ele>
        <time>2015-06-24T07:46:06Z</time>
      </trkpt>
      <trkpt lat="42.13721" lon="9.0843">
        <ele>1873.6</ele>
        <time>2015-06-24T07:46:13Z</time>
      </trkpt>
      <trkpt lat="42.13722" lon="9.0843">
        <ele>1875.2</ele>
        <time>2015-06-24T07:46:25Z</time>
      </trkpt>
      <trkpt lat="42.13722" lon="9.08428">
        <ele>1875.8</ele>
        <time>2015-06-24T07:46:33Z</time>
      </trkpt>
      <trkpt lat="42.13723" lon="9.08425">
        <ele>1876.8</ele>
        <time>2015-06-24T07:46:43Z</time>
      </trkpt>
      <trkpt lat="42.13725" lon="9.08425">
        <ele>1877.8</ele>
        <time>2015-06-24T07:46:51Z</time>
      </trkpt>
      <trkpt lat="42.13726" lon="9.08423">
        <ele>1879</ele>
        <time>2015-06-24T07:47:03Z</time>
      </trkpt>
      <trkpt lat="42.13727" lon="9.08423">
        <ele>1880</ele>
        <time>2015-06-24T07:47:17Z</time>
      </trkpt>
      <trkpt lat="42.13728" lon="9.08422">
        <ele>1880.8</ele>
        <time>2015-06-24T07:47:26Z</time>
      </trkpt>
      <trkpt lat="42.13726" lon="9.08418">
        <ele>1882</ele>
        <time>2015-06-24T07:47:40Z</time>
      </trkpt>
      <trkpt lat="42.13727" lon="9.08414">
        <ele>1883</ele>
        <time>2015-06-24T07:48:07Z</time>
      </trkpt>
      <trkpt lat="42.13724" lon="9.0841">
        <ele>1882.4</ele>
        <time>2015-06-24T07:48:34Z</time>
      </trkpt>
      <trkpt lat="42.13723" lon="9.08408">
        <ele>1881.8</ele>
        <time>2015-06-24T07:48:45Z</time>
      </trkpt>
      <trkpt lat="42.13722" lon="9.08405">
        <ele>1880.2</ele>
        <time>2015-06-24T07:48:55Z</time>
      </trkpt>
      <trkpt lat="42.13722" lon="9.084">
        <ele>1879.6</ele>
        <time>2015-06-24T07:49:01Z</time>
      </trkpt>
      <trkpt lat="42.13717" lon="9.08372">
        <ele>1877.4</ele>
        <time>2015-06-24T07:49:43Z</time>
      </trkpt>
      <trkpt lat="42.13716" lon="9.08369">
        <ele>1877.2</ele>
        <time>2015-06-24T07:49:47Z</time>
      </trkpt>
      <trkpt lat="42.13712" lon="9.08336">
        <ele>1875.4</ele>
        <time>2015-06-24T07:50:25Z</time>
      </trkpt>
      <trkpt lat="42.13712" lon="9.08333">
        <ele>1875.4</ele>
        <time>2015-06-24T07:50:27Z</time>
      </trkpt>
      <trkpt lat="42.13716" lon="9.08302">
        <ele>1875.8</ele>
        <time>2015-06-24T07:51:05Z</time>
      </trkpt>
      <trkpt lat="42.13717" lon="9.08296">
        <ele>1876.4</ele>
        <time>2015-06-24T07:51:13Z</time>
      </trkpt>
      <trkpt lat="42.13718" lon="9.08292">
        <ele>1877.4</ele>
        <time>2015-06-24T07:51:19Z</time>
      </trkpt>
      <trkpt lat="42.13718" lon="9.08287">
        <ele>1878.2</ele>
        <time>2015-06-24T07:51:26Z</time>
      </trkpt>
      <trkpt lat="42.13717" lon="9.08284">
        <ele>1879</ele>
        <time>2015-06-24T07:51:31Z</time>
      </trkpt>
      <trkpt lat="42.1372" lon="9.08279">
        <ele>1880.6</ele>
        <time>2015-06-24T07:51:42Z</time>
      </trkpt>
      <trkpt lat="42.13722" lon="9.08273">
        <ele>1881.6</ele>
        <time>2015-06-24T07:51:51Z</time>
      </trkpt>
      <trkpt lat="42.13725" lon="9.08259">
        <ele>1883</ele>
        <time>2015-06-24T07:52:13Z</time>
      </trkpt>
      <trkpt lat="42.13726" lon="9.08257">
        <ele>1883.4</ele>
        <time>2015-06-24T07:52:20Z</time>
      </trkpt>
      <trkpt lat="42.13727" lon="9.08252">
        <ele>1884.4</ele>
        <time>2015-06-24T07:52:27Z</time>
      </trkpt>
      <trkpt lat="42.13716" lon="9.08216">
        <ele>1885.6</ele>
        <time>2015-06-24T07:53:17Z</time>
      </trkpt>
      <trkpt lat="42.13715" lon="9.08206">
        <ele>1886.4</ele>
        <time>2015-06-24T07:53:30Z</time>
      </trkpt>
      <trkpt lat="42.13707" lon="9.08185">
        <ele>1887.4</ele>
        <time>2015-06-24T07:53:51Z</time>
      </trkpt>
      <trkpt lat="42.13703" lon="9.0817">
        <ele>1888</ele>
        <time>2015-06-24T07:54:11Z</time>
      </trkpt>
      <trkpt lat="42.13702" lon="9.08168">
        <ele>1888.6</ele>
        <time>2015-06-24T07:54:17Z</time>
      </trkpt>
      <trkpt lat="42.137" lon="9.0816">
        <ele>1890</ele>
        <time>2015-06-24T07:54:31Z</time>
      </trkpt>
      <trkpt lat="42.13698" lon="9.08157">
        <ele>1890.8</ele>
        <time>2015-06-24T07:54:39Z</time>
      </trkpt>
      <trkpt lat="42.13696" lon="9.08147">
        <ele>1892.4</ele>
        <time>2015-06-24T07:54:59Z</time>
      </trkpt>
      <trkpt lat="42.13698" lon="9.08147">
        <ele>1892.4</ele>
        <time>2015-06-24T07:55:07Z</time>
      </trkpt>
      <trkpt lat="42.13699" lon="9.08144">
        <ele>1893.8</ele>
        <time>2015-06-24T07:55:17Z</time>
      </trkpt>
      <trkpt lat="42.137" lon="9.0814">
        <ele>1894.4</ele>
        <time>2015-06-24T07:55:27Z</time>
      </trkpt>
      <trkpt lat="42.13698" lon="9.08134">
        <ele>1896</ele>
        <time>2015-06-24T07:55:43Z</time>
      </trkpt>
      <trkpt lat="42.13697" lon="9.08129">
        <ele>1896.8</ele>
        <time>2015-06-24T07:55:53Z</time>
      </trkpt>
      <trkpt lat="42.13697" lon="9.08128">
        <ele>1897.4</ele>
        <time>2015-06-24T07:56:05Z</time>
      </trkpt>
      <trkpt lat="42.13698" lon="9.08123">
        <ele>1898.6</ele>
        <time>2015-06-24T07:56:25Z</time>
      </trkpt>
      <trkpt lat="42.13699" lon="9.08122">
        <ele>1899.2</ele>
        <time>2015-06-24T07:56:33Z</time>
      </trkpt>
      <trkpt lat="42.13701" lon="9.0812">
        <ele>1900.6</ele>
        <time>2015-06-24T07:56:46Z</time>
      </trkpt>
      <trkpt lat="42.13702" lon="9.08117">
        <ele>1901</ele>
        <time>2015-06-24T07:56:52Z</time>
      </trkpt>
      <trkpt lat="42.13703" lon="9.08115">
        <ele>1902.4</ele>
        <time>2015-06-24T07:57:01Z</time>
      </trkpt>
      <trkpt lat="42.137" lon="9.08107">
        <ele>1903.6</ele>
        <time>2015-06-24T07:57:22Z</time>
      </trkpt>
      <trkpt lat="42.13699" lon="9.08104">
        <ele>1904</ele>
        <time>2015-06-24T07:57:28Z</time>
      </trkpt>
      <trkpt lat="42.13701" lon="9.08106">
        <ele>1905.4</ele>
        <time>2015-06-24T07:57:56Z</time>
      </trkpt>
      <trkpt lat="42.13702" lon="9.08104">
        <ele>1905.8</ele>
        <time>2015-06-24T07:58:01Z</time>
      </trkpt>
      <trkpt lat="42.13701" lon="9.08098">
        <ele>1907.6</ele>
        <time>2015-06-24T07:58:14Z</time>
      </trkpt>
      <trkpt lat="42.137" lon="9.08095">
        <ele>1908.2</ele>
        <time>2015-06-24T07:58:21Z</time>
      </trkpt>
      <trkpt lat="42.13701" lon="9.08092">
        <ele>1909.2</ele>
        <time>2015-06-24T07:58:31Z</time>
      </trkpt>
      <trkpt lat="42.13699" lon="9.08087">
        <ele>1910.4</ele>
        <time>2015-06-24T07:58:51Z</time>
      </trkpt>
      <trkpt lat="42.13699" lon="9.08085">
        <ele>1911.2</ele>
        <time>2015-06-24T07:58:58Z</time>
      </trkpt>
      <trkpt lat="42.13692" lon="9.0807">
        <ele>1911</ele>
        <time>2015-06-24T07:59:34Z</time>
      </trkpt>
      <trkpt lat="42.13682" lon="9.08029">
        <ele>1911.2</ele>
        <time>2015-06-24T08:00:45Z</time>
      </trkpt>
      <trkpt lat="42.13682" lon="9.08025">
        <ele>1911.8</ele>
        <time>2015-06-24T08:00:54Z</time>
      </trkpt>
      <trkpt lat="42.13679" lon="9.0799">
        <ele>1912.6</ele>
        <time>2015-06-24T08:01:48Z</time>
      </trkpt>
      <trkpt lat="42.13678" lon="9.07973">
        <ele>1913.8</ele>
        <time>2015-06-24T08:02:17Z</time>
      </trkpt>
      <trkpt lat="42.13677" lon="9.07955">
        <ele>1914.8</ele>
        <time>2015-06-24T08:02:42Z</time>
      </trkpt>
      <trkpt lat="42.13674" lon="9.07945">
        <ele>1915.2</ele>
        <time>2015-06-24T08:02:56Z</time>
      </trkpt>
      <trkpt lat="42.13673" lon="9.07939">
        <ele>1915.6</ele>
        <time>2015-06-24T08:03:04Z</time>
      </trkpt>
      <trkpt lat="42.13672" lon="9.07923">
        <ele>1915</ele>
        <time>2015-06-24T08:03:32Z</time>
      </trkpt>
      <trkpt lat="42.13662" lon="9.07884">
        <ele>1914.4</ele>
        <time>2015-06-24T08:04:25Z</time>
      </trkpt>
      <trkpt lat="42.13665" lon="9.07881">
        <ele>1915</ele>
        <time>2015-06-24T08:04:32Z</time>
      </trkpt>
      <trkpt lat="42.13667" lon="9.0788">
        <ele>1916</ele>
        <time>2015-06-24T08:04:38Z</time>
      </trkpt>
      <trkpt lat="42.1366" lon="9.07871">
        <ele>1917.6</ele>
        <time>2015-06-24T08:04:53Z</time>
      </trkpt>
      <trkpt lat="42.1366" lon="9.07865">
        <ele>1918</ele>
        <time>2015-06-24T08:05:02Z</time>
      </trkpt>
      <trkpt lat="42.13662" lon="9.07864">
        <ele>1918.8</ele>
        <time>2015-06-24T08:05:09Z</time>
      </trkpt>
      <trkpt lat="42.13664" lon="9.07866">
        <ele>1920.2</ele>
        <time>2015-06-24T08:05:18Z</time>
      </trkpt>
      <trkpt lat="42.13668" lon="9.07867">
        <ele>1921</ele>
        <time>2015-06-24T08:05:45Z</time>
      </trkpt>
      <trkpt lat="42.13671" lon="9.07866">
        <ele>1922.2</ele>
        <time>2015-06-24T08:05:58Z</time>
      </trkpt>
      <trkpt lat="42.13674" lon="9.07866">
        <ele>1923</ele>
        <time>2015-06-24T08:06:06Z</time>
      </trkpt>
      <trkpt lat="42.13675" lon="9.07865">
        <ele>1924</ele>
        <time>2015-06-24T08:06:15Z</time>
      </trkpt>
      <trkpt lat="42.13674" lon="9.07861">
        <ele>1924.6</ele>
        <time>2015-06-24T08:06:21Z</time>
      </trkpt>
      <trkpt lat="42.13675" lon="9.0786">
        <ele>1925.4</ele>
        <time>2015-06-24T08:06:25Z</time>
      </trkpt>
      <trkpt lat="42.13674" lon="9.07857">
        <ele>1926</ele>
        <time>2015-06-24T08:06:28Z</time>
      </trkpt>
      <trkpt lat="42.13675" lon="9.07854">
        <ele>1927</ele>
        <time>2015-06-24T08:06:40Z</time>
      </trkpt>
      <trkpt lat="42.13677" lon="9.07854">
        <ele>1928</ele>
        <time>2015-06-24T08:06:48Z</time>
      </trkpt>
      <trkpt lat="42.13678" lon="9.07853">
        <ele>1929.2</ele>
        <time>2015-06-24T08:07:01Z</time>
      </trkpt>
      <trkpt lat="42.13677" lon="9.0785">
        <ele>1929.8</ele>
        <time>2015-06-24T08:07:07Z</time>
      </trkpt>
      <trkpt lat="42.13675" lon="9.07845">
        <ele>1931.4</ele>
        <time>2015-06-24T08:07:16Z</time>
      </trkpt>
      <trkpt lat="42.13673" lon="9.07841">
        <ele>1932.4</ele>
        <time>2015-06-24T08:07:26Z</time>
      </trkpt>
      <trkpt lat="42.13676" lon="9.07835">
        <ele>1932.8</ele>
        <time>2015-06-24T08:08:25Z</time>
      </trkpt>
      <trkpt lat="42.1368" lon="9.07837">
        <ele>1933.8</ele>
        <time>2015-06-24T08:08:42Z</time>
      </trkpt>
      <trkpt lat="42.13682" lon="9.07838">
        <ele>1935.2</ele>
        <time>2015-06-24T08:08:53Z</time>
      </trkpt>
      <trkpt lat="42.13683" lon="9.07837">
        <ele>1935.6</ele>
        <time>2015-06-24T08:08:58Z</time>
      </trkpt>
      <trkpt lat="42.13682" lon="9.07833">
        <ele>1937.4</ele>
        <time>2015-06-24T08:09:09Z</time>
      </trkpt>
      <trkpt lat="42.13682" lon="9.07833">
        <ele>1938</ele>
        <time>2015-06-24T08:09:16Z</time>
      </trkpt>
      <trkpt lat="42.13683" lon="9.0783">
        <ele>1939</ele>
        <time>2015-06-24T08:09:36Z</time>
      </trkpt>
      <trkpt lat="42.13685" lon="9.0783">
        <ele>1940.4</ele>
        <time>2015-06-24T08:09:46Z</time>
      </trkpt>
      <trkpt lat="42.13686" lon="9.07828">
        <ele>1941.2</ele>
        <time>2015-06-24T08:09:53Z</time>
      </trkpt>
      <trkpt lat="42.13687" lon="9.07827">
        <ele>1942.4</ele>
        <time>2015-06-24T08:10:03Z</time>
      </trkpt>
      <trkpt lat="42.13689" lon="9.07825">
        <ele>1943.8</ele>
        <time>2015-06-24T08:10:13Z</time>
      </trkpt>
      <trkpt lat="42.1369" lon="9.07822">
        <ele>1944.4</ele>
        <time>2015-06-24T08:10:21Z</time>
      </trkpt>
      <trkpt lat="42.13691" lon="9.07822">
        <ele>1945.6</ele>
        <time>2015-06-24T08:10:30Z</time>
      </trkpt>
      <trkpt lat="42.13691" lon="9.07818">
        <ele>1946.6</ele>
        <time>2015-06-24T08:10:39Z</time>
      </trkpt>
      <trkpt lat="42.13689" lon="9.07815">
        <ele>1947.6</ele>
        <time>2015-06-24T08:10:45Z</time>
      </trkpt>
      <trkpt lat="42.13683" lon="9.07808">
        <ele>1949.2</ele>
        <time>2015-06-24T08:11:03Z</time>
      </trkpt>
      <trkpt lat="42.13685" lon="9.07806">
        <ele>1950.2</ele>
        <time>2015-06-24T08:11:24Z</time>
      </trkpt>
      <trkpt lat="42.13685" lon="9.07802">
        <ele>1951.4</ele>
        <time>2015-06-24T08:11:38Z</time>
      </trkpt>
      <trkpt lat="42.13683" lon="9.078">
        <ele>1951.6</ele>
        <time>2015-06-24T08:11:45Z</time>
      </trkpt>
      <trkpt lat="42.13683" lon="9.07795">
        <ele>1953</ele>
        <time>2015-06-24T08:12:06Z</time>
      </trkpt>
      <trkpt lat="42.13682" lon="9.07793">
        <ele>1953.6</ele>
        <time>2015-06-24T08:12:10Z</time>
      </trkpt>
      <trkpt lat="42.13681" lon="9.0779">
        <ele>1954.2</ele>
        <time>2015-06-24T08:12:15Z</time>
      </trkpt>
      <trkpt lat="42.13678" lon="9.07788">
        <ele>1955.4</ele>
        <time>2015-06-24T08:12:33Z</time>
      </trkpt>
      <trkpt lat="42.13677" lon="9.07786">
        <ele>1955.8</ele>
        <time>2015-06-24T08:12:39Z</time>
      </trkpt>
      <trkpt lat="42.13677" lon="9.07782">
        <ele>1957.4</ele>
        <time>2015-06-24T08:12:52Z</time>
      </trkpt>
      <trkpt lat="42.13677" lon="9.07778">
        <ele>1958.8</ele>
        <time>2015-06-24T08:13:03Z</time>
      </trkpt>
      <trkpt lat="42.13677" lon="9.07777">
        <ele>1959.2</ele>
        <time>2015-06-24T08:13:11Z</time>
      </trkpt>
      <trkpt lat="42.13677" lon="9.07775">
        <ele>1960.6</ele>
        <time>2015-06-24T08:13:21Z</time>
      </trkpt>
      <trkpt lat="42.13677" lon="9.07768">
        <ele>1961.8</ele>
        <time>2015-06-24T08:13:43Z</time>
      </trkpt>
      <trkpt lat="42.13676" lon="9.07765">
        <ele>1962.8</ele>
        <time>2015-06-24T08:13:50Z</time>
      </trkpt>
      <trkpt lat="42.13675" lon="9.07757">
        <ele>1963.8</ele>
        <time>2015-06-24T08:14:06Z</time>
      </trkpt>
      <trkpt lat="42.13674" lon="9.07754">
        <ele>1964.6</ele>
        <time>2015-06-24T08:14:14Z</time>
      </trkpt>
      <trkpt lat="42.1367" lon="9.07748">
        <ele>1966</ele>
        <time>2015-06-24T08:14:29Z</time>
      </trkpt>
      <trkpt lat="42.1367" lon="9.07744">
        <ele>1967</ele>
        <time>2015-06-24T08:14:39Z</time>
      </trkpt>
      <trkpt lat="42.13669" lon="9.07741">
        <ele>1968.2</ele>
        <time>2015-06-24T08:14:48Z</time>
      </trkpt>
      <trkpt lat="42.13669" lon="9.0774">
        <ele>1969.4</ele>
        <time>2015-06-24T08:14:58Z</time>
      </trkpt>
      <trkpt lat="42.13671" lon="9.07738">
        <ele>1970.4</ele>
        <time>2015-06-24T08:15:09Z</time>
      </trkpt>
      <trkpt lat="42.13673" lon="9.07736">
        <ele>1971.4</ele>
        <time>2015-06-24T08:15:18Z</time>
      </trkpt>
      <trkpt lat="42.13671" lon="9.0773">
        <ele>1972.8</ele>
        <time>2015-06-24T08:15:31Z</time>
      </trkpt>
      <trkpt lat="42.13669" lon="9.07725">
        <ele>1973.6</ele>
        <time>2015-06-24T08:15:41Z</time>
      </trkpt>
      <trkpt lat="42.13669" lon="9.07726">
        <ele>1974.2</ele>
        <time>2015-06-24T08:15:46Z</time>
      </trkpt>
      <trkpt lat="42.13672" lon="9.07729">
        <ele>1975.8</ele>
        <time>2015-06-24T08:16:00Z</time>
      </trkpt>
      <trkpt lat="42.13674" lon="9.07728">
        <ele>1977.2</ele>
        <time>2015-06-24T08:16:11Z</time>
      </trkpt>
      <trkpt lat="42.13677" lon="9.0773">
        <ele>1978.4</ele>
        <time>2015-06-24T08:16:25Z</time>
      </trkpt>
      <trkpt lat="42.13679" lon="9.07728">
        <ele>1979.8</ele>
        <time>2015-06-24T08:16:40Z</time>
      </trkpt>
      <trkpt lat="42.13679" lon="9.07726">
        <ele>1980.8</ele>
        <time>2015-06-24T08:16:51Z</time>
      </trkpt>
      <trkpt lat="42.13674" lon="9.0772">
        <ele>1981.6</ele>
        <time>2015-06-24T08:19:57Z</time>
      </trkpt>
      <trkpt lat="42.13673" lon="9.07717">
        <ele>1981.4</ele>
        <time>2015-06-24T08:22:30Z</time>
      </trkpt>
      <trkpt lat="42.13677" lon="9.07724">
        <ele>1980.2</ele>
        <time>2015-06-24T08:26:16Z</time>
      </trkpt>
      <trkpt lat="42.13676" lon="9.07722">
        <ele>1980.2</ele>
        <time>2015-06-24T08:27:22Z</time>
      </trkpt>
      <trkpt lat="42.13676" lon="9.0772">
        <ele>1980.6</ele>
        <time>2015-06-24T08:27:51Z</time>
      </trkpt>
      <trkpt lat="42.13677" lon="9.07719">
        <ele>1980.2</ele>
        <time>2015-06-24T08:32:10Z</time>
      </trkpt>
      <trkpt lat="42.13679" lon="9.07717">
        <ele>1980</ele>
        <time>2015-06-24T08:33:03Z</time>
      </trkpt>
      <trkpt lat="42.13681" lon="9.07712">
        <ele>1979.2</ele>
        <time>2015-06-24T08:33:10Z</time>
      </trkpt>
      <trkpt lat="42.13686" lon="9.07704">
        <ele>1977.6</ele>
        <time>2015-06-24T08:33:23Z</time>
      </trkpt>
      <trkpt lat="42.13687" lon="9.07695">
        <ele>1976</ele>
        <time>2015-06-24T08:34:40Z</time>
      </trkpt>
      <trkpt lat="42.13687" lon="9.07691">
        <ele>1975.2</ele>
        <time>2015-06-24T08:34:50Z</time>
      </trkpt>
      <trkpt lat="42.13688" lon="9.07686">
        <ele>1973.8</ele>
        <time>2015-06-24T08:35:10Z</time>
      </trkpt>
      <trkpt lat="42.13688" lon="9.07684">
        <ele>1973</ele>
        <time>2015-06-24T08:35:18Z</time>
      </trkpt>
      <trkpt lat="42.1369" lon="9.07681">
        <ele>1972</ele>
        <time>2015-06-24T08:35:26Z</time>
      </trkpt>
      <trkpt lat="42.13689" lon="9.07677">
        <ele>1970.6</ele>
        <time>2015-06-24T08:35:36Z</time>
      </trkpt>
      <trkpt lat="42.13691" lon="9.07675">
        <ele>1969.6</ele>
        <time>2015-06-24T08:35:45Z</time>
      </trkpt>
      <trkpt lat="42.13691" lon="9.07668">
        <ele>1968</ele>
        <time>2015-06-24T08:36:31Z</time>
      </trkpt>
      <trkpt lat="42.1369" lon="9.07665">
        <ele>1967.6</ele>
        <time>2015-06-24T08:36:36Z</time>
      </trkpt>
      <trkpt lat="42.1369" lon="9.07663">
        <ele>1966.4</ele>
        <time>2015-06-24T08:36:42Z</time>
      </trkpt>
      <trkpt lat="42.13692" lon="9.07662">
        <ele>1964.8</ele>
        <time>2015-06-24T08:36:52Z</time>
      </trkpt>
      <trkpt lat="42.13695" lon="9.07662">
        <ele>1964</ele>
        <time>2015-06-24T08:36:58Z</time>
      </trkpt>
      <trkpt lat="42.13698" lon="9.07662">
        <ele>1962.8</ele>
        <time>2015-06-24T08:37:05Z</time>
      </trkpt>
      <trkpt lat="42.13698" lon="9.07661">
        <ele>1961.6</ele>
        <time>2015-06-24T08:37:12Z</time>
      </trkpt>
      <trkpt lat="42.13696" lon="9.07656">
        <ele>1960.2</ele>
        <time>2015-06-24T08:37:20Z</time>
      </trkpt>
      <trkpt lat="42.13698" lon="9.07656">
        <ele>1958.8</ele>
        <time>2015-06-24T08:37:30Z</time>
      </trkpt>
      <trkpt lat="42.137" lon="9.07655">
        <ele>1958.2</ele>
        <time>2015-06-24T08:37:38Z</time>
      </trkpt>
      <trkpt lat="42.13702" lon="9.07655">
        <ele>1957.8</ele>
        <time>2015-06-24T08:37:43Z</time>
      </trkpt>
      <trkpt lat="42.137" lon="9.07653">
        <ele>1956.6</ele>
        <time>2015-06-24T08:37:52Z</time>
      </trkpt>
      <trkpt lat="42.13702" lon="9.07653">
        <ele>1955.6</ele>
        <time>2015-06-24T08:38:02Z</time>
      </trkpt>
      <trkpt lat="42.13704" lon="9.07653">
        <ele>1954.4</ele>
        <time>2015-06-24T08:38:12Z</time>
      </trkpt>
      <trkpt lat="42.13707" lon="9.07651">
        <ele>1953</ele>
        <time>2015-06-24T08:38:24Z</time>
      </trkpt>
      <trkpt lat="42.13709" lon="9.07651">
        <ele>1952.8</ele>
        <time>2015-06-24T08:38:30Z</time>
      </trkpt>
      <trkpt lat="42.13711" lon="9.07649">
        <ele>1951.6</ele>
        <time>2015-06-24T08:38:36Z</time>
      </trkpt>
      <trkpt lat="42.13708" lon="9.07644">
        <ele>1950</ele>
        <time>2015-06-24T08:38:46Z</time>
      </trkpt>
      <trkpt lat="42.13704" lon="9.07641">
        <ele>1948.8</ele>
        <time>2015-06-24T08:38:57Z</time>
      </trkpt>
      <trkpt lat="42.13705" lon="9.07638">
        <ele>1947.6</ele>
        <time>2015-06-24T08:39:08Z</time>
      </trkpt>
      <trkpt lat="42.13706" lon="9.07636">
        <ele>1947</ele>
        <time>2015-06-24T08:39:15Z</time>
      </trkpt>
      <trkpt lat="42.13705" lon="9.07635">
        <ele>1945.2</ele>
        <time>2015-06-24T08:39:44Z</time>
      </trkpt>
      <trkpt lat="42.13705" lon="9.07631">
        <ele>1944.2</ele>
        <time>2015-06-24T08:39:56Z</time>
      </trkpt>
      <trkpt lat="42.13708" lon="9.07631">
        <ele>1943.2</ele>
        <time>2015-06-24T08:40:06Z</time>
      </trkpt>
      <trkpt lat="42.1371" lon="9.07632">
        <ele>1942.6</ele>
        <time>2015-06-24T08:40:11Z</time>
      </trkpt>
      <trkpt lat="42.13712" lon="9.07631">
        <ele>1940.8</ele>
        <time>2015-06-24T08:40:24Z</time>
      </trkpt>
      <trkpt lat="42.13712" lon="9.0763">
        <ele>1940</ele>
        <time>2015-06-24T08:40:31Z</time>
      </trkpt>
      <trkpt lat="42.13713" lon="9.07628">
        <ele>1938.8</ele>
        <time>2015-06-24T08:40:42Z</time>
      </trkpt>
      <trkpt lat="42.13712" lon="9.07626">
        <ele>1937.8</ele>
        <time>2015-06-24T08:40:49Z</time>
      </trkpt>
      <trkpt lat="42.13712" lon="9.07624">
        <ele>1936.6</ele>
        <time>2015-06-24T08:40:58Z</time>
      </trkpt>
      <trkpt lat="42.1371" lon="9.07621">
        <ele>1935</ele>
        <time>2015-06-24T08:41:11Z</time>
      </trkpt>
      <trkpt lat="42.13709" lon="9.07617">
        <ele>1934</ele>
        <time>2015-06-24T08:41:23Z</time>
      </trkpt>
      <trkpt lat="42.13711" lon="9.07614">
        <ele>1933</ele>
        <time>2015-06-24T08:41:42Z</time>
      </trkpt>
      <trkpt lat="42.13714" lon="9.07613">
        <ele>1931.6</ele>
        <time>2015-06-24T08:41:56Z</time>
      </trkpt>
      <trkpt lat="42.13713" lon="9.07612">
        <ele>1931</ele>
        <time>2015-06-24T08:42:03Z</time>
      </trkpt>
      <trkpt lat="42.13716" lon="9.07612">
        <ele>1929.8</ele>
        <time>2015-06-24T08:42:10Z</time>
      </trkpt>
      <trkpt lat="42.13718" lon="9.07612">
        <ele>1928.6</ele>
        <time>2015-06-24T08:42:19Z</time>
      </trkpt>
      <trkpt lat="42.1372" lon="9.0761">
        <ele>1927</ele>
        <time>2015-06-24T08:42:28Z</time>
      </trkpt>
      <trkpt lat="42.13721" lon="9.07607">
        <ele>1925.4</ele>
        <time>2015-06-24T08:42:51Z</time>
      </trkpt>
      <trkpt lat="42.13722" lon="9.07605">
        <ele>1925</ele>
        <time>2015-06-24T08:42:58Z</time>
      </trkpt>
      <trkpt lat="42.13725" lon="9.07605">
        <ele>1924</ele>
        <time>2015-06-24T08:43:04Z</time>
      </trkpt>
      <trkpt lat="42.13727" lon="9.07603">
        <ele>1922.8</ele>
        <time>2015-06-24T08:43:10Z</time>
      </trkpt>
      <trkpt lat="42.1373" lon="9.07603">
        <ele>1921.2</ele>
        <time>2015-06-24T08:43:20Z</time>
      </trkpt>
      <trkpt lat="42.13731" lon="9.076">
        <ele>1920.6</ele>
        <time>2015-06-24T08:43:26Z</time>
      </trkpt>
      <trkpt lat="42.13734" lon="9.07597">
        <ele>1919</ele>
        <time>2015-06-24T08:43:34Z</time>
      </trkpt>
      <trkpt lat="42.13738" lon="9.07596">
        <ele>1918</ele>
        <time>2015-06-24T08:43:44Z</time>
      </trkpt>
      <trkpt lat="42.13741" lon="9.07595">
        <ele>1917</ele>
        <time>2015-06-24T08:43:51Z</time>
      </trkpt>
      <trkpt lat="42.13745" lon="9.07594">
        <ele>1916</ele>
        <time>2015-06-24T08:43:57Z</time>
      </trkpt>
      <trkpt lat="42.13748" lon="9.07595">
        <ele>1915</ele>
        <time>2015-06-24T08:44:02Z</time>
      </trkpt>
      <trkpt lat="42.13751" lon="9.07595">
        <ele>1913</ele>
        <time>2015-06-24T08:44:18Z</time>
      </trkpt>
      <trkpt lat="42.13752" lon="9.07593">
        <ele>1912.4</ele>
        <time>2015-06-24T08:44:29Z</time>
      </trkpt>
      <trkpt lat="42.13753" lon="9.07592">
        <ele>1910.8</ele>
        <time>2015-06-24T08:44:43Z</time>
      </trkpt>
      <trkpt lat="42.13751" lon="9.07591">
        <ele>1909.8</ele>
        <time>2015-06-24T08:44:51Z</time>
      </trkpt>
      <trkpt lat="42.1375" lon="9.07587">
        <ele>1909</ele>
        <time>2015-06-24T08:44:58Z</time>
      </trkpt>
      <trkpt lat="42.13749" lon="9.07586">
        <ele>1908</ele>
        <time>2015-06-24T08:45:04Z</time>
      </trkpt>
      <trkpt lat="42.13748" lon="9.07584">
        <ele>1906.6</ele>
        <time>2015-06-24T08:45:13Z</time>
      </trkpt>
      <trkpt lat="42.1375" lon="9.07581">
        <ele>1905.8</ele>
        <time>2015-06-24T08:45:19Z</time>
      </trkpt>
      <trkpt lat="42.13753" lon="9.07583">
        <ele>1904.6</ele>
        <time>2015-06-24T08:45:26Z</time>
      </trkpt>
      <trkpt lat="42.13754" lon="9.0758">
        <ele>1903.4</ele>
        <time>2015-06-24T08:45:33Z</time>
      </trkpt>
      <trkpt lat="42.13755" lon="9.0758">
        <ele>1902.4</ele>
        <time>2015-06-24T08:45:39Z</time>
      </trkpt>
      <trkpt lat="42.13754" lon="9.07576">
        <ele>1900.6</ele>
        <time>2015-06-24T08:45:55Z</time>
      </trkpt>
      <trkpt lat="42.13756" lon="9.07575">
        <ele>1900</ele>
        <time>2015-06-24T08:46:01Z</time>
      </trkpt>
      <trkpt lat="42.13757" lon="9.07574">
        <ele>1898.8</ele>
        <time>2015-06-24T08:46:07Z</time>
      </trkpt>
      <trkpt lat="42.13758" lon="9.07573">
        <ele>1898.2</ele>
        <time>2015-06-24T08:46:10Z</time>
      </trkpt>
      <trkpt lat="42.1376" lon="9.07571">
        <ele>1897.8</ele>
        <time>2015-06-24T08:46:15Z</time>
      </trkpt>
      <trkpt lat="42.1377" lon="9.07568">
        <ele>1895.8</ele>
        <time>2015-06-24T08:46:36Z</time>
      </trkpt>
      <trkpt lat="42.13772" lon="9.07567">
        <ele>1895.6</ele>
        <time>2015-06-24T08:46:40Z</time>
      </trkpt>
      <trkpt lat="42.13774" lon="9.07563">
        <ele>1894.2</ele>
        <time>2015-06-24T08:46:53Z</time>
      </trkpt>
      <trkpt lat="42.13784" lon="9.07567">
        <ele>1894.2</ele>
        <time>2015-06-24T08:47:39Z</time>
      </trkpt>
      <trkpt lat="42.13783" lon="9.07567">
        <ele>1893.6</ele>
        <time>2015-06-24T08:48:05Z</time>
      </trkpt>
      <trkpt lat="42.13785" lon="9.07571">
        <ele>1893</ele>
        <time>2015-06-24T08:48:25Z</time>
      </trkpt>
      <trkpt lat="42.13786" lon="9.07571">
        <ele>1891.6</ele>
        <time>2015-06-24T08:48:41Z</time>
      </trkpt>
      <trkpt lat="42.13787" lon="9.07571">
        <ele>1891</ele>
        <time>2015-06-24T08:48:49Z</time>
      </trkpt>
      <trkpt lat="42.13789" lon="9.07568">
        <ele>1889.8</ele>
        <time>2015-06-24T08:48:56Z</time>
      </trkpt>
      <trkpt lat="42.13793" lon="9.07569">
        <ele>1889</ele>
        <time>2015-06-24T08:49:01Z</time>
      </trkpt>
      <trkpt lat="42.13806" lon="9.07579">
        <ele>1887.2</ele>
        <time>2015-06-24T08:49:50Z</time>
      </trkpt>
      <trkpt lat="42.1381" lon="9.07579">
        <ele>1886</ele>
        <time>2015-06-24T08:49:58Z</time>
      </trkpt>
      <trkpt lat="42.13814" lon="9.07581">
        <ele>1884.8</ele>
        <time>2015-06-24T08:50:04Z</time>
      </trkpt>
      <trkpt lat="42.1382" lon="9.07586">
        <ele>1883.4</ele>
        <time>2015-06-24T08:50:16Z</time>
      </trkpt>
      <trkpt lat="42.1382" lon="9.07582">
        <ele>1882.6</ele>
        <time>2015-06-24T08:50:24Z</time>
      </trkpt>
      <trkpt lat="42.13821" lon="9.07579">
        <ele>1881.4</ele>
        <time>2015-06-24T08:50:31Z</time>
      </trkpt>
      <trkpt lat="42.13822" lon="9.07577">
        <ele>1880.6</ele>
        <time>2015-06-24T08:50:37Z</time>
      </trkpt>
      <trkpt lat="42.13823" lon="9.07577">
        <ele>1880.4</ele>
        <time>2015-06-24T08:50:39Z</time>
      </trkpt>
      <trkpt lat="42.13825" lon="9.07578">
        <ele>1878.8</ele>
        <time>2015-06-24T08:50:48Z</time>
      </trkpt>
      <trkpt lat="42.13827" lon="9.07574">
        <ele>1878.2</ele>
        <time>2015-06-24T08:50:55Z</time>
      </trkpt>
      <trkpt lat="42.13829" lon="9.07573">
        <ele>1877.6</ele>
        <time>2015-06-24T08:51:00Z</time>
      </trkpt>
      <trkpt lat="42.13833" lon="9.07574">
        <ele>1876</ele>
        <time>2015-06-24T08:51:05Z</time>
      </trkpt>
      <trkpt lat="42.13837" lon="9.07576">
        <ele>1874.8</ele>
        <time>2015-06-24T08:51:11Z</time>
      </trkpt>
      <trkpt lat="42.13841" lon="9.07579">
        <ele>1874</ele>
        <time>2015-06-24T08:51:17Z</time>
      </trkpt>
      <trkpt lat="42.13846" lon="9.07581">
        <ele>1872.2</ele>
        <time>2015-06-24T08:51:25Z</time>
      </trkpt>
      <trkpt lat="42.13848" lon="9.07583">
        <ele>1870.6</ele>
        <time>2015-06-24T08:51:34Z</time>
      </trkpt>
      <trkpt lat="42.1385" lon="9.07579">
        <ele>1869.8</ele>
        <time>2015-06-24T08:51:49Z</time>
      </trkpt>
      <trkpt lat="42.13852" lon="9.07578">
        <ele>1869.4</ele>
        <time>2015-06-24T08:51:52Z</time>
      </trkpt>
      <trkpt lat="42.13854" lon="9.07579">
        <ele>1869</ele>
        <time>2015-06-24T08:51:56Z</time>
      </trkpt>
      <trkpt lat="42.13857" lon="9.0758">
        <ele>1867.6</ele>
        <time>2015-06-24T08:52:00Z</time>
      </trkpt>
      <trkpt lat="42.13857" lon="9.07574">
        <ele>1865</ele>
        <time>2015-06-24T08:52:09Z</time>
      </trkpt>
      <trkpt lat="42.13858" lon="9.07571">
        <ele>1864.4</ele>
        <time>2015-06-24T08:52:15Z</time>
      </trkpt>
      <trkpt lat="42.1386" lon="9.07566">
        <ele>1863</ele>
        <time>2015-06-24T08:52:23Z</time>
      </trkpt>
      <trkpt lat="42.13864" lon="9.07567">
        <ele>1862</ele>
        <time>2015-06-24T08:52:30Z</time>
      </trkpt>
      <trkpt lat="42.13866" lon="9.07567">
        <ele>1860.6</ele>
        <time>2015-06-24T08:52:36Z</time>
      </trkpt>
      <trkpt lat="42.13868" lon="9.07563">
        <ele>1859.2</ele>
        <time>2015-06-24T08:52:44Z</time>
      </trkpt>
      <trkpt lat="42.1387" lon="9.07565">
        <ele>1858.6</ele>
        <time>2015-06-24T08:52:49Z</time>
      </trkpt>
      <trkpt lat="42.13873" lon="9.07565">
        <ele>1857</ele>
        <time>2015-06-24T08:52:58Z</time>
      </trkpt>
      <trkpt lat="42.13876" lon="9.07564">
        <ele>1856</ele>
        <time>2015-06-24T08:53:06Z</time>
      </trkpt>
      <trkpt lat="42.13881" lon="9.07562">
        <ele>1855.2</ele>
        <time>2015-06-24T08:53:13Z</time>
      </trkpt>
      <trkpt lat="42.13885" lon="9.07566">
        <ele>1854.2</ele>
        <time>2015-06-24T08:53:18Z</time>
      </trkpt>
      <trkpt lat="42.13887" lon="9.07567">
        <ele>1853.8</ele>
        <time>2015-06-24T08:53:20Z</time>
      </trkpt>
      <trkpt lat="42.13894" lon="9.07577">
        <ele>1853.6</ele>
        <time>2015-06-24T08:53:31Z</time>
      </trkpt>
      <trkpt lat="42.13895" lon="9.07577">
        <ele>1853.6</ele>
        <time>2015-06-24T08:53:33Z</time>
      </trkpt>
      <trkpt lat="42.13901" lon="9.07575">
        <ele>1853.6</ele>
        <time>2015-06-24T08:53:42Z</time>
      </trkpt>
      <trkpt lat="42.13904" lon="9.07573">
        <ele>1853.2</ele>
        <time>2015-06-24T08:53:48Z</time>
      </trkpt>
      <trkpt lat="42.13907" lon="9.07573">
        <ele>1852.6</ele>
        <time>2015-06-24T08:53:56Z</time>
      </trkpt>
      <trkpt lat="42.13909" lon="9.07573">
        <ele>1852.2</ele>
        <time>2015-06-24T08:54:00Z</time>
      </trkpt>
      <trkpt lat="42.1391" lon="9.07569">
        <ele>1850.2</ele>
        <time>2015-06-24T08:54:08Z</time>
      </trkpt>
      <trkpt lat="42.13911" lon="9.07567">
        <ele>1849.8</ele>
        <time>2015-06-24T08:54:13Z</time>
      </trkpt>
      <trkpt lat="42.13913" lon="9.07564">
        <ele>1848.4</ele>
        <time>2015-06-24T08:54:20Z</time>
      </trkpt>
      <trkpt lat="42.13915" lon="9.07562">
        <ele>1847</ele>
        <time>2015-06-24T08:54:27Z</time>
      </trkpt>
      <trkpt lat="42.13919" lon="9.0756">
        <ele>1846</ele>
        <time>2015-06-24T08:54:35Z</time>
      </trkpt>
      <trkpt lat="42.13922" lon="9.07558">
        <ele>1844.4</ele>
        <time>2015-06-24T08:54:55Z</time>
      </trkpt>
      <trkpt lat="42.13925" lon="9.07556">
        <ele>1843.6</ele>
        <time>2015-06-24T08:55:23Z</time>
      </trkpt>
      <trkpt lat="42.13927" lon="9.07558">
        <ele>1843.4</ele>
        <time>2015-06-24T08:55:26Z</time>
      </trkpt>
      <trkpt lat="42.13932" lon="9.07557">
        <ele>1841</ele>
        <time>2015-06-24T08:55:42Z</time>
      </trkpt>
      <trkpt lat="42.13935" lon="9.07559">
        <ele>1840.4</ele>
        <time>2015-06-24T08:55:48Z</time>
      </trkpt>
      <trkpt lat="42.13937" lon="9.07558">
        <ele>1840</ele>
        <time>2015-06-24T08:55:52Z</time>
      </trkpt>
      <trkpt lat="42.13941" lon="9.07555">
        <ele>1838.2</ele>
        <time>2015-06-24T08:55:57Z</time>
      </trkpt>
      <trkpt lat="42.13948" lon="9.0755">
        <ele>1837</ele>
        <time>2015-06-24T08:56:06Z</time>
      </trkpt>
      <trkpt lat="42.1395" lon="9.0755">
        <ele>1836.8</ele>
        <time>2015-06-24T08:56:08Z</time>
      </trkpt>
      <trkpt lat="42.13953" lon="9.07551">
        <ele>1836.2</ele>
        <time>2015-06-24T08:56:11Z</time>
      </trkpt>
      <trkpt lat="42.13958" lon="9.07549">
        <ele>1834.2</ele>
        <time>2015-06-24T08:56:19Z</time>
      </trkpt>
      <trkpt lat="42.1396" lon="9.07547">
        <ele>1833.6</ele>
        <time>2015-06-24T08:56:25Z</time>
      </trkpt>
      <trkpt lat="42.13965" lon="9.07546">
        <ele>1832.4</ele>
        <time>2015-06-24T08:56:31Z</time>
      </trkpt>
      <trkpt lat="42.13967" lon="9.07545">
        <ele>1831.4</ele>
        <time>2015-06-24T08:56:36Z</time>
      </trkpt>
      <trkpt lat="42.13971" lon="9.07547">
        <ele>1830.2</ele>
        <time>2015-06-24T08:56:42Z</time>
      </trkpt>
      <trkpt lat="42.13977" lon="9.07546">
        <ele>1828.2</ele>
        <time>2015-06-24T08:56:55Z</time>
      </trkpt>
      <trkpt lat="42.13981" lon="9.07546">
        <ele>1827.8</ele>
        <time>2015-06-24T08:57:04Z</time>
      </trkpt>
      <trkpt lat="42.13988" lon="9.07546">
        <ele>1826.6</ele>
        <time>2015-06-24T08:57:18Z</time>
      </trkpt>
      <trkpt lat="42.13991" lon="9.07545">
        <ele>1826</ele>
        <time>2015-06-24T08:57:23Z</time>
      </trkpt>
      <trkpt lat="42.13995" lon="9.07543">
        <ele>1824.6</ele>
        <time>2015-06-24T08:57:31Z</time>
      </trkpt>
      <trkpt lat="42.13999" lon="9.07543">
        <ele>1823.8</ele>
        <time>2015-06-24T08:57:38Z</time>
      </trkpt>
      <trkpt lat="42.14004" lon="9.07538">
        <ele>1822.4</ele>
        <time>2015-06-24T08:57:56Z</time>
      </trkpt>
      <trkpt lat="42.14006" lon="9.07538">
        <ele>1821.4</ele>
        <time>2015-06-24T08:58:02Z</time>
      </trkpt>
      <trkpt lat="42.14008" lon="9.07535">
        <ele>1820</ele>
        <time>2015-06-24T08:58:12Z</time>
      </trkpt>
      <trkpt lat="42.1401" lon="9.07532">
        <ele>1818.6</ele>
        <time>2015-06-24T08:58:25Z</time>
      </trkpt>
      <trkpt lat="42.14012" lon="9.07532">
        <ele>1818</ele>
        <time>2015-06-24T08:58:31Z</time>
      </trkpt>
      <trkpt lat="42.14014" lon="9.07529">
        <ele>1816.2</ele>
        <time>2015-06-24T08:58:43Z</time>
      </trkpt>
      <trkpt lat="42.14017" lon="9.07527">
        <ele>1815.6</ele>
        <time>2015-06-24T08:58:53Z</time>
      </trkpt>
      <trkpt lat="42.14019" lon="9.07524">
        <ele>1813.8</ele>
        <time>2015-06-24T08:59:02Z</time>
      </trkpt>
      <trkpt lat="42.14022" lon="9.0752">
        <ele>1813.4</ele>
        <time>2015-06-24T08:59:10Z</time>
      </trkpt>
      <trkpt lat="42.14025" lon="9.07516">
        <ele>1812.4</ele>
        <time>2015-06-24T08:59:16Z</time>
      </trkpt>
      <trkpt lat="42.14027" lon="9.07515">
        <ele>1811.2</ele>
        <time>2015-06-24T08:59:23Z</time>
      </trkpt>
      <trkpt lat="42.14029" lon="9.07514">
        <ele>1810.6</ele>
        <time>2015-06-24T08:59:27Z</time>
      </trkpt>
      <trkpt lat="42.14031" lon="9.07511">
        <ele>1809.4</ele>
        <time>2015-06-24T08:59:32Z</time>
      </trkpt>
      <trkpt lat="42.14033" lon="9.0751">
        <ele>1808.4</ele>
        <time>2015-06-24T08:59:37Z</time>
      </trkpt>
      <trkpt lat="42.14035" lon="9.07507">
        <ele>1807</ele>
        <time>2015-06-24T08:59:43Z</time>
      </trkpt>
      <trkpt lat="42.14035" lon="9.07504">
        <ele>1806</ele>
        <time>2015-06-24T08:59:48Z</time>
      </trkpt>
      <trkpt lat="42.14039" lon="9.07501">
        <ele>1804.2</ele>
        <time>2015-06-24T08:59:55Z</time>
      </trkpt>
      <trkpt lat="42.14041" lon="9.07501">
        <ele>1803.6</ele>
        <time>2015-06-24T08:59:59Z</time>
      </trkpt>
      <trkpt lat="42.14043" lon="9.07499">
        <ele>1802.8</ele>
        <time>2015-06-24T09:00:03Z</time>
      </trkpt>
      <trkpt lat="42.14048" lon="9.07496">
        <ele>1800.2</ele>
        <time>2015-06-24T09:00:11Z</time>
      </trkpt>
      <trkpt lat="42.14054" lon="9.07494">
        <ele>1799</ele>
        <time>2015-06-24T09:00:19Z</time>
      </trkpt>
      <trkpt lat="42.14057" lon="9.07493">
        <ele>1798.8</ele>
        <time>2015-06-24T09:00:23Z</time>
      </trkpt>
      <trkpt lat="42.14059" lon="9.07492">
        <ele>1797.8</ele>
        <time>2015-06-24T09:00:26Z</time>
      </trkpt>
      <trkpt lat="42.14062" lon="9.0749">
        <ele>1797.2</ele>
        <time>2015-06-24T09:00:29Z</time>
      </trkpt>
      <trkpt lat="42.14064" lon="9.07489">
        <ele>1796</ele>
        <time>2015-06-24T09:00:32Z</time>
      </trkpt>
      <trkpt lat="42.1407" lon="9.07488">
        <ele>1793.8</ele>
        <time>2015-06-24T09:00:38Z</time>
      </trkpt>
      <trkpt lat="42.14071" lon="9.07487">
        <ele>1793.6</ele>
        <time>2015-06-24T09:00:39Z</time>
      </trkpt>
      <trkpt lat="42.14078" lon="9.07485">
        <ele>1792</ele>
        <time>2015-06-24T09:00:48Z</time>
      </trkpt>
      <trkpt lat="42.14084" lon="9.07481">
        <ele>1791.2</ele>
        <time>2015-06-24T09:01:00Z</time>
      </trkpt>
      <trkpt lat="42.14087" lon="9.07478">
        <ele>1790.4</ele>
        <time>2015-06-24T09:01:06Z</time>
      </trkpt>
      <trkpt lat="42.1409" lon="9.07476">
        <ele>1789.6</ele>
        <time>2015-06-24T09:01:11Z</time>
      </trkpt>
      <trkpt lat="42.14093" lon="9.07473">
        <ele>1788</ele>
        <time>2015-06-24T09:01:20Z</time>
      </trkpt>
      <trkpt lat="42.14097" lon="9.07471">
        <ele>1787.2</ele>
        <time>2015-06-24T09:01:27Z</time>
      </trkpt>
      <trkpt lat="42.14098" lon="9.07468">
        <ele>1785.6</ele>
        <time>2015-06-24T09:01:34Z</time>
      </trkpt>
      <trkpt lat="42.14101" lon="9.07468">
        <ele>1784.4</ele>
        <time>2015-06-24T09:01:42Z</time>
      </trkpt>
      <trkpt lat="42.14105" lon="9.07467">
        <ele>1783.8</ele>
        <time>2015-06-24T09:01:48Z</time>
      </trkpt>
      <trkpt lat="42.14109" lon="9.07464">
        <ele>1782.4</ele>
        <time>2015-06-24T09:01:55Z</time>
      </trkpt>
      <trkpt lat="42.14112" lon="9.07461">
        <ele>1781.6</ele>
        <time>2015-06-24T09:02:01Z</time>
      </trkpt>
      <trkpt lat="42.14115" lon="9.07459">
        <ele>1780.6</ele>
        <time>2015-06-24T09:02:07Z</time>
      </trkpt>
      <trkpt lat="42.14121" lon="9.07462">
        <ele>1778.6</ele>
        <time>2015-06-24T09:02:21Z</time>
      </trkpt>
      <trkpt lat="42.14124" lon="9.0746">
        <ele>1778.4</ele>
        <time>2015-06-24T09:02:26Z</time>
      </trkpt>
      <trkpt lat="42.14126" lon="9.07459">
        <ele>1777.4</ele>
        <time>2015-06-24T09:02:31Z</time>
      </trkpt>
      <trkpt lat="42.14125" lon="9.07455">
        <ele>1775.8</ele>
        <time>2015-06-24T09:02:39Z</time>
      </trkpt>
      <trkpt lat="42.14122" lon="9.07451">
        <ele>1774.8</ele>
        <time>2015-06-24T09:02:47Z</time>
      </trkpt>
      <trkpt lat="42.14124" lon="9.07448">
        <ele>1774</ele>
        <time>2015-06-24T09:02:53Z</time>
      </trkpt>
      <trkpt lat="42.14128" lon="9.07448">
        <ele>1773</ele>
        <time>2015-06-24T09:02:59Z</time>
      </trkpt>
      <trkpt lat="42.14128" lon="9.07447">
        <ele>1771.4</ele>
        <time>2015-06-24T09:03:09Z</time>
      </trkpt>
      <trkpt lat="42.14129" lon="9.07444">
        <ele>1770.4</ele>
        <time>2015-06-24T09:03:20Z</time>
      </trkpt>
      <trkpt lat="42.14133" lon="9.07442">
        <ele>1769.2</ele>
        <time>2015-06-24T09:03:27Z</time>
      </trkpt>
      <trkpt lat="42.14137" lon="9.07442">
        <ele>1767.6</ele>
        <time>2015-06-24T09:03:39Z</time>
      </trkpt>
      <trkpt lat="42.14147" lon="9.07445">
        <ele>1766.4</ele>
        <time>2015-06-24T09:04:01Z</time>
      </trkpt>
      <trkpt lat="42.14155" lon="9.07444">
        <ele>1766</ele>
        <time>2015-06-24T09:04:23Z</time>
      </trkpt>
      <trkpt lat="42.14157" lon="9.07444">
        <ele>1766</ele>
        <time>2015-06-24T09:04:25Z</time>
      </trkpt>
      <trkpt lat="42.14162" lon="9.07444">
        <ele>1764.4</ele>
        <time>2015-06-24T09:04:31Z</time>
      </trkpt>
      <trkpt lat="42.14167" lon="9.07445">
        <ele>1763.6</ele>
        <time>2015-06-24T09:04:38Z</time>
      </trkpt>
      <trkpt lat="42.14169" lon="9.07446">
        <ele>1763.2</ele>
        <time>2015-06-24T09:04:40Z</time>
      </trkpt>
      <trkpt lat="42.14172" lon="9.07447">
        <ele>1762.8</ele>
        <time>2015-06-24T09:04:43Z</time>
      </trkpt>
      <trkpt lat="42.14173" lon="9.07447">
        <ele>1762.6</ele>
        <time>2015-06-24T09:04:45Z</time>
      </trkpt>
      <trkpt lat="42.14177" lon="9.07448">
        <ele>1761.6</ele>
        <time>2015-06-24T09:04:55Z</time>
      </trkpt>
      <trkpt lat="42.14178" lon="9.07449">
        <ele>1761</ele>
        <time>2015-06-24T09:04:59Z</time>
      </trkpt>
      <trkpt lat="42.1418" lon="9.07449">
        <ele>1759.4</ele>
        <time>2015-06-24T09:05:05Z</time>
      </trkpt>
      <trkpt lat="42.14183" lon="9.0745">
        <ele>1758.4</ele>
        <time>2015-06-24T09:05:10Z</time>
      </trkpt>
      <trkpt lat="42.14185" lon="9.07452">
        <ele>1757.6</ele>
        <time>2015-06-24T09:05:15Z</time>
      </trkpt>
      <trkpt lat="42.14188" lon="9.07453">
        <ele>1756.6</ele>
        <time>2015-06-24T09:05:20Z</time>
      </trkpt>
      <trkpt lat="42.1419" lon="9.07454">
        <ele>1755.8</ele>
        <time>2015-06-24T09:05:23Z</time>
      </trkpt>
      <trkpt lat="42.14194" lon="9.07456">
        <ele>1754.8</ele>
        <time>2015-06-24T09:05:28Z</time>
      </trkpt>
      <trkpt lat="42.14197" lon="9.07455">
        <ele>1754.2</ele>
        <time>2015-06-24T09:05:31Z</time>
      </trkpt>
      <trkpt lat="42.14201" lon="9.07448">
        <ele>1753.2</ele>
        <time>2015-06-24T09:05:37Z</time>
      </trkpt>
      <trkpt lat="42.14203" lon="9.07443">
        <ele>1752.4</ele>
        <time>2015-06-24T09:05:44Z</time>
      </trkpt>
      <trkpt lat="42.14203" lon="9.07441">
        <ele>1752</ele>
        <time>2015-06-24T09:05:47Z</time>
      </trkpt>
      <trkpt lat="42.14204" lon="9.07438">
        <ele>1751.4</ele>
        <time>2015-06-24T09:05:50Z</time>
      </trkpt>
      <trkpt lat="42.14205" lon="9.07436">
        <ele>1749.8</ele>
        <time>2015-06-24T09:05:54Z</time>
      </trkpt>
      <trkpt lat="42.14205" lon="9.07432">
        <ele>1748.2</ele>
        <time>2015-06-24T09:05:59Z</time>
      </trkpt>
      <trkpt lat="42.14204" lon="9.07428">
        <ele>1747.8</ele>
        <time>2015-06-24T09:06:02Z</time>
      </trkpt>
      <trkpt lat="42.14204" lon="9.07427">
        <ele>1747.6</ele>
        <time>2015-06-24T09:06:03Z</time>
      </trkpt>
      <trkpt lat="42.14205" lon="9.07423">
        <ele>1745.8</ele>
        <time>2015-06-24T09:06:09Z</time>
      </trkpt>
      <trkpt lat="42.14209" lon="9.0742">
        <ele>1744.6</ele>
        <time>2015-06-24T09:06:15Z</time>
      </trkpt>
      <trkpt lat="42.14213" lon="9.07419">
        <ele>1743.8</ele>
        <time>2015-06-24T09:06:20Z</time>
      </trkpt>
      <trkpt lat="42.14216" lon="9.07418">
        <ele>1742</ele>
        <time>2015-06-24T09:06:26Z</time>
      </trkpt>
      <trkpt lat="42.14218" lon="9.07416">
        <ele>1741.2</ele>
        <time>2015-06-24T09:06:31Z</time>
      </trkpt>
      <trkpt lat="42.1422" lon="9.07416">
        <ele>1740.2</ele>
        <time>2015-06-24T09:06:36Z</time>
      </trkpt>
      <trkpt lat="42.14224" lon="9.07414">
        <ele>1738.6</ele>
        <time>2015-06-24T09:06:48Z</time>
      </trkpt>
      <trkpt lat="42.14232" lon="9.07411">
        <ele>1737.2</ele>
        <time>2015-06-24T09:06:58Z</time>
      </trkpt>
      <trkpt lat="42.14238" lon="9.07408">
        <ele>1736.4</ele>
        <time>2015-06-24T09:07:06Z</time>
      </trkpt>
      <trkpt lat="42.1424" lon="9.07405">
        <ele>1735.6</ele>
        <time>2015-06-24T09:07:11Z</time>
      </trkpt>
      <trkpt lat="42.14248" lon="9.07389">
        <ele>1733.8</ele>
        <time>2015-06-24T09:07:39Z</time>
      </trkpt>
      <trkpt lat="42.1425" lon="9.07386">
        <ele>1733.6</ele>
        <time>2015-06-24T09:07:43Z</time>
      </trkpt>
      <trkpt lat="42.1425" lon="9.07383">
        <ele>1733</ele>
        <time>2015-06-24T09:07:46Z</time>
      </trkpt>
      <trkpt lat="42.1425" lon="9.07379">
        <ele>1731.8</ele>
        <time>2015-06-24T09:07:50Z</time>
      </trkpt>
      <trkpt lat="42.14252" lon="9.07374">
        <ele>1730</ele>
        <time>2015-06-24T09:07:56Z</time>
      </trkpt>
      <trkpt lat="42.14257" lon="9.0737">
        <ele>1728.8</ele>
        <time>2015-06-24T09:08:04Z</time>
      </trkpt>
      <trkpt lat="42.14261" lon="9.07365">
        <ele>1727.6</ele>
        <time>2015-06-24T09:08:11Z</time>
      </trkpt>
      <trkpt lat="42.14262" lon="9.07365">
        <ele>1727</ele>
        <time>2015-06-24T09:08:16Z</time>
      </trkpt>
      <trkpt lat="42.14272" lon="9.0736">
        <ele>1725</ele>
        <time>2015-06-24T09:11:03Z</time>
      </trkpt>
      <trkpt lat="42.14273" lon="9.0736">
        <ele>1724.8</ele>
        <time>2015-06-24T09:11:05Z</time>
      </trkpt>
      <trkpt lat="42.14274" lon="9.07359">
        <ele>1724.6</ele>
        <time>2015-06-24T09:11:06Z</time>
      </trkpt>
      <trkpt lat="42.14277" lon="9.07358">
        <ele>1724.6</ele>
        <time>2015-06-24T09:11:09Z</time>
      </trkpt>
      <trkpt lat="42.14282" lon="9.07359">
        <ele>1723.8</ele>
        <time>2015-06-24T09:11:13Z</time>
      </trkpt>
      <trkpt lat="42.14286" lon="9.0736">
        <ele>1722.8</ele>
        <time>2015-06-24T09:11:17Z</time>
      </trkpt>
      <trkpt lat="42.1429" lon="9.07362">
        <ele>1721.8</ele>
        <time>2015-06-24T09:11:21Z</time>
      </trkpt>
      <trkpt lat="42.14294" lon="9.07364">
        <ele>1720.2</ele>
        <time>2015-06-24T09:11:27Z</time>
      </trkpt>
      <trkpt lat="42.14299" lon="9.07363">
        <ele>1719.2</ele>
        <time>2015-06-24T09:11:32Z</time>
      </trkpt>
      <trkpt lat="42.14303" lon="9.07365">
        <ele>1718.6</ele>
        <time>2015-06-24T09:11:36Z</time>
      </trkpt>
      <trkpt lat="42.14307" lon="9.07367">
        <ele>1718.2</ele>
        <time>2015-06-24T09:11:40Z</time>
      </trkpt>
      <trkpt lat="42.1431" lon="9.07368">
        <ele>1717.2</ele>
        <time>2015-06-24T09:11:44Z</time>
      </trkpt>
      <trkpt lat="42.14317" lon="9.07369">
        <ele>1715.8</ele>
        <time>2015-06-24T09:11:51Z</time>
      </trkpt>
      <trkpt lat="42.14321" lon="9.07366">
        <ele>1715.4</ele>
        <time>2015-06-24T09:11:55Z</time>
      </trkpt>
      <trkpt lat="42.14326" lon="9.07365">
        <ele>1714.4</ele>
        <time>2015-06-24T09:12:01Z</time>
      </trkpt>
      <trkpt lat="42.14332" lon="9.07363">
        <ele>1713</ele>
        <time>2015-06-24T09:12:09Z</time>
      </trkpt>
      <trkpt lat="42.1434" lon="9.07362">
        <ele>1712</ele>
        <time>2015-06-24T09:12:17Z</time>
      </trkpt>
      <trkpt lat="42.14345" lon="9.07359">
        <ele>1711.4</ele>
        <time>2015-06-24T09:12:22Z</time>
      </trkpt>
      <trkpt lat="42.1435" lon="9.07356">
        <ele>1710.4</ele>
        <time>2015-06-24T09:12:27Z</time>
      </trkpt>
      <trkpt lat="42.14385" lon="9.07343">
        <ele>1710.8</ele>
        <time>2015-06-24T09:13:02Z</time>
      </trkpt>
      <trkpt lat="42.14389" lon="9.0734">
        <ele>1711.2</ele>
        <time>2015-06-24T09:13:07Z</time>
      </trkpt>
      <trkpt lat="42.14397" lon="9.07335">
        <ele>1711.8</ele>
        <time>2015-06-24T09:13:19Z</time>
      </trkpt>
      <trkpt lat="42.14409" lon="9.07334">
        <ele>1712.4</ele>
        <time>2015-06-24T09:13:32Z</time>
      </trkpt>
      <trkpt lat="42.14414" lon="9.07334">
        <ele>1712.2</ele>
        <time>2015-06-24T09:13:37Z</time>
      </trkpt>
      <trkpt lat="42.14414" lon="9.07333">
        <ele>1712.4</ele>
        <time>2015-06-24T09:13:38Z</time>
      </trkpt>
      <trkpt lat="42.14416" lon="9.07333">
        <ele>1712.2</ele>
        <time>2015-06-24T09:13:40Z</time>
      </trkpt>
      <trkpt lat="42.14419" lon="9.07335">
        <ele>1711.4</ele>
        <time>2015-06-24T09:13:43Z</time>
      </trkpt>
      <trkpt lat="42.14421" lon="9.07336">
        <ele>1710.8</ele>
        <time>2015-06-24T09:13:45Z</time>
      </trkpt>
      <trkpt lat="42.14423" lon="9.07334">
        <ele>1710.2</ele>
        <time>2015-06-24T09:13:49Z</time>
      </trkpt>
      <trkpt lat="42.14426" lon="9.07332">
        <ele>1709.2</ele>
        <time>2015-06-24T09:13:53Z</time>
      </trkpt>
      <trkpt lat="42.1443" lon="9.07327">
        <ele>1708.4</ele>
        <time>2015-06-24T09:13:59Z</time>
      </trkpt>
      <trkpt lat="42.14432" lon="9.07326">
        <ele>1707.8</ele>
        <time>2015-06-24T09:14:03Z</time>
      </trkpt>
      <trkpt lat="42.14439" lon="9.07323">
        <ele>1706</ele>
        <time>2015-06-24T09:14:11Z</time>
      </trkpt>
      <trkpt lat="42.14441" lon="9.07321">
        <ele>1705.6</ele>
        <time>2015-06-24T09:14:14Z</time>
      </trkpt>
      <trkpt lat="42.14442" lon="9.07318">
        <ele>1705.2</ele>
        <time>2015-06-24T09:14:17Z</time>
      </trkpt>
      <trkpt lat="42.14444" lon="9.07317">
        <ele>1704</ele>
        <time>2015-06-24T09:14:20Z</time>
      </trkpt>
      <trkpt lat="42.14446" lon="9.07316">
        <ele>1703</ele>
        <time>2015-06-24T09:14:22Z</time>
      </trkpt>
      <trkpt lat="42.14447" lon="9.07316">
        <ele>1702.4</ele>
        <time>2015-06-24T09:14:24Z</time>
      </trkpt>
      <trkpt lat="42.14447" lon="9.07316">
        <ele>1702</ele>
        <time>2015-06-24T09:14:25Z</time>
      </trkpt>
      <trkpt lat="42.14451" lon="9.07314">
        <ele>1700.4</ele>
        <time>2015-06-24T09:14:32Z</time>
      </trkpt>
      <trkpt lat="42.14454" lon="9.07312">
        <ele>1699.4</ele>
        <time>2015-06-24T09:14:39Z</time>
      </trkpt>
      <trkpt lat="42.14457" lon="9.07313">
        <ele>1698.2</ele>
        <time>2015-06-24T09:14:45Z</time>
      </trkpt>
      <trkpt lat="42.1446" lon="9.07313">
        <ele>1697.4</ele>
        <time>2015-06-24T09:14:50Z</time>
      </trkpt>
      <trkpt lat="42.14464" lon="9.07314">
        <ele>1695.8</ele>
        <time>2015-06-24T09:14:58Z</time>
      </trkpt>
      <trkpt lat="42.14468" lon="9.07315">
        <ele>1695</ele>
        <time>2015-06-24T09:15:05Z</time>
      </trkpt>
      <trkpt lat="42.14475" lon="9.07315">
        <ele>1693.8</ele>
        <time>2015-06-24T09:15:20Z</time>
      </trkpt>
      <trkpt lat="42.14478" lon="9.07314">
        <ele>1692.8</ele>
        <time>2015-06-24T09:15:28Z</time>
      </trkpt>
      <trkpt lat="42.14482" lon="9.07316">
        <ele>1692</ele>
        <time>2015-06-24T09:15:34Z</time>
      </trkpt>
      <trkpt lat="42.14487" lon="9.07314">
        <ele>1690.4</ele>
        <time>2015-06-24T09:15:41Z</time>
      </trkpt>
      <trkpt lat="42.1449" lon="9.07314">
        <ele>1690</ele>
        <time>2015-06-24T09:15:45Z</time>
      </trkpt>
      <trkpt lat="42.14493" lon="9.07314">
        <ele>1689.2</ele>
        <time>2015-06-24T09:15:49Z</time>
      </trkpt>
      <trkpt lat="42.14496" lon="9.0731">
        <ele>1687</ele>
        <time>2015-06-24T09:15:56Z</time>
      </trkpt>
      <trkpt lat="42.14498" lon="9.0731">
        <ele>1686.4</ele>
        <time>2015-06-24T09:16:00Z</time>
      </trkpt>
      <trkpt lat="42.145" lon="9.07312">
        <ele>1686.2</ele>
        <time>2015-06-24T09:16:03Z</time>
      </trkpt>
      <trkpt lat="42.14507" lon="9.07312">
        <ele>1683.6</ele>
        <time>2015-06-24T09:16:17Z</time>
      </trkpt>
      <trkpt lat="42.14508" lon="9.07309">
        <ele>1682.8</ele>
        <time>2015-06-24T09:16:24Z</time>
      </trkpt>
      <trkpt lat="42.14511" lon="9.07311">
        <ele>1682</ele>
        <time>2015-06-24T09:16:30Z</time>
      </trkpt>
      <trkpt lat="42.14512" lon="9.07308">
        <ele>1681</ele>
        <time>2015-06-24T09:16:36Z</time>
      </trkpt>
      <trkpt lat="42.14515" lon="9.07309">
        <ele>1679.6</ele>
        <time>2015-06-24T09:16:43Z</time>
      </trkpt>
      <trkpt lat="42.14516" lon="9.07305">
        <ele>1679</ele>
        <time>2015-06-24T09:16:48Z</time>
      </trkpt>
      <trkpt lat="42.14519" lon="9.07302">
        <ele>1677.6</ele>
        <time>2015-06-24T09:16:54Z</time>
      </trkpt>
      <trkpt lat="42.14521" lon="9.073">
        <ele>1676.6</ele>
        <time>2015-06-24T09:16:59Z</time>
      </trkpt>
      <trkpt lat="42.14522" lon="9.07297">
        <ele>1676.2</ele>
        <time>2015-06-24T09:17:03Z</time>
      </trkpt>
      <trkpt lat="42.14525" lon="9.07297">
        <ele>1674.4</ele>
        <time>2015-06-24T09:17:09Z</time>
      </trkpt>
      <trkpt lat="42.14527" lon="9.07298">
        <ele>1673.6</ele>
        <time>2015-06-24T09:17:13Z</time>
      </trkpt>
      <trkpt lat="42.14528" lon="9.07298">
        <ele>1672</ele>
        <time>2015-06-24T09:17:19Z</time>
      </trkpt>
      <trkpt lat="42.14532" lon="9.07301">
        <ele>1671</ele>
        <time>2015-06-24T09:17:26Z</time>
      </trkpt>
      <trkpt lat="42.14536" lon="9.07304">
        <ele>1669.6</ele>
        <time>2015-06-24T09:17:36Z</time>
      </trkpt>
      <trkpt lat="42.14539" lon="9.07303">
        <ele>1668.8</ele>
        <time>2015-06-24T09:17:44Z</time>
      </trkpt>
      <trkpt lat="42.14543" lon="9.07303">
        <ele>1667.8</ele>
        <time>2015-06-24T09:17:50Z</time>
      </trkpt>
      <trkpt lat="42.14545" lon="9.07302">
        <ele>1667</ele>
        <time>2015-06-24T09:17:54Z</time>
      </trkpt>
      <trkpt lat="42.14549" lon="9.07305">
        <ele>1665.2</ele>
        <time>2015-06-24T09:18:07Z</time>
      </trkpt>
      <trkpt lat="42.14551" lon="9.07308">
        <ele>1664.4</ele>
        <time>2015-06-24T09:18:14Z</time>
      </trkpt>
      <trkpt lat="42.14552" lon="9.07309">
        <ele>1663.6</ele>
        <time>2015-06-24T09:18:19Z</time>
      </trkpt>
      <trkpt lat="42.14554" lon="9.07308">
        <ele>1662.4</ele>
        <time>2015-06-24T09:18:24Z</time>
      </trkpt>
      <trkpt lat="42.14558" lon="9.07308">
        <ele>1660.8</ele>
        <time>2015-06-24T09:18:32Z</time>
      </trkpt>
      <trkpt lat="42.1456" lon="9.07307">
        <ele>1660.2</ele>
        <time>2015-06-24T09:18:36Z</time>
      </trkpt>
      <trkpt lat="42.14562" lon="9.07307">
        <ele>1659.2</ele>
        <time>2015-06-24T09:18:41Z</time>
      </trkpt>
      <trkpt lat="42.14564" lon="9.07306">
        <ele>1658</ele>
        <time>2015-06-24T09:18:46Z</time>
      </trkpt>
      <trkpt lat="42.14567" lon="9.07303">
        <ele>1656.8</ele>
        <time>2015-06-24T09:18:52Z</time>
      </trkpt>
      <trkpt lat="42.14569" lon="9.07304">
        <ele>1655.4</ele>
        <time>2015-06-24T09:18:58Z</time>
      </trkpt>
      <trkpt lat="42.1457" lon="9.07304">
        <ele>1654.8</ele>
        <time>2015-06-24T09:19:02Z</time>
      </trkpt>
      <trkpt lat="42.14573" lon="9.07305">
        <ele>1653.4</ele>
        <time>2015-06-24T09:19:08Z</time>
      </trkpt>
      <trkpt lat="42.14575" lon="9.07305">
        <ele>1652.2</ele>
        <time>2015-06-24T09:19:15Z</time>
      </trkpt>
      <trkpt lat="42.14577" lon="9.07308">
        <ele>1651.2</ele>
        <time>2015-06-24T09:19:21Z</time>
      </trkpt>
      <trkpt lat="42.14579" lon="9.07312">
        <ele>1649.6</ele>
        <time>2015-06-24T09:19:29Z</time>
      </trkpt>
      <trkpt lat="42.14583" lon="9.07312">
        <ele>1648.6</ele>
        <time>2015-06-24T09:19:36Z</time>
      </trkpt>
      <trkpt lat="42.14586" lon="9.07308">
        <ele>1647.4</ele>
        <time>2015-06-24T09:20:12Z</time>
      </trkpt>
      <trkpt lat="42.1459" lon="9.07308">
        <ele>1647.2</ele>
        <time>2015-06-24T09:20:17Z</time>
      </trkpt>
      <trkpt lat="42.14595" lon="9.07309">
        <ele>1645</ele>
        <time>2015-06-24T09:20:29Z</time>
      </trkpt>
      <trkpt lat="42.14598" lon="9.07311">
        <ele>1644.4</ele>
        <time>2015-06-24T09:20:35Z</time>
      </trkpt>
      <trkpt lat="42.146" lon="9.07311">
        <ele>1643.2</ele>
        <time>2015-06-24T09:20:41Z</time>
      </trkpt>
      <trkpt lat="42.14601" lon="9.07305">
        <ele>1642</ele>
        <time>2015-06-24T09:20:49Z</time>
      </trkpt>
      <trkpt lat="42.14601" lon="9.07301">
        <ele>1640.6</ele>
        <time>2015-06-24T09:20:58Z</time>
      </trkpt>
      <trkpt lat="42.14603" lon="9.07299">
        <ele>1640.4</ele>
        <time>2015-06-24T09:21:02Z</time>
      </trkpt>
      <trkpt lat="42.14606" lon="9.073">
        <ele>1639.2</ele>
        <time>2015-06-24T09:21:06Z</time>
      </trkpt>
      <trkpt lat="42.14608" lon="9.07298">
        <ele>1637.2</ele>
        <time>2015-06-24T09:21:16Z</time>
      </trkpt>
      <trkpt lat="42.14609" lon="9.07295">
        <ele>1636.6</ele>
        <time>2015-06-24T09:21:21Z</time>
      </trkpt>
      <trkpt lat="42.1461" lon="9.07293">
        <ele>1634.8</ele>
        <time>2015-06-24T09:21:30Z</time>
      </trkpt>
      <trkpt lat="42.14611" lon="9.0729">
        <ele>1633.8</ele>
        <time>2015-06-24T09:21:40Z</time>
      </trkpt>
      <trkpt lat="42.14613" lon="9.07287">
        <ele>1633</ele>
        <time>2015-06-24T09:21:46Z</time>
      </trkpt>
      <trkpt lat="42.14614" lon="9.07285">
        <ele>1632</ele>
        <time>2015-06-24T09:21:52Z</time>
      </trkpt>
      <trkpt lat="42.14617" lon="9.07286">
        <ele>1631.2</ele>
        <time>2015-06-24T09:21:57Z</time>
      </trkpt>
      <trkpt lat="42.14617" lon="9.07283">
        <ele>1629.6</ele>
        <time>2015-06-24T09:22:03Z</time>
      </trkpt>
      <trkpt lat="42.14618" lon="9.07278">
        <ele>1628.6</ele>
        <time>2015-06-24T09:22:09Z</time>
      </trkpt>
      <trkpt lat="42.14622" lon="9.0728">
        <ele>1627.6</ele>
        <time>2015-06-24T09:22:15Z</time>
      </trkpt>
      <trkpt lat="42.14628" lon="9.07283">
        <ele>1625.6</ele>
        <time>2015-06-24T09:22:28Z</time>
      </trkpt>
      <trkpt lat="42.14627" lon="9.0728">
        <ele>1625.6</ele>
        <time>2015-06-24T09:22:33Z</time>
      </trkpt>
      <trkpt lat="42.14624" lon="9.07273">
        <ele>1623.8</ele>
        <time>2015-06-24T09:22:40Z</time>
      </trkpt>
      <trkpt lat="42.14621" lon="9.07271">
        <ele>1623</ele>
        <time>2015-06-24T09:22:46Z</time>
      </trkpt>
      <trkpt lat="42.14623" lon="9.07266">
        <ele>1622</ele>
        <time>2015-06-24T09:22:53Z</time>
      </trkpt>
      <trkpt lat="42.14624" lon="9.07267">
        <ele>1621.2</ele>
        <time>2015-06-24T09:22:58Z</time>
      </trkpt>
      <trkpt lat="42.14628" lon="9.07265">
        <ele>1619.6</ele>
        <time>2015-06-24T09:23:05Z</time>
      </trkpt>
      <trkpt lat="42.14632" lon="9.07267">
        <ele>1618.2</ele>
        <time>2015-06-24T09:23:13Z</time>
      </trkpt>
      <trkpt lat="42.14637" lon="9.07266">
        <ele>1617.2</ele>
        <time>2015-06-24T09:23:22Z</time>
      </trkpt>
      <trkpt lat="42.14639" lon="9.07265">
        <ele>1616.6</ele>
        <time>2015-06-24T09:23:26Z</time>
      </trkpt>
      <trkpt lat="42.14642" lon="9.07263">
        <ele>1615.2</ele>
        <time>2015-06-24T09:23:31Z</time>
      </trkpt>
      <trkpt lat="42.14642" lon="9.07262">
        <ele>1614.4</ele>
        <time>2015-06-24T09:23:34Z</time>
      </trkpt>
      <trkpt lat="42.14644" lon="9.07261">
        <ele>1613.2</ele>
        <time>2015-06-24T09:23:39Z</time>
      </trkpt>
      <trkpt lat="42.14647" lon="9.07258">
        <ele>1612</ele>
        <time>2015-06-24T09:23:44Z</time>
      </trkpt>
      <trkpt lat="42.14648" lon="9.07257">
        <ele>1611</ele>
        <time>2015-06-24T09:23:47Z</time>
      </trkpt>
      <trkpt lat="42.14651" lon="9.07257">
        <ele>1609.8</ele>
        <time>2015-06-24T09:23:51Z</time>
      </trkpt>
      <trkpt lat="42.14653" lon="9.07256">
        <ele>1609</ele>
        <time>2015-06-24T09:23:55Z</time>
      </trkpt>
      <trkpt lat="42.14655" lon="9.07254">
        <ele>1607.8</ele>
        <time>2015-06-24T09:23:59Z</time>
      </trkpt>
      <trkpt lat="42.14658" lon="9.07253">
        <ele>1606.8</ele>
        <time>2015-06-24T09:24:03Z</time>
      </trkpt>
      <trkpt lat="42.1466" lon="9.07251">
        <ele>1605.2</ele>
        <time>2015-06-24T09:24:08Z</time>
      </trkpt>
      <trkpt lat="42.14662" lon="9.07249">
        <ele>1604</ele>
        <time>2015-06-24T09:24:13Z</time>
      </trkpt>
      <trkpt lat="42.14664" lon="9.07248">
        <ele>1602.8</ele>
        <time>2015-06-24T09:24:18Z</time>
      </trkpt>
      <trkpt lat="42.14667" lon="9.07248">
        <ele>1602</ele>
        <time>2015-06-24T09:24:23Z</time>
      </trkpt>
      <trkpt lat="42.1467" lon="9.07247">
        <ele>1600.8</ele>
        <time>2015-06-24T09:24:28Z</time>
      </trkpt>
      <trkpt lat="42.14672" lon="9.07245">
        <ele>1598.8</ele>
        <time>2015-06-24T09:24:35Z</time>
      </trkpt>
      <trkpt lat="42.14676" lon="9.07244">
        <ele>1598.2</ele>
        <time>2015-06-24T09:24:40Z</time>
      </trkpt>
      <trkpt lat="42.14678" lon="9.07244">
        <ele>1597.4</ele>
        <time>2015-06-24T09:24:44Z</time>
      </trkpt>
      <trkpt lat="42.14681" lon="9.07244">
        <ele>1595.2</ele>
        <time>2015-06-24T09:24:52Z</time>
      </trkpt>
      <trkpt lat="42.14681" lon="9.07237">
        <ele>1594.2</ele>
        <time>2015-06-24T09:25:05Z</time>
      </trkpt>
      <trkpt lat="42.14681" lon="9.07234">
        <ele>1593.8</ele>
        <time>2015-06-24T09:25:10Z</time>
      </trkpt>
      <trkpt lat="42.1468" lon="9.07231">
        <ele>1592.8</ele>
        <time>2015-06-24T09:25:15Z</time>
      </trkpt>
      <trkpt lat="42.14679" lon="9.07227">
        <ele>1591.2</ele>
        <time>2015-06-24T09:25:21Z</time>
      </trkpt>
      <trkpt lat="42.14678" lon="9.07224">
        <ele>1590.6</ele>
        <time>2015-06-24T09:25:25Z</time>
      </trkpt>
      <trkpt lat="42.14677" lon="9.0722">
        <ele>1589.8</ele>
        <time>2015-06-24T09:25:29Z</time>
      </trkpt>
      <trkpt lat="42.14681" lon="9.07218">
        <ele>1588.2</ele>
        <time>2015-06-24T09:25:34Z</time>
      </trkpt>
      <trkpt lat="42.14683" lon="9.07216">
        <ele>1588</ele>
        <time>2015-06-24T09:25:37Z</time>
      </trkpt>
      <trkpt lat="42.14685" lon="9.07215">
        <ele>1586.8</ele>
        <time>2015-06-24T09:25:40Z</time>
      </trkpt>
      <trkpt lat="42.14688" lon="9.07214">
        <ele>1584.4</ele>
        <time>2015-06-24T09:25:46Z</time>
      </trkpt>
      <trkpt lat="42.14689" lon="9.07212">
        <ele>1583.6</ele>
        <time>2015-06-24T09:25:52Z</time>
      </trkpt>
      <trkpt lat="42.14692" lon="9.0721">
        <ele>1582.2</ele>
        <time>2015-06-24T09:26:04Z</time>
      </trkpt>
      <trkpt lat="42.14695" lon="9.07208">
        <ele>1580.8</ele>
        <time>2015-06-24T09:26:12Z</time>
      </trkpt>
      <trkpt lat="42.14698" lon="9.07206">
        <ele>1580.2</ele>
        <time>2015-06-24T09:26:18Z</time>
      </trkpt>
      <trkpt lat="42.14701" lon="9.07205">
        <ele>1579.4</ele>
        <time>2015-06-24T09:26:22Z</time>
      </trkpt>
      <trkpt lat="42.14704" lon="9.07204">
        <ele>1578</ele>
        <time>2015-06-24T09:26:28Z</time>
      </trkpt>
      <trkpt lat="42.14706" lon="9.07204">
        <ele>1577</ele>
        <time>2015-06-24T09:26:33Z</time>
      </trkpt>
      <trkpt lat="42.14708" lon="9.072">
        <ele>1576</ele>
        <time>2015-06-24T09:26:38Z</time>
      </trkpt>
      <trkpt lat="42.1471" lon="9.07199">
        <ele>1575</ele>
        <time>2015-06-24T09:26:43Z</time>
      </trkpt>
      <trkpt lat="42.14713" lon="9.07198">
        <ele>1574</ele>
        <time>2015-06-24T09:26:48Z</time>
      </trkpt>
      <trkpt lat="42.14715" lon="9.07197">
        <ele>1573</ele>
        <time>2015-06-24T09:26:52Z</time>
      </trkpt>
      <trkpt lat="42.14717" lon="9.07191">
        <ele>1571</ele>
        <time>2015-06-24T09:27:20Z</time>
      </trkpt>
      <trkpt lat="42.14718" lon="9.0719">
        <ele>1571</ele>
        <time>2015-06-24T09:27:23Z</time>
      </trkpt>
      <trkpt lat="42.1472" lon="9.07186">
        <ele>1569.4</ele>
        <time>2015-06-24T09:27:28Z</time>
      </trkpt>
      <trkpt lat="42.14722" lon="9.07184">
        <ele>1567.6</ele>
        <time>2015-06-24T09:27:34Z</time>
      </trkpt>
      <trkpt lat="42.14724" lon="9.07181">
        <ele>1566.4</ele>
        <time>2015-06-24T09:27:39Z</time>
      </trkpt>
      <trkpt lat="42.14726" lon="9.07181">
        <ele>1565.6</ele>
        <time>2015-06-24T09:27:42Z</time>
      </trkpt>
      <trkpt lat="42.14729" lon="9.07181">
        <ele>1564.8</ele>
        <time>2015-06-24T09:27:46Z</time>
      </trkpt>
      <trkpt lat="42.14729" lon="9.07178">
        <ele>1562.2</ele>
        <time>2015-06-24T09:27:59Z</time>
      </trkpt>
      <trkpt lat="42.14729" lon="9.07174">
        <ele>1562</ele>
        <time>2015-06-24T09:28:04Z</time>
      </trkpt>
      <trkpt lat="42.14729" lon="9.07174">
        <ele>1562</ele>
        <time>2015-06-24T09:28:05Z</time>
      </trkpt>
      <trkpt lat="42.14731" lon="9.07173">
        <ele>1561.4</ele>
        <time>2015-06-24T09:28:08Z</time>
      </trkpt>
      <trkpt lat="42.14735" lon="9.07172">
        <ele>1559.8</ele>
        <time>2015-06-24T09:28:13Z</time>
      </trkpt>
      <trkpt lat="42.14738" lon="9.07172">
        <ele>1558.4</ele>
        <time>2015-06-24T09:28:19Z</time>
      </trkpt>
      <trkpt lat="42.1474" lon="9.0717">
        <ele>1557</ele>
        <time>2015-06-24T09:28:27Z</time>
      </trkpt>
      <trkpt lat="42.14742" lon="9.0717">
        <ele>1556.4</ele>
        <time>2015-06-24T09:28:31Z</time>
      </trkpt>
      <trkpt lat="42.14745" lon="9.0717">
        <ele>1555.4</ele>
        <time>2015-06-24T09:28:36Z</time>
      </trkpt>
      <trkpt lat="42.14743" lon="9.07166">
        <ele>1553.6</ele>
        <time>2015-06-24T09:28:47Z</time>
      </trkpt>
      <trkpt lat="42.14743" lon="9.07165">
        <ele>1553</ele>
        <time>2015-06-24T09:28:51Z</time>
      </trkpt>
      <trkpt lat="42.14743" lon="9.07162">
        <ele>1551.6</ele>
        <time>2015-06-24T09:28:58Z</time>
      </trkpt>
      <trkpt lat="42.14744" lon="9.07159">
        <ele>1550.8</ele>
        <time>2015-06-24T09:29:03Z</time>
      </trkpt>
      <trkpt lat="42.14747" lon="9.07158">
        <ele>1550</ele>
        <time>2015-06-24T09:29:07Z</time>
      </trkpt>
      <trkpt lat="42.1475" lon="9.07163">
        <ele>1547.8</ele>
        <time>2015-06-24T09:29:18Z</time>
      </trkpt>
      <trkpt lat="42.14751" lon="9.0716">
        <ele>1547.2</ele>
        <time>2015-06-24T09:29:26Z</time>
      </trkpt>
      <trkpt lat="42.14751" lon="9.07158">
        <ele>1546.4</ele>
        <time>2015-06-24T09:29:31Z</time>
      </trkpt>
      <trkpt lat="42.14749" lon="9.07154">
        <ele>1544.8</ele>
        <time>2015-06-24T09:29:38Z</time>
      </trkpt>
      <trkpt lat="42.14751" lon="9.07152">
        <ele>1543.6</ele>
        <time>2015-06-24T09:29:47Z</time>
      </trkpt>
      <trkpt lat="42.14752" lon="9.07152">
        <ele>1543.4</ele>
        <time>2015-06-24T09:29:49Z</time>
      </trkpt>
      <trkpt lat="42.14754" lon="9.0715">
        <ele>1543</ele>
        <time>2015-06-24T09:29:53Z</time>
      </trkpt>
      <trkpt lat="42.14754" lon="9.07147">
        <ele>1542</ele>
        <time>2015-06-24T09:29:58Z</time>
      </trkpt>
      <trkpt lat="42.14752" lon="9.07144">
        <ele>1540.8</ele>
        <time>2015-06-24T09:30:04Z</time>
      </trkpt>
      <trkpt lat="42.14753" lon="9.07142">
        <ele>1539.6</ele>
        <time>2015-06-24T09:30:11Z</time>
      </trkpt>
      <trkpt lat="42.14752" lon="9.0714">
        <ele>1538.4</ele>
        <time>2015-06-24T09:30:17Z</time>
      </trkpt>
      <trkpt lat="42.14756" lon="9.07139">
        <ele>1537.4</ele>
        <time>2015-06-24T09:30:25Z</time>
      </trkpt>
      <trkpt lat="42.14759" lon="9.07139">
        <ele>1536.4</ele>
        <time>2015-06-24T09:30:31Z</time>
      </trkpt>
      <trkpt lat="42.14762" lon="9.07135">
        <ele>1535.2</ele>
        <time>2015-06-24T09:31:01Z</time>
      </trkpt>
      <trkpt lat="42.14769" lon="9.07133">
        <ele>1533.6</ele>
        <time>2015-06-24T09:31:11Z</time>
      </trkpt>
      <trkpt lat="42.14772" lon="9.07134">
        <ele>1533.2</ele>
        <time>2015-06-24T09:31:16Z</time>
      </trkpt>
      <trkpt lat="42.14776" lon="9.07133">
        <ele>1531.6</ele>
        <time>2015-06-24T09:31:24Z</time>
      </trkpt>
      <trkpt lat="42.1478" lon="9.07133">
        <ele>1531</ele>
        <time>2015-06-24T09:31:29Z</time>
      </trkpt>
      <trkpt lat="42.14783" lon="9.07131">
        <ele>1529.6</ele>
        <time>2015-06-24T09:31:34Z</time>
      </trkpt>
      <trkpt lat="42.14787" lon="9.07131">
        <ele>1528.6</ele>
        <time>2015-06-24T09:31:39Z</time>
      </trkpt>
      <trkpt lat="42.14792" lon="9.07131">
        <ele>1527</ele>
        <time>2015-06-24T09:31:46Z</time>
      </trkpt>
      <trkpt lat="42.14796" lon="9.07132">
        <ele>1526.2</ele>
        <time>2015-06-24T09:31:52Z</time>
      </trkpt>
      <trkpt lat="42.14806" lon="9.07129">
        <ele>1524.6</ele>
        <time>2015-06-24T09:32:02Z</time>
      </trkpt>
      <trkpt lat="42.14807" lon="9.07128">
        <ele>1524.4</ele>
        <time>2015-06-24T09:32:03Z</time>
      </trkpt>
      <trkpt lat="42.14812" lon="9.07125">
        <ele>1523.6</ele>
        <time>2015-06-24T09:32:09Z</time>
      </trkpt>
      <trkpt lat="42.14814" lon="9.07123">
        <ele>1523.6</ele>
        <time>2015-06-24T09:32:11Z</time>
      </trkpt>
      <trkpt lat="42.14815" lon="9.07123">
        <ele>1523.4</ele>
        <time>2015-06-24T09:32:12Z</time>
      </trkpt>
      <trkpt lat="42.1482" lon="9.07121">
        <ele>1522.4</ele>
        <time>2015-06-24T09:32:21Z</time>
      </trkpt>
      <trkpt lat="42.14822" lon="9.07119">
        <ele>1521.8</ele>
        <time>2015-06-24T09:32:28Z</time>
      </trkpt>
      <trkpt lat="42.14822" lon="9.07115">
        <ele>1520.8</ele>
        <time>2015-06-24T09:32:34Z</time>
      </trkpt>
      <trkpt lat="42.14825" lon="9.07114">
        <ele>1519.4</ele>
        <time>2015-06-24T09:32:42Z</time>
      </trkpt>
      <trkpt lat="42.14827" lon="9.07113">
        <ele>1518.6</ele>
        <time>2015-06-24T09:32:48Z</time>
      </trkpt>
      <trkpt lat="42.14829" lon="9.0711">
        <ele>1517.4</ele>
        <time>2015-06-24T09:32:55Z</time>
      </trkpt>
      <trkpt lat="42.14832" lon="9.07111">
        <ele>1516.8</ele>
        <time>2015-06-24T09:33:00Z</time>
      </trkpt>
      <trkpt lat="42.14836" lon="9.07115">
        <ele>1515.2</ele>
        <time>2015-06-24T09:33:08Z</time>
      </trkpt>
      <trkpt lat="42.14841" lon="9.07114">
        <ele>1514</ele>
        <time>2015-06-24T09:33:18Z</time>
      </trkpt>
      <trkpt lat="42.14841" lon="9.07112">
        <ele>1513.4</ele>
        <time>2015-06-24T09:33:24Z</time>
      </trkpt>
      <trkpt lat="42.14842" lon="9.07112">
        <ele>1512.2</ele>
        <time>2015-06-24T09:33:31Z</time>
      </trkpt>
      <trkpt lat="42.14841" lon="9.0711">
        <ele>1511.2</ele>
        <time>2015-06-24T09:33:37Z</time>
      </trkpt>
      <trkpt lat="42.14843" lon="9.07107">
        <ele>1510</ele>
        <time>2015-06-24T09:33:45Z</time>
      </trkpt>
      <trkpt lat="42.14847" lon="9.07108">
        <ele>1508.8</ele>
        <time>2015-06-24T09:33:53Z</time>
      </trkpt>
      <trkpt lat="42.14855" lon="9.07109">
        <ele>1507.4</ele>
        <time>2015-06-24T09:34:13Z</time>
      </trkpt>
      <trkpt lat="42.14857" lon="9.07108">
        <ele>1506.8</ele>
        <time>2015-06-24T09:34:26Z</time>
      </trkpt>
      <trkpt lat="42.14859" lon="9.07107">
        <ele>1506.8</ele>
        <time>2015-06-24T09:34:30Z</time>
      </trkpt>
      <trkpt lat="42.1486" lon="9.07105">
        <ele>1504.8</ele>
        <time>2015-06-24T09:34:58Z</time>
      </trkpt>
      <trkpt lat="42.14864" lon="9.07103">
        <ele>1504.4</ele>
        <time>2015-06-24T09:35:05Z</time>
      </trkpt>
      <trkpt lat="42.14866" lon="9.07101">
        <ele>1503.2</ele>
        <time>2015-06-24T09:35:14Z</time>
      </trkpt>
      <trkpt lat="42.14864" lon="9.07097">
        <ele>1501.8</ele>
        <time>2015-06-24T09:35:26Z</time>
      </trkpt>
      <trkpt lat="42.14864" lon="9.07095">
        <ele>1501.6</ele>
        <time>2015-06-24T09:35:31Z</time>
      </trkpt>
      <trkpt lat="42.14866" lon="9.07094">
        <ele>1499.8</ele>
        <time>2015-06-24T09:35:40Z</time>
      </trkpt>
      <trkpt lat="42.14867" lon="9.07091">
        <ele>1498.8</ele>
        <time>2015-06-24T09:35:47Z</time>
      </trkpt>
      <trkpt lat="42.14869" lon="9.07091">
        <ele>1498</ele>
        <time>2015-06-24T09:35:56Z</time>
      </trkpt>
      <trkpt lat="42.14873" lon="9.07091">
        <ele>1496</ele>
        <time>2015-06-24T09:36:10Z</time>
      </trkpt>
      <trkpt lat="42.14876" lon="9.07091">
        <ele>1495.6</ele>
        <time>2015-06-24T09:36:18Z</time>
      </trkpt>
      <trkpt lat="42.14881" lon="9.0709">
        <ele>1494.4</ele>
        <time>2015-06-24T09:36:29Z</time>
      </trkpt>
      <trkpt lat="42.14884" lon="9.0709">
        <ele>1493</ele>
        <time>2015-06-24T09:36:38Z</time>
      </trkpt>
      <trkpt lat="42.14885" lon="9.07088">
        <ele>1492.4</ele>
        <time>2015-06-24T09:36:44Z</time>
      </trkpt>
      <trkpt lat="42.14888" lon="9.07087">
        <ele>1491.8</ele>
        <time>2015-06-24T09:36:48Z</time>
      </trkpt>
      <trkpt lat="42.14891" lon="9.07087">
        <ele>1490.6</ele>
        <time>2015-06-24T09:36:53Z</time>
      </trkpt>
      <trkpt lat="42.14896" lon="9.07086">
        <ele>1489</ele>
        <time>2015-06-24T09:37:01Z</time>
      </trkpt>
      <trkpt lat="42.14898" lon="9.07083">
        <ele>1487.8</ele>
        <time>2015-06-24T09:37:11Z</time>
      </trkpt>
      <trkpt lat="42.14898" lon="9.07077">
        <ele>1487</ele>
        <time>2015-06-24T09:37:19Z</time>
      </trkpt>
      <trkpt lat="42.14902" lon="9.07076">
        <ele>1486</ele>
        <time>2015-06-24T09:37:25Z</time>
      </trkpt>
      <trkpt lat="42.14904" lon="9.07073">
        <ele>1484.8</ele>
        <time>2015-06-24T09:37:33Z</time>
      </trkpt>
      <trkpt lat="42.14906" lon="9.07071">
        <ele>1483.8</ele>
        <time>2015-06-24T09:37:39Z</time>
      </trkpt>
      <trkpt lat="42.14909" lon="9.07069">
        <ele>1482</ele>
        <time>2015-06-24T09:37:47Z</time>
      </trkpt>
      <trkpt lat="42.14914" lon="9.07067">
        <ele>1481.6</ele>
        <time>2015-06-24T09:37:52Z</time>
      </trkpt>
      <trkpt lat="42.14918" lon="9.07066">
        <ele>1480.6</ele>
        <time>2015-06-24T09:37:57Z</time>
      </trkpt>
      <trkpt lat="42.14923" lon="9.07067">
        <ele>1479.2</ele>
        <time>2015-06-24T09:38:03Z</time>
      </trkpt>
      <trkpt lat="42.14925" lon="9.07067">
        <ele>1479</ele>
        <time>2015-06-24T09:38:05Z</time>
      </trkpt>
      <trkpt lat="42.14929" lon="9.07069">
        <ele>1478.6</ele>
        <time>2015-06-24T09:38:14Z</time>
      </trkpt>
      <trkpt lat="42.14934" lon="9.07066">
        <ele>1478</ele>
        <time>2015-06-24T09:38:28Z</time>
      </trkpt>
      <trkpt lat="42.14945" lon="9.07062">
        <ele>1476.8</ele>
        <time>2015-06-24T09:38:47Z</time>
      </trkpt>
      <trkpt lat="42.14952" lon="9.0706">
        <ele>1475.4</ele>
        <time>2015-06-24T09:38:56Z</time>
      </trkpt>
      <trkpt lat="42.14953" lon="9.0706">
        <ele>1475.4</ele>
        <time>2015-06-24T09:38:57Z</time>
      </trkpt>
      <trkpt lat="42.14955" lon="9.07058">
        <ele>1475.2</ele>
        <time>2015-06-24T09:39:01Z</time>
      </trkpt>
      <trkpt lat="42.14957" lon="9.07056">
        <ele>1475</ele>
        <time>2015-06-24T09:39:04Z</time>
      </trkpt>
      <trkpt lat="42.1496" lon="9.07054">
        <ele>1474.6</ele>
        <time>2015-06-24T09:39:07Z</time>
      </trkpt>
      <trkpt lat="42.14967" lon="9.07052">
        <ele>1474</ele>
        <time>2015-06-24T09:39:16Z</time>
      </trkpt>
      <trkpt lat="42.14972" lon="9.0705">
        <ele>1473.2</ele>
        <time>2015-06-24T09:39:23Z</time>
      </trkpt>
      <trkpt lat="42.14975" lon="9.07048">
        <ele>1472.2</ele>
        <time>2015-06-24T09:39:29Z</time>
      </trkpt>
      <trkpt lat="42.14977" lon="9.07046">
        <ele>1471</ele>
        <time>2015-06-24T09:39:34Z</time>
      </trkpt>
      <trkpt lat="42.1498" lon="9.07042">
        <ele>1469.8</ele>
        <time>2015-06-24T09:39:40Z</time>
      </trkpt>
      <trkpt lat="42.14981" lon="9.07039">
        <ele>1469.2</ele>
        <time>2015-06-24T09:39:44Z</time>
      </trkpt>
      <trkpt lat="42.14985" lon="9.07037">
        <ele>1468.2</ele>
        <time>2015-06-24T09:39:49Z</time>
      </trkpt>
      <trkpt lat="42.14988" lon="9.07034">
        <ele>1466.6</ele>
        <time>2015-06-24T09:39:55Z</time>
      </trkpt>
      <trkpt lat="42.14993" lon="9.07031">
        <ele>1465.2</ele>
        <time>2015-06-24T09:40:04Z</time>
      </trkpt>
      <trkpt lat="42.14995" lon="9.07031">
        <ele>1464.4</ele>
        <time>2015-06-24T09:40:10Z</time>
      </trkpt>
      <trkpt lat="42.14996" lon="9.07029">
        <ele>1463.4</ele>
        <time>2015-06-24T09:40:15Z</time>
      </trkpt>
      <trkpt lat="42.14999" lon="9.07027">
        <ele>1462.2</ele>
        <time>2015-06-24T09:40:23Z</time>
      </trkpt>
      <trkpt lat="42.15" lon="9.07026">
        <ele>1461</ele>
        <time>2015-06-24T09:40:33Z</time>
      </trkpt>
      <trkpt lat="42.15006" lon="9.07026">
        <ele>1459.6</ele>
        <time>2015-06-24T09:40:43Z</time>
      </trkpt>
      <trkpt lat="42.15008" lon="9.07027">
        <ele>1459.2</ele>
        <time>2015-06-24T09:40:47Z</time>
      </trkpt>
      <trkpt lat="42.1501" lon="9.07031">
        <ele>1458.2</ele>
        <time>2015-06-24T09:40:51Z</time>
      </trkpt>
      <trkpt lat="42.1501" lon="9.07036">
        <ele>1457</ele>
        <time>2015-06-24T09:40:56Z</time>
      </trkpt>
      <trkpt lat="42.15017" lon="9.07043">
        <ele>1455.2</ele>
        <time>2015-06-24T09:41:10Z</time>
      </trkpt>
      <trkpt lat="42.15018" lon="9.07047">
        <ele>1454.8</ele>
        <time>2015-06-24T09:41:14Z</time>
      </trkpt>
      <trkpt lat="42.15022" lon="9.07055">
        <ele>1452.4</ele>
        <time>2015-06-24T09:41:29Z</time>
      </trkpt>
      <trkpt lat="42.15026" lon="9.07054">
        <ele>1451.8</ele>
        <time>2015-06-24T09:41:39Z</time>
      </trkpt>
      <trkpt lat="42.15029" lon="9.07056">
        <ele>1450.6</ele>
        <time>2015-06-24T09:41:48Z</time>
      </trkpt>
      <trkpt lat="42.15033" lon="9.07057">
        <ele>1449.4</ele>
        <time>2015-06-24T09:42:01Z</time>
      </trkpt>
      <trkpt lat="42.15035" lon="9.07056">
        <ele>1448.4</ele>
        <time>2015-06-24T09:42:08Z</time>
      </trkpt>
      <trkpt lat="42.15037" lon="9.07055">
        <ele>1447.6</ele>
        <time>2015-06-24T09:42:16Z</time>
      </trkpt>
      <trkpt lat="42.15039" lon="9.07052">
        <ele>1446.6</ele>
        <time>2015-06-24T09:42:23Z</time>
      </trkpt>
      <trkpt lat="42.15042" lon="9.07054">
        <ele>1446</ele>
        <time>2015-06-24T09:42:27Z</time>
      </trkpt>
      <trkpt lat="42.15045" lon="9.07053">
        <ele>1444.4</ele>
        <time>2015-06-24T09:42:33Z</time>
      </trkpt>
      <trkpt lat="42.15047" lon="9.07055">
        <ele>1443.2</ele>
        <time>2015-06-24T09:42:39Z</time>
      </trkpt>
      <trkpt lat="42.1505" lon="9.07057">
        <ele>1442</ele>
        <time>2015-06-24T09:42:45Z</time>
      </trkpt>
      <trkpt lat="42.15054" lon="9.07058">
        <ele>1441</ele>
        <time>2015-06-24T09:42:51Z</time>
      </trkpt>
      <trkpt lat="42.15057" lon="9.07057">
        <ele>1439.8</ele>
        <time>2015-06-24T09:42:57Z</time>
      </trkpt>
      <trkpt lat="42.15058" lon="9.07046">
        <ele>1438</ele>
        <time>2015-06-24T09:43:09Z</time>
      </trkpt>
      <trkpt lat="42.15059" lon="9.07046">
        <ele>1438.2</ele>
        <time>2015-06-24T09:43:10Z</time>
      </trkpt>
      <trkpt lat="42.15061" lon="9.07047">
        <ele>1438</ele>
        <time>2015-06-24T09:43:13Z</time>
      </trkpt>
      <trkpt lat="42.15064" lon="9.07047">
        <ele>1436.8</ele>
        <time>2015-06-24T09:43:18Z</time>
      </trkpt>
      <trkpt lat="42.15068" lon="9.0705">
        <ele>1435.2</ele>
        <time>2015-06-24T09:43:25Z</time>
      </trkpt>
      <trkpt lat="42.15071" lon="9.0705">
        <ele>1434.4</ele>
        <time>2015-06-24T09:43:33Z</time>
      </trkpt>
      <trkpt lat="42.15073" lon="9.07049">
        <ele>1433.8</ele>
        <time>2015-06-24T09:43:37Z</time>
      </trkpt>
      <trkpt lat="42.15075" lon="9.07048">
        <ele>1432.8</ele>
        <time>2015-06-24T09:43:41Z</time>
      </trkpt>
      <trkpt lat="42.15078" lon="9.07047">
        <ele>1431.4</ele>
        <time>2015-06-24T09:43:46Z</time>
      </trkpt>
      <trkpt lat="42.1508" lon="9.07045">
        <ele>1430</ele>
        <time>2015-06-24T09:43:52Z</time>
      </trkpt>
      <trkpt lat="42.15085" lon="9.07046">
        <ele>1429</ele>
        <time>2015-06-24T09:43:59Z</time>
      </trkpt>
      <trkpt lat="42.1509" lon="9.07052">
        <ele>1427.4</ele>
        <time>2015-06-24T09:44:08Z</time>
      </trkpt>
      <trkpt lat="42.15091" lon="9.07057">
        <ele>1426.8</ele>
        <time>2015-06-24T09:44:13Z</time>
      </trkpt>
      <trkpt lat="42.15096" lon="9.07056">
        <ele>1425.6</ele>
        <time>2015-06-24T09:44:21Z</time>
      </trkpt>
      <trkpt lat="42.15097" lon="9.07058">
        <ele>1425</ele>
        <time>2015-06-24T09:44:24Z</time>
      </trkpt>
      <trkpt lat="42.15101" lon="9.0706">
        <ele>1423.4</ele>
        <time>2015-06-24T09:44:32Z</time>
      </trkpt>
      <trkpt lat="42.15105" lon="9.07061">
        <ele>1422.2</ele>
        <time>2015-06-24T09:44:40Z</time>
      </trkpt>
      <trkpt lat="42.15106" lon="9.07062">
        <ele>1421.6</ele>
        <time>2015-06-24T09:44:45Z</time>
      </trkpt>
      <trkpt lat="42.15109" lon="9.07062">
        <ele>1420.2</ele>
        <time>2015-06-24T09:44:52Z</time>
      </trkpt>
      <trkpt lat="42.15112" lon="9.07062">
        <ele>1419.4</ele>
        <time>2015-06-24T09:44:58Z</time>
      </trkpt>
      <trkpt lat="42.15115" lon="9.07064">
        <ele>1418.2</ele>
        <time>2015-06-24T09:45:05Z</time>
      </trkpt>
      <trkpt lat="42.15117" lon="9.07066">
        <ele>1417.6</ele>
        <time>2015-06-24T09:45:10Z</time>
      </trkpt>
      <trkpt lat="42.15121" lon="9.07062">
        <ele>1416.2</ele>
        <time>2015-06-24T09:45:17Z</time>
      </trkpt>
      <trkpt lat="42.15124" lon="9.07062">
        <ele>1415.2</ele>
        <time>2015-06-24T09:45:23Z</time>
      </trkpt>
      <trkpt lat="42.15128" lon="9.07063">
        <ele>1414.2</ele>
        <time>2015-06-24T09:45:30Z</time>
      </trkpt>
      <trkpt lat="42.15131" lon="9.07064">
        <ele>1413</ele>
        <time>2015-06-24T09:45:38Z</time>
      </trkpt>
      <trkpt lat="42.15132" lon="9.07064">
        <ele>1412</ele>
        <time>2015-06-24T09:45:44Z</time>
      </trkpt>
      <trkpt lat="42.15136" lon="9.07067">
        <ele>1411</ele>
        <time>2015-06-24T09:45:59Z</time>
      </trkpt>
      <trkpt lat="42.15139" lon="9.07065">
        <ele>1410</ele>
        <time>2015-06-24T09:46:05Z</time>
      </trkpt>
      <trkpt lat="42.15143" lon="9.07065">
        <ele>1409</ele>
        <time>2015-06-24T09:46:12Z</time>
      </trkpt>
      <trkpt lat="42.15147" lon="9.07062">
        <ele>1407.8</ele>
        <time>2015-06-24T09:46:19Z</time>
      </trkpt>
      <trkpt lat="42.1515" lon="9.0706">
        <ele>1406</ele>
        <time>2015-06-24T09:46:33Z</time>
      </trkpt>
      <trkpt lat="42.15152" lon="9.07059">
        <ele>1405.2</ele>
        <time>2015-06-24T09:46:42Z</time>
      </trkpt>
      <trkpt lat="42.15154" lon="9.07056">
        <ele>1404.4</ele>
        <time>2015-06-24T09:46:51Z</time>
      </trkpt>
      <trkpt lat="42.15156" lon="9.07059">
        <ele>1403.6</ele>
        <time>2015-06-24T09:46:57Z</time>
      </trkpt>
      <trkpt lat="42.15158" lon="9.07064">
        <ele>1402.4</ele>
        <time>2015-06-24T09:47:04Z</time>
      </trkpt>
      <trkpt lat="42.15163" lon="9.0707">
        <ele>1400.8</ele>
        <time>2015-06-24T09:47:13Z</time>
      </trkpt>
      <trkpt lat="42.15162" lon="9.07074">
        <ele>1399.8</ele>
        <time>2015-06-24T09:47:26Z</time>
      </trkpt>
      <trkpt lat="42.15162" lon="9.07074">
        <ele>1399.6</ele>
        <time>2015-06-24T09:47:27Z</time>
      </trkpt>
      <trkpt lat="42.15165" lon="9.07078">
        <ele>1399</ele>
        <time>2015-06-24T09:47:34Z</time>
      </trkpt>
      <trkpt lat="42.15166" lon="9.07082">
        <ele>1397.8</ele>
        <time>2015-06-24T09:47:41Z</time>
      </trkpt>
      <trkpt lat="42.1517" lon="9.07084">
        <ele>1397</ele>
        <time>2015-06-24T09:47:48Z</time>
      </trkpt>
      <trkpt lat="42.15173" lon="9.07085">
        <ele>1396.4</ele>
        <time>2015-06-24T09:47:52Z</time>
      </trkpt>
      <trkpt lat="42.15175" lon="9.07085">
        <ele>1394.8</ele>
        <time>2015-06-24T09:47:58Z</time>
      </trkpt>
      <trkpt lat="42.15178" lon="9.07089">
        <ele>1393.8</ele>
        <time>2015-06-24T09:48:04Z</time>
      </trkpt>
      <trkpt lat="42.15183" lon="9.0709">
        <ele>1392.6</ele>
        <time>2015-06-24T09:48:11Z</time>
      </trkpt>
      <trkpt lat="42.15185" lon="9.07091">
        <ele>1391.8</ele>
        <time>2015-06-24T09:48:16Z</time>
      </trkpt>
      <trkpt lat="42.1519" lon="9.07093">
        <ele>1389.8</ele>
        <time>2015-06-24T09:48:36Z</time>
      </trkpt>
      <trkpt lat="42.15196" lon="9.07094">
        <ele>1389.2</ele>
        <time>2015-06-24T09:48:43Z</time>
      </trkpt>
      <trkpt lat="42.15198" lon="9.07095">
        <ele>1388.8</ele>
        <time>2015-06-24T09:48:46Z</time>
      </trkpt>
      <trkpt lat="42.152" lon="9.07098">
        <ele>1388</ele>
        <time>2015-06-24T09:48:49Z</time>
      </trkpt>
      <trkpt lat="42.152" lon="9.07099">
        <ele>1387.4</ele>
        <time>2015-06-24T09:48:51Z</time>
      </trkpt>
      <trkpt lat="42.15203" lon="9.07102">
        <ele>1385.2</ele>
        <time>2015-06-24T09:48:56Z</time>
      </trkpt>
      <trkpt lat="42.15205" lon="9.07103">
        <ele>1384.2</ele>
        <time>2015-06-24T09:48:59Z</time>
      </trkpt>
      <trkpt lat="42.15208" lon="9.07104">
        <ele>1382.8</ele>
        <time>2015-06-24T09:49:04Z</time>
      </trkpt>
      <trkpt lat="42.15211" lon="9.07108">
        <ele>1381.4</ele>
        <time>2015-06-24T09:49:10Z</time>
      </trkpt>
      <trkpt lat="42.15214" lon="9.07109">
        <ele>1380.4</ele>
        <time>2015-06-24T09:49:14Z</time>
      </trkpt>
      <trkpt lat="42.15218" lon="9.07111">
        <ele>1379.2</ele>
        <time>2015-06-24T09:49:19Z</time>
      </trkpt>
      <trkpt lat="42.15221" lon="9.07112">
        <ele>1378</ele>
        <time>2015-06-24T09:49:24Z</time>
      </trkpt>
      <trkpt lat="42.15225" lon="9.07115">
        <ele>1376.4</ele>
        <time>2015-06-24T09:49:31Z</time>
      </trkpt>
      <trkpt lat="42.15228" lon="9.07116">
        <ele>1375.8</ele>
        <time>2015-06-24T09:49:35Z</time>
      </trkpt>
      <trkpt lat="42.15231" lon="9.07119">
        <ele>1374.8</ele>
        <time>2015-06-24T09:49:40Z</time>
      </trkpt>
      <trkpt lat="42.15235" lon="9.07121">
        <ele>1373.6</ele>
        <time>2015-06-24T09:49:45Z</time>
      </trkpt>
      <trkpt lat="42.15238" lon="9.07122">
        <ele>1372.4</ele>
        <time>2015-06-24T09:49:50Z</time>
      </trkpt>
      <trkpt lat="42.1524" lon="9.07126">
        <ele>1371.6</ele>
        <time>2015-06-24T09:49:54Z</time>
      </trkpt>
      <trkpt lat="42.15243" lon="9.07128">
        <ele>1370.4</ele>
        <time>2015-06-24T09:49:59Z</time>
      </trkpt>
      <trkpt lat="42.15246" lon="9.0713">
        <ele>1369.2</ele>
        <time>2015-06-24T09:50:03Z</time>
      </trkpt>
      <trkpt lat="42.15249" lon="9.07131">
        <ele>1368.2</ele>
        <time>2015-06-24T09:50:08Z</time>
      </trkpt>
      <trkpt lat="42.15253" lon="9.07133">
        <ele>1366.8</ele>
        <time>2015-06-24T09:50:14Z</time>
      </trkpt>
      <trkpt lat="42.15255" lon="9.07138">
        <ele>1366</ele>
        <time>2015-06-24T09:50:19Z</time>
      </trkpt>
      <trkpt lat="42.15257" lon="9.07143">
        <ele>1364.6</ele>
        <time>2015-06-24T09:50:25Z</time>
      </trkpt>
      <trkpt lat="42.15262" lon="9.07142">
        <ele>1363.4</ele>
        <time>2015-06-24T09:50:31Z</time>
      </trkpt>
      <trkpt lat="42.15267" lon="9.07145">
        <ele>1362.2</ele>
        <time>2015-06-24T09:50:38Z</time>
      </trkpt>
      <trkpt lat="42.15283" lon="9.07147">
        <ele>1360.4</ele>
        <time>2015-06-24T09:50:55Z</time>
      </trkpt>
      <trkpt lat="42.15294" lon="9.07142">
        <ele>1359</ele>
        <time>2015-06-24T09:51:07Z</time>
      </trkpt>
      <trkpt lat="42.15295" lon="9.07141">
        <ele>1359.2</ele>
        <time>2015-06-24T09:51:08Z</time>
      </trkpt>
      <trkpt lat="42.15299" lon="9.07138">
        <ele>1358.6</ele>
        <time>2015-06-24T09:51:13Z</time>
      </trkpt>
      <trkpt lat="42.15302" lon="9.07138">
        <ele>1358.6</ele>
        <time>2015-06-24T09:51:16Z</time>
      </trkpt>
      <trkpt lat="42.15303" lon="9.07136">
        <ele>1358.4</ele>
        <time>2015-06-24T09:51:18Z</time>
      </trkpt>
      <trkpt lat="42.15304" lon="9.07136">
        <ele>1358.2</ele>
        <time>2015-06-24T09:51:19Z</time>
      </trkpt>
      <trkpt lat="42.15312" lon="9.07139">
        <ele>1357.4</ele>
        <time>2015-06-24T09:51:27Z</time>
      </trkpt>
      <trkpt lat="42.1532" lon="9.07144">
        <ele>1357</ele>
        <time>2015-06-24T09:51:37Z</time>
      </trkpt>
      <trkpt lat="42.15321" lon="9.07144">
        <ele>1357</ele>
        <time>2015-06-24T09:51:38Z</time>
      </trkpt>
      <trkpt lat="42.15326" lon="9.07149">
        <ele>1356.8</ele>
        <time>2015-06-24T09:51:44Z</time>
      </trkpt>
      <trkpt lat="42.1533" lon="9.0715">
        <ele>1356.4</ele>
        <time>2015-06-24T09:51:48Z</time>
      </trkpt>
      <trkpt lat="42.15335" lon="9.07155">
        <ele>1356</ele>
        <time>2015-06-24T09:51:56Z</time>
      </trkpt>
      <trkpt lat="42.1534" lon="9.07163">
        <ele>1355.4</ele>
        <time>2015-06-24T09:52:04Z</time>
      </trkpt>
      <trkpt lat="42.15343" lon="9.07167">
        <ele>1355.2</ele>
        <time>2015-06-24T09:52:10Z</time>
      </trkpt>
      <trkpt lat="42.15344" lon="9.07168">
        <ele>1355.2</ele>
        <time>2015-06-24T09:52:12Z</time>
      </trkpt>
      <trkpt lat="42.15346" lon="9.07167">
        <ele>1355.4</ele>
        <time>2015-06-24T09:52:15Z</time>
      </trkpt>
      <trkpt lat="42.15352" lon="9.07166">
        <ele>1355.6</ele>
        <time>2015-06-24T09:52:21Z</time>
      </trkpt>
      <trkpt lat="42.15353" lon="9.07168">
        <ele>1355.6</ele>
        <time>2015-06-24T09:52:23Z</time>
      </trkpt>
      <trkpt lat="42.15355" lon="9.0717">
        <ele>1355.4</ele>
        <time>2015-06-24T09:52:26Z</time>
      </trkpt>
      <trkpt lat="42.1536" lon="9.07174">
        <ele>1353.4</ele>
        <time>2015-06-24T09:52:35Z</time>
      </trkpt>
      <trkpt lat="42.15362" lon="9.07176">
        <ele>1352</ele>
        <time>2015-06-24T09:52:39Z</time>
      </trkpt>
      <trkpt lat="42.15364" lon="9.07176">
        <ele>1351.4</ele>
        <time>2015-06-24T09:52:42Z</time>
      </trkpt>
      <trkpt lat="42.15369" lon="9.07176">
        <ele>1351.2</ele>
        <time>2015-06-24T09:52:52Z</time>
      </trkpt>
      <trkpt lat="42.15357" lon="9.07177">
        <ele>1348.6</ele>
        <time>2015-06-24T09:53:09Z</time>
      </trkpt>
      <trkpt lat="42.15355" lon="9.07179">
        <ele>1348.4</ele>
        <time>2015-06-24T09:53:13Z</time>
      </trkpt>
      <trkpt lat="42.15353" lon="9.07183">
        <ele>1347.6</ele>
        <time>2015-06-24T09:53:17Z</time>
      </trkpt>
      <trkpt lat="42.15351" lon="9.07186">
        <ele>1345.8</ele>
        <time>2015-06-24T09:53:24Z</time>
      </trkpt>
      <trkpt lat="42.15346" lon="9.07188">
        <ele>1344.8</ele>
        <time>2015-06-24T09:53:30Z</time>
      </trkpt>
      <trkpt lat="42.15335" lon="9.07195">
        <ele>1343</ele>
        <time>2015-06-24T09:53:44Z</time>
      </trkpt>
      <trkpt lat="42.15333" lon="9.07197">
        <ele>1342.8</ele>
        <time>2015-06-24T09:53:48Z</time>
      </trkpt>
      <trkpt lat="42.15331" lon="9.07199">
        <ele>1342.2</ele>
        <time>2015-06-24T09:53:52Z</time>
      </trkpt>
      <trkpt lat="42.15328" lon="9.07202">
        <ele>1340.2</ele>
        <time>2015-06-24T09:54:00Z</time>
      </trkpt>
      <trkpt lat="42.15326" lon="9.07205">
        <ele>1339.8</ele>
        <time>2015-06-24T09:54:04Z</time>
      </trkpt>
      <trkpt lat="42.15318" lon="9.07205">
        <ele>1337.8</ele>
        <time>2015-06-24T09:54:25Z</time>
      </trkpt>
      <trkpt lat="42.15307" lon="9.07208">
        <ele>1337</ele>
        <time>2015-06-24T09:54:51Z</time>
      </trkpt>
      <trkpt lat="42.15303" lon="9.07211">
        <ele>1336.4</ele>
        <time>2015-06-24T09:54:56Z</time>
      </trkpt>
      <trkpt lat="42.15299" lon="9.07218">
        <ele>1335.2</ele>
        <time>2015-06-24T09:55:03Z</time>
      </trkpt>
      <trkpt lat="42.15297" lon="9.07222">
        <ele>1334.6</ele>
        <time>2015-06-24T09:55:08Z</time>
      </trkpt>
      <trkpt lat="42.15294" lon="9.07221">
        <ele>1332.4</ele>
        <time>2015-06-24T09:55:49Z</time>
      </trkpt>
      <trkpt lat="42.15289" lon="9.07228">
        <ele>1331.6</ele>
        <time>2015-06-24T09:55:56Z</time>
      </trkpt>
      <trkpt lat="42.15287" lon="9.07231">
        <ele>1330.8</ele>
        <time>2015-06-24T09:56:00Z</time>
      </trkpt>
      <trkpt lat="42.15284" lon="9.07234">
        <ele>1329.6</ele>
        <time>2015-06-24T09:56:05Z</time>
      </trkpt>
      <trkpt lat="42.1528" lon="9.07238">
        <ele>1328.2</ele>
        <time>2015-06-24T09:56:12Z</time>
      </trkpt>
      <trkpt lat="42.15275" lon="9.07241">
        <ele>1327.2</ele>
        <time>2015-06-24T09:56:17Z</time>
      </trkpt>
      <trkpt lat="42.15269" lon="9.07243">
        <ele>1325.6</ele>
        <time>2015-06-24T09:56:28Z</time>
      </trkpt>
      <trkpt lat="42.15266" lon="9.07244">
        <ele>1324.8</ele>
        <time>2015-06-24T09:56:34Z</time>
      </trkpt>
      <trkpt lat="42.15264" lon="9.07248">
        <ele>1323.6</ele>
        <time>2015-06-24T09:56:41Z</time>
      </trkpt>
      <trkpt lat="42.15262" lon="9.07252">
        <ele>1322.6</ele>
        <time>2015-06-24T09:56:47Z</time>
      </trkpt>
      <trkpt lat="42.15261" lon="9.07252">
        <ele>1321.8</ele>
        <time>2015-06-24T09:56:52Z</time>
      </trkpt>
      <trkpt lat="42.1526" lon="9.07252">
        <ele>1321.2</ele>
        <time>2015-06-24T09:56:54Z</time>
      </trkpt>
      <trkpt lat="42.15248" lon="9.0725">
        <ele>1319.8</ele>
        <time>2015-06-24T09:57:22Z</time>
      </trkpt>
      <trkpt lat="42.15243" lon="9.07252">
        <ele>1318.8</ele>
        <time>2015-06-24T09:57:32Z</time>
      </trkpt>
      <trkpt lat="42.15238" lon="9.07258">
        <ele>1318.2</ele>
        <time>2015-06-24T09:57:39Z</time>
      </trkpt>
      <trkpt lat="42.15235" lon="9.07259">
        <ele>1317.6</ele>
        <time>2015-06-24T09:57:48Z</time>
      </trkpt>
      <trkpt lat="42.15232" lon="9.07263">
        <ele>1316.6</ele>
        <time>2015-06-24T09:57:56Z</time>
      </trkpt>
      <trkpt lat="42.15229" lon="9.07265">
        <ele>1315.8</ele>
        <time>2015-06-24T09:58:03Z</time>
      </trkpt>
      <trkpt lat="42.15223" lon="9.0727">
        <ele>1314.4</ele>
        <time>2015-06-24T09:58:42Z</time>
      </trkpt>
      <trkpt lat="42.15225" lon="9.0727">
        <ele>1313.4</ele>
        <time>2015-06-24T09:58:49Z</time>
      </trkpt>
      <trkpt lat="42.15231" lon="9.0727">
        <ele>1312.2</ele>
        <time>2015-06-24T09:58:59Z</time>
      </trkpt>
      <trkpt lat="42.15234" lon="9.07269">
        <ele>1311</ele>
        <time>2015-06-24T09:59:08Z</time>
      </trkpt>
      <trkpt lat="42.15238" lon="9.07271">
        <ele>1310.6</ele>
        <time>2015-06-24T09:59:13Z</time>
      </trkpt>
      <trkpt lat="42.15238" lon="9.07274">
        <ele>1310.2</ele>
        <time>2015-06-24T09:59:19Z</time>
      </trkpt>
      <trkpt lat="42.15233" lon="9.07282">
        <ele>1308</ele>
        <time>2015-06-24T09:59:46Z</time>
      </trkpt>
      <trkpt lat="42.15232" lon="9.07282">
        <ele>1308</ele>
        <time>2015-06-24T09:59:47Z</time>
      </trkpt>
      <trkpt lat="42.15229" lon="9.07284">
        <ele>1308.2</ele>
        <time>2015-06-24T09:59:50Z</time>
      </trkpt>
      <trkpt lat="42.15226" lon="9.07286">
        <ele>1308.4</ele>
        <time>2015-06-24T09:59:58Z</time>
      </trkpt>
      <trkpt lat="42.15224" lon="9.07287">
        <ele>1308.6</ele>
        <time>2015-06-24T10:00:00Z</time>
      </trkpt>
      <trkpt lat="42.15222" lon="9.07288">
        <ele>1308.8</ele>
        <time>2015-06-24T10:00:02Z</time>
      </trkpt>
      <trkpt lat="42.15215" lon="9.07292">
        <ele>1309.8</ele>
        <time>2015-06-24T10:00:14Z</time>
      </trkpt>
      <trkpt lat="42.15214" lon="9.07297">
        <ele>1310.4</ele>
        <time>2015-06-24T10:00:44Z</time>
      </trkpt>
      <trkpt lat="42.15222" lon="9.07296">
        <ele>1308.8</ele>
        <time>2015-06-24T10:01:01Z</time>
      </trkpt>
      <trkpt lat="42.15222" lon="9.07298">
        <ele>1308.4</ele>
        <time>2015-06-24T10:01:05Z</time>
      </trkpt>
      <trkpt lat="42.15222" lon="9.07302">
        <ele>1306.6</ele>
        <time>2015-06-24T10:01:10Z</time>
      </trkpt>
      <trkpt lat="42.15224" lon="9.07305">
        <ele>1304.6</ele>
        <time>2015-06-24T10:01:29Z</time>
      </trkpt>
      <trkpt lat="42.15227" lon="9.07308">
        <ele>1304.4</ele>
        <time>2015-06-24T10:01:34Z</time>
      </trkpt>
      <trkpt lat="42.15228" lon="9.0731">
        <ele>1303.4</ele>
        <time>2015-06-24T10:01:38Z</time>
      </trkpt>
      <trkpt lat="42.15236" lon="9.07312">
        <ele>1300.8</ele>
        <time>2015-06-24T10:02:12Z</time>
      </trkpt>
      <trkpt lat="42.15238" lon="9.0731">
        <ele>1300.4</ele>
        <time>2015-06-24T10:02:20Z</time>
      </trkpt>
      <trkpt lat="42.15239" lon="9.073">
        <ele>1299.8</ele>
        <time>2015-06-24T10:02:39Z</time>
      </trkpt>
      <trkpt lat="42.15247" lon="9.07295">
        <ele>1300.6</ele>
        <time>2015-06-24T10:03:02Z</time>
      </trkpt>
      <trkpt lat="42.15251" lon="9.07293">
        <ele>1299</ele>
        <time>2015-06-24T10:03:09Z</time>
      </trkpt>
      <trkpt lat="42.15255" lon="9.07294">
        <ele>1298</ele>
        <time>2015-06-24T10:03:15Z</time>
      </trkpt>
      <trkpt lat="42.15272" lon="9.07296">
        <ele>1296.6</ele>
        <time>2015-06-24T10:03:39Z</time>
      </trkpt>
      <trkpt lat="42.15275" lon="9.07299">
        <ele>1296</ele>
        <time>2015-06-24T10:03:46Z</time>
      </trkpt>
      <trkpt lat="42.15279" lon="9.07302">
        <ele>1294.4</ele>
        <time>2015-06-24T10:03:57Z</time>
      </trkpt>
      <trkpt lat="42.15281" lon="9.07303">
        <ele>1293.8</ele>
        <time>2015-06-24T10:04:03Z</time>
      </trkpt>
      <trkpt lat="42.15288" lon="9.07305">
        <ele>1292</ele>
        <time>2015-06-24T10:04:13Z</time>
      </trkpt>
      <trkpt lat="42.15291" lon="9.07308">
        <ele>1291.4</ele>
        <time>2015-06-24T10:04:20Z</time>
      </trkpt>
      <trkpt lat="42.15291" lon="9.07311">
        <ele>1290.6</ele>
        <time>2015-06-24T10:04:26Z</time>
      </trkpt>
      <trkpt lat="42.15293" lon="9.07312">
        <ele>1289.8</ele>
        <time>2015-06-24T10:04:30Z</time>
      </trkpt>
      <trkpt lat="42.15294" lon="9.07315">
        <ele>1288.4</ele>
        <time>2015-06-24T10:04:36Z</time>
      </trkpt>
      <trkpt lat="42.15297" lon="9.07316">
        <ele>1287.2</ele>
        <time>2015-06-24T10:04:41Z</time>
      </trkpt>
      <trkpt lat="42.15301" lon="9.0732">
        <ele>1286</ele>
        <time>2015-06-24T10:04:48Z</time>
      </trkpt>
      <trkpt lat="42.15305" lon="9.07322">
        <ele>1285</ele>
        <time>2015-06-24T10:04:54Z</time>
      </trkpt>
      <trkpt lat="42.15307" lon="9.07323">
        <ele>1284.2</ele>
        <time>2015-06-24T10:04:59Z</time>
      </trkpt>
      <trkpt lat="42.15312" lon="9.07327">
        <ele>1282.2</ele>
        <time>2015-06-24T10:05:08Z</time>
      </trkpt>
      <trkpt lat="42.15315" lon="9.07328">
        <ele>1281.8</ele>
        <time>2015-06-24T10:05:14Z</time>
      </trkpt>
      <trkpt lat="42.15312" lon="9.0733">
        <ele>1280</ele>
        <time>2015-06-24T10:05:26Z</time>
      </trkpt>
      <trkpt lat="42.15305" lon="9.07336">
        <ele>1279</ele>
        <time>2015-06-24T10:05:35Z</time>
      </trkpt>
      <trkpt lat="42.15301" lon="9.0734">
        <ele>1278.4</ele>
        <time>2015-06-24T10:05:40Z</time>
      </trkpt>
      <trkpt lat="42.15299" lon="9.07346">
        <ele>1277</ele>
        <time>2015-06-24T10:05:47Z</time>
      </trkpt>
      <trkpt lat="42.15297" lon="9.0735">
        <ele>1276</ele>
        <time>2015-06-24T10:05:53Z</time>
      </trkpt>
      <trkpt lat="42.15297" lon="9.07354">
        <ele>1274.8</ele>
        <time>2015-06-24T10:06:00Z</time>
      </trkpt>
      <trkpt lat="42.15296" lon="9.07357">
        <ele>1274</ele>
        <time>2015-06-24T10:06:06Z</time>
      </trkpt>
      <trkpt lat="42.15299" lon="9.07361">
        <ele>1271.8</ele>
        <time>2015-06-24T10:06:23Z</time>
      </trkpt>
      <trkpt lat="42.15306" lon="9.0736">
        <ele>1271.4</ele>
        <time>2015-06-24T10:06:32Z</time>
      </trkpt>
      <trkpt lat="42.15312" lon="9.07362">
        <ele>1270.4</ele>
        <time>2015-06-24T10:06:40Z</time>
      </trkpt>
      <trkpt lat="42.15315" lon="9.0737">
        <ele>1269.4</ele>
        <time>2015-06-24T10:06:50Z</time>
      </trkpt>
      <trkpt lat="42.15316" lon="9.07374">
        <ele>1268.6</ele>
        <time>2015-06-24T10:06:56Z</time>
      </trkpt>
      <trkpt lat="42.15315" lon="9.07377">
        <ele>1267.2</ele>
        <time>2015-06-24T10:07:03Z</time>
      </trkpt>
      <trkpt lat="42.15315" lon="9.07378">
        <ele>1266.2</ele>
        <time>2015-06-24T10:07:11Z</time>
      </trkpt>
      <trkpt lat="42.15314" lon="9.07385">
        <ele>1266</ele>
        <time>2015-06-24T10:07:25Z</time>
      </trkpt>
      <trkpt lat="42.15318" lon="9.07386">
        <ele>1265.8</ele>
        <time>2015-06-24T10:07:31Z</time>
      </trkpt>
      <trkpt lat="42.15323" lon="9.07385">
        <ele>1264.4</ele>
        <time>2015-06-24T10:07:44Z</time>
      </trkpt>
    </trkseg>
  </trk>
</gpx>